[[{"header":{"parameterUnit":"m.s-1","parameterCategory":1,"la1":31.0,"la2":29.5877,"lo1":-88.7671,"lo2":-86.6584,"dy":0.0162,"dx":0.0185,"nx":115,"ny":88,"refTime":"2023-07-04T06:00:00:Z","depth":0,"parameterNumber":2,"parameterNumberName":"U-component_of_WINDS"},"data":[0.0,0.0,0.0,0.0,0.0,0.0,0.0,0.0,0.0,0.0,0.0,0.0,0.0,0.0,0.0,0.0,0.0,0.0,0.0,0.0,0.0,0.0,0.0,0.0,0.0,0.0,0.0,0.0,0.0,0.0,0.0,0.0,0.0,0.0,0.0,0.0,0.0,0.0,0.0,0.0,0.0,0.0,0.0,0.0,0.0,0.0,0.0,0.0,0.0,0.0,0.0,0.0,0.0,0.0,0.0,0.0,0.0,0.0,0.0,0.0,0.0,0.0,0.0,0.0,0.0,0.0,0.0,0.0,0.0,0.0,0.0,0.0,0.0,0.0,0.0,0.0,0.0,0.0,0.0,0.0,0.0,0.0,0.0,0.0,0.0,0.0,0.0,0.0,0.0,0.0,0.0,0.0,0.0,0.0,0.0,0.0,0.0,0.0,0.0,0.0,0.0,0.0,0.0,0.0,0.0,0.0,0.0,0.0,0.0,0.0,0.0,0.0,0.0,0.0,0.0,0.0,0.0,0.0,0.0,0.0,0.0,0.0,0.0,0.0,0.0,0.0,0.0,0.0,0.0,0.0,0.0,0.0,0.0,0.0,0.0,0.0,0.0,0.0,0.0,0.0,0.0,0.0,0.0,0.0,0.0,0.0,0.0,0.0,0.0,0.0,0.0,0.0,0.0,0.0,0.0,0.0,0.0,0.0,0.0,0.0,0.0,0.0,0.0,0.0,0.0,0.0,0.0,0.0,0.0,0.0,0.0,0.0,0.0,0.0,0.0,0.0,0.0,0.0,0.0,0.0,0.0,0.0,0.0,0.0,0.0,0.0,0.0,0.0,0.0,0.0,0.0,0.0,0.0,0.0,0.0,0.0,0.0,0.0,0.0,0.0,0.0,0.0,0.0,0.0,0.0,0.0,0.0,0.0,0.0,0.0,0.0,0.0,0.0,0.0,0.0,0.0,0.0,0.0,0.0,0.0,0.0,0.0,0.0,0.0,0.0,0.0,0.0,0.0,0.0,0.0,0.0,0.0,0.0,0.0,0.0,0.0,0.0,0.0,0.0,0.0,0.0,0.0,0.0,0.0,0.0,0.0,0.0,0.0,0.0,0.0,0.0,0.0,0.0,0.0,0.0,0.0,0.0,0.0,0.0,0.0,0.0,0.0,0.0,0.0,0.0,0.0,0.0,0.0,0.0,0.0,0.0,0.0,0.0,0.0,0.0,0.0,0.0,0.0,0.0,0.0,0.0,0.0,0.0,0.0,0.0,0.0,0.0,0.0,0.0,0.0,0.0,0.0,0.0,0.0,0.0,0.0,0.0,0.0,0.0,0.0,0.0,0.0,0.0,0.0,0.0,0.0,0.0,0.0,0.0,0.0,0.0,0.0,0.0,0.0,0.0,0.0,0.0,0.0,0.0,0.0,0.0,0.0,0.0,0.0,0.0,0.0,0.0,0.0,0.0,0.0,0.0,0.0,0.0,0.0,0.0,0.0,0.0,0.0,0.0,0.0,0.0,0.0,0.0,0.0,0.0,0.0,0.0,0.0,0.0,0.0,0.0,0.0,0.0,0.0,0.0,0.0,0.0,0.0,0.0,0.0,0.0,0.0,0.0,0.0,0.0,0.0,0.0,0.0,0.0,0.0,0.0,0.0,0.0,0.0,0.0,0.0,0.0,0.0,0.0,0.0,0.0,0.0,0.0,0.0,0.0,0.0,0.0,0.0,0.0,0.0,0.0,0.0,0.0,0.0,0.0,0.0,0.0,0.0,0.0,0.0,0.0,0.0,0.0,0.0,0.0,0.0,0.0,0.0,0.0,0.0,0.0,0.0,0.0,0.0,0.0,0.0,0.0,0.0,0.0,0.0,0.0,0.0,0.0,0.0,0.0,0.0,0.0,0.0,0.0,0.0,0.0,0.0,0.0,0.0,0.0,0.0,0.0,0.0,0.0,0.0,0.0,0.0,0.0,0.0,0.0,0.0,0.0,0.0,0.0,0.0,0.0,0.0,0.0,0.0,0.0,0.0,0.0,0.0,0.0,0.0,0.0,0.0,0.0,0.0,0.0,0.0,0.0,0.0,0.0,0.0,0.0,0.0,0.0,0.0,0.0,0.0,0.0,0.0,0.0,0.0,0.0,0.0,0.0,0.0,0.0,0.0,0.0,0.0,0.0,0.0,0.0,0.0,0.0,0.0,0.0,0.0,0.0,0.0,0.0,0.0,0.0,0.0,0.0,0.0,0.0,0.0,0.0,0.0,0.0,0.0,0.0,0.0,0.0,0.0,0.0,0.0,0.0,0.0,0.0,0.0,0.0,0.0,0.0,0.0,0.0,0.0,0.0,0.0,0.0,0.0,0.0,0.0,0.0,0.0,0.0,0.0,0.0,0.0,0.0,0.0,0.0,0.0,0.0,0.0,0.0,0.0,0.0,0.0,0.0,0.0,0.0,0.0,0.0,0.0,0.0,0.0,0.0,0.0,0.0,0.0,0.0,0.0,0.0,0.0,0.0,0.0,0.0,0.0,0.0,0.0,0.0,0.0,0.0,0.0,0.0,0.0,0.0,0.0,0.0,0.0,0.0,0.0,0.0,0.0,0.0,0.0,0.0,0.0,0.0,0.0,0.0,0.0,0.0,0.0,0.0,0.0,0.0,0.0,0.0,0.0,0.0,0.0,0.0,0.0,0.0,0.0,0.0,0.0,0.0,0.0,0.0,0.0,0.0,0.0,0.0,0.0,0.0,0.0,0.0,0.0,0.0,0.0,0.0,0.0,0.0,0.0,0.0,0.0,0.0,0.0,0.0,0.0,0.0,0.0,0.0,0.0,0.0,0.0,0.0,0.0,0.0,0.0,0.0,0.0,0.0,0.0,0.0,0.0,0.0,0.0,0.0,0.0,0.0,0.0,0.0,0.0,0.0,0.0,0.0,0.0,0.0,0.0,0.0,0.0,0.0,0.0,0.0,0.0,0.0,0.0,0.0,0.0,0.0,0.0,0.0,0.0,0.0,0.0,0.0,0.0,0.0,0.0,0.0,0.0,0.0,0.0,0.0,0.0,0.0,0.0,0.0,0.0,0.0,0.0,0.0,0.0,0.0,0.0,0.0,0.0,0.0,0.0,0.0,0.0,0.0,0.0,0.0,0.0,0.0,0.0,0.0,0.0,0.0,0.0,0.0,0.0,0.0,0.0,0.0,0.0,0.0,0.0,0.0,0.0,0.0,0.0,0.0,0.0,0.0,0.0,0.0,0.0,0.0,0.0,0.0,0.0,0.0,0.0,0.0,0.0,0.0,0.0,0.0,0.0,0.0,0.0,0.0,0.0,0.0,0.0,0.0,0.0,0.0,0.0,0.0,0.0,0.0,0.0,0.0,0.0,0.0,0.0,0.0,0.0,0.0,0.0,0.0,0.0,0.0,0.0,0.0,0.0,0.0,0.0,0.0,0.0,0.0,0.0,0.0,0.0,0.0,0.0,0.0,0.0,0.0,0.0,0.0,0.0,0.0,0.0,0.0,0.0,0.0,0.0,0.0,0.0,0.0,0.0,0.0,0.0,0.0,0.0,0.0,0.0,0.0,0.0,0.0,0.0,0.0,0.0,0.0,0.0,0.0,0.0,0.0,0.0,0.0,0.0,0.0,0.0,0.0,0.0,0.0,0.0,0.0,0.0,0.0,0.0,0.0,0.0,0.0,0.0,0.0,0.0,0.0,0.0,0.0,0.0,0.0,0.0,0.0,0.0,0.0,0.0,0.0,0.0,0.0,0.0,0.0,0.0,0.0,0.0,0.0,0.0,0.0,0.0,0.0,0.0,0.0,0.0,0.0,0.0,0.0,0.0,0.0,0.0,0.0,0.0,0.0,0.0,0.0,0.0,0.0,0.0,0.0,0.0,0.0,0.0,0.0,0.0,0.0,0.0,0.0,0.0,0.0,0.0,0.0,0.0,0.0,0.0,0.0,0.0,0.0,0.0,0.0,0.0,0.0,0.0,0.0,0.0,0.0,0.0,0.0,0.0,0.0,0.0,0.0,0.0,0.0,0.0,0.0,0.0,0.0,0.0,0.0,0.0,0.0,0.0,0.0,0.0,0.0,0.0,0.0,0.0,0.0,0.0,0.0,0.0,0.0,0.0,0.0,0.0,0.0,0.0,0.0,0.0,0.0,0.0,0.0,0.0,0.0,0.0,0.0,0.0,0.0,0.0,0.0,0.0,0.0,0.0,0.0,0.0,0.0,0.0,0.0,0.0,0.0,0.0,0.0,0.0,0.0,0.0,0.0,0.0,0.0,0.0,-0.5465,0.0,0.0,0.0,0.0,0.0,0.0,0.0,0.0,0.0,0.0,0.0,0.0,0.0,0.0,0.0,0.0,0.0,0.0,0.0,0.0,0.0,0.0,0.0,0.0,0.0,0.0,0.0,0.0,0.0,0.0,0.0,0.0,0.0,0.0,0.0,0.0,0.0,0.0,0.0,0.0,0.0,0.0,0.0,0.0,0.0,0.0,0.0,0.0,0.0,0.0,0.0,0.0,0.0,0.0,0.0,0.0,0.0,0.0,0.0,0.0,0.0,0.0,0.0,0.0,0.0,0.0,0.0,0.0,0.0,0.0,0.0,0.0,0.0,0.0,0.0,0.0,0.0,0.0,0.0,0.0,0.0,0.0,0.0,0.0,0.0,0.0,0.0,0.0,0.0,0.0,0.0,0.0,0.0,0.0,0.0,0.0,0.0,0.0,0.0,0.0,0.0,0.0,0.0,0.0,0.0,0.0,0.0,0.0,0.0,0.0,-0.4985,-0.4992,-0.5026,-0.5213,-0.5584,0.0,0.0,0.0,0.0,0.0,0.0,0.0,0.0,0.0,0.0,0.0,0.0,0.0,0.0,0.0,0.0,0.0,0.0,0.0,0.0,0.0,0.0,0.0,0.0,0.0,0.0,0.0,0.0,0.0,0.0,0.0,0.0,0.0,0.0,0.0,0.0,0.0,0.0,0.0,0.0,0.0,0.0,0.0,0.0,0.0,0.0,0.0,0.0,0.0,0.0,0.0,0.0,0.0,0.0,0.0,0.0,0.0,0.0,0.0,0.0,0.0,0.0,0.0,0.0,0.0,0.0,0.0,0.0,0.0,0.0,0.0,0.0,0.0,0.0,0.0,0.0,0.0,0.0,0.0,0.0,0.0,0.0,0.0,0.0,0.0,0.0,0.0,0.0,0.0,0.0,0.0,0.0,0.0,0.0,0.0,0.0,0.0,0.0,0.0,0.0,0.0,0.0,0.0,0.0,0.0,0.0,0.0,0.0,0.0,0.0,0.0,0.0,-0.4834,-0.5012,-0.5478,0.0,0.0,0.0,0.0,0.0,0.0,0.0,0.0,0.0,0.0,0.0,0.0,0.0,0.0,0.0,0.0,0.0,0.0,0.0,0.0,0.0,0.0,0.0,0.0,0.0,0.0,0.0,0.0,0.0,0.0,0.0,0.0,0.0,0.0,0.0,0.0,0.0,0.0,0.0,0.0,0.0,0.0,0.0,0.0,0.0,0.0,0.0,0.0,0.0,0.0,0.0,0.0,0.0,0.0,0.0,0.0,0.0,0.0,0.0,0.0,0.0,0.0,0.0,0.0,0.0,0.0,0.0,0.0,0.0,0.0,0.0,0.0,0.0,0.0,0.0,0.0,0.0,0.0,0.0,0.0,0.0,0.0,0.0,0.0,0.0,0.0,0.0,0.0,0.0,0.0,0.0,0.0,0.0,0.0,0.0,0.0,0.0,0.0,0.0,0.0,0.0,0.0,0.0,0.0,0.0,0.0,0.0,0.0,0.0,0.0,-0.4296,-0.4804,-0.4666,0.0,-0.5242,0.0,0.0,0.0,0.0,0.0,0.0,0.0,0.0,0.0,0.0,0.0,0.0,0.0,0.0,0.0,0.0,0.0,0.0,0.0,0.0,0.0,0.0,0.0,0.0,0.0,0.0,0.0,0.0,0.0,0.0,0.0,0.0,0.0,0.0,0.0,0.0,0.0,0.0,0.0,0.0,0.0,0.0,0.0,0.0,0.0,0.0,0.0,0.0,0.0,0.0,0.0,0.0,0.0,0.0,0.0,0.0,0.0,0.0,0.0,0.0,0.0,0.0,0.0,0.0,0.0,0.0,0.0,0.0,0.0,0.0,0.0,0.0,0.0,0.0,0.0,0.0,0.0,0.0,0.0,0.0,0.0,0.0,0.0,0.0,0.0,0.0,0.0,0.0,0.0,0.0,0.0,0.0,0.0,0.0,0.0,0.0,0.0,0.0,0.0,0.0,0.0,0.0,0.0,0.0,0.0,0.0,0.0,0.0,0.0,0.0,-0.4096,-0.4334,-0.4411,-0.4503,0.0,0.0,0.0,0.0,0.0,0.0,0.0,0.0,0.0,0.0,0.0,0.0,0.0,0.0,0.0,0.0,0.0,0.0,0.0,0.0,0.0,0.0,0.0,0.0,0.0,0.0,0.0,0.0,0.0,0.0,0.0,0.0,0.0,0.0,0.0,0.0,0.0,0.0,0.0,0.0,0.0,0.0,0.0,0.0,0.0,0.0,0.0,0.0,0.0,0.0,0.0,0.0,0.0,0.0,0.0,0.0,0.0,0.0,0.0,0.0,0.0,0.0,0.0,0.0,0.0,0.0,0.0,0.0,0.0,0.0,0.0,0.0,0.0,0.0,0.0,0.0,0.0,0.0,0.0,0.0,0.0,0.0,0.0,0.0,0.0,0.0,0.0,0.0,0.0,0.0,0.0,0.0,0.0,0.0,0.0,0.0,0.0,0.0,0.0,0.0,0.0,0.0,0.0,0.0,0.0,0.0,0.0,0.0,0.0,0.0,-0.3974,-0.3971,-0.4112,-0.4243,-0.4374,-0.4475,0.0,0.0,0.0,0.0,0.0,0.0,0.0,0.0,0.0,0.0,0.0,0.0,0.0,0.0,0.0,0.0,0.0,0.0,0.0,0.0,0.0,0.0,0.0,0.0,0.0,0.0,0.0,0.0,0.0,0.0,0.0,0.0,0.0,0.0,0.0,0.0,0.0,0.0,0.0,0.0,0.0,0.0,0.0,0.0,0.0,0.0,0.0,0.0,0.0,0.0,0.0,0.0,0.0,0.0,0.0,0.0,0.0,0.0,0.0,0.0,0.0,0.0,0.0,0.0,0.0,0.0,0.0,0.0,0.0,0.0,0.0,0.0,0.0,0.0,0.0,0.0,0.0,0.0,0.0,0.0,0.0,0.0,0.0,0.0,0.0,0.0,0.0,0.0,0.0,0.0,0.0,0.0,0.0,0.0,0.0,0.0,0.0,0.0,0.0,0.0,0.0,0.0,0.0,0.0,0.0,0.0,0.0,0.0,-0.3655,-0.3712,-0.3944,-0.4328,-0.4399,-0.4583,0.0,0.0,0.0,0.0,0.0,0.0,0.0,0.0,0.0,0.0,0.0,0.0,0.0,0.0,0.0,0.0,0.0,0.0,0.0,0.0,0.0,0.0,0.0,0.0,0.0,0.0,0.0,0.0,0.0,0.0,0.0,0.0,0.0,0.0,0.0,0.0,0.0,0.0,0.0,0.0,0.0,0.0,0.0,0.0,0.0,0.0,0.0,0.0,0.0,0.0,0.0,0.0,0.0,0.0,0.0,0.0,0.0,0.0,0.0,0.0,0.0,0.0,0.0,0.0,0.0,0.0,0.0,0.0,0.0,0.0,0.0,0.0,0.0,0.0,0.0,0.0,0.0,0.0,0.0,0.0,0.0,0.0,0.0,0.0,0.0,0.0,0.0,0.0,0.0,0.0,0.0,0.0,0.0,0.0,0.0,0.0,0.0,0.0,0.0,0.0,0.0,0.0,0.0,0.0,0.0,0.0,0.0,0.0,0.0,-0.3706,-0.3733,-0.3783,-0.3966,-0.4322,-0.4424,0.0,0.0,0.0,0.0,0.0,0.0,0.0,0.0,0.0,0.0,0.0,0.0,0.0,0.0,0.0,0.0,0.0,0.0,0.0,0.0,0.0,0.0,0.0,0.0,0.0,0.0,0.0,0.0,0.0,0.0,0.0,0.0,0.0,0.0,0.0,0.0,0.0,0.0,0.0,0.0,0.0,0.0,0.0,0.0,0.0,0.0,0.0,0.0,0.0,0.0,0.0,0.0,0.0,0.0,0.0,0.0,0.0,0.0,0.0,0.0,0.0,0.0,0.0,0.0,0.0,0.0,0.0,0.0,0.0,0.0,0.0,0.0,0.0,0.0,0.0,0.0,0.0,0.0,0.0,0.0,0.0,0.0,0.0,0.0,0.0,0.0,0.0,0.0,0.0,0.0,0.0,0.0,0.0,0.0,0.0,0.0,0.0,0.0,0.0,0.0,0.0,0.0,0.0,0.0,0.0,0.0,0.0,0.0,0.0,-0.3833,0.0,-0.3902,-0.3942,-0.4203,-0.4277,0.0,0.0,0.0,0.0,0.0,0.0,0.0,0.0,0.0,0.0,0.0,0.0,0.0,0.0,0.0,0.0,0.0,0.0,0.0,0.0,0.0,0.0,0.0,0.0,0.0,0.0,0.0,0.0,0.0,0.0,0.0,0.0,0.0,0.0,0.0,0.0,0.0,0.0,0.0,0.0,0.0,0.0,0.0,0.0,0.0,0.0,0.0,0.0,0.0,0.0,0.0,0.0,0.0,0.0,0.0,0.0,0.0,0.0,0.0,0.0,0.0,0.0,0.0,0.0,0.0,0.0,0.0,0.0,0.0,0.0,0.0,0.0,0.0,0.0,0.0,0.0,0.0,0.0,0.0,0.0,0.0,0.0,0.0,0.0,0.0,0.0,0.0,0.0,0.0,0.0,0.0,0.0,0.0,0.0,0.0,0.0,0.0,0.0,0.0,0.0,0.0,0.0,0.0,0.0,0.0,0.0,0.0,0.0,-0.3873,-0.3917,-0.4148,-0.4295,-0.4491,-0.4109,-0.4156,0.0,0.0,0.0,0.0,0.0,0.0,0.0,0.0,0.0,0.0,0.0,0.0,0.0,0.0,0.0,0.0,0.0,0.0,0.0,0.0,0.0,0.0,0.0,0.0,0.0,0.0,0.0,0.0,0.0,0.0,0.0,0.0,0.0,0.0,0.0,0.0,0.0,0.0,0.0,0.0,0.0,0.0,0.0,0.0,0.0,0.0,0.0,0.0,0.0,0.0,0.0,0.0,0.0,0.0,0.0,0.0,0.0,0.0,0.0,0.0,0.0,0.0,0.0,0.0,0.0,0.0,0.0,0.0,0.0,0.0,0.0,0.0,0.0,0.0,0.0,0.0,0.0,0.0,0.0,0.0,0.0,0.0,0.0,0.0,0.0,0.0,0.0,0.0,0.0,0.0,0.0,0.0,0.0,0.0,0.0,0.0,0.0,0.0,0.0,0.0,0.0,0.0,0.0,0.0,0.0,0.0,0.0,0.0,0.0,-0.3781,-0.3937,-0.4059,-0.4136,-0.3995,-0.3945,0.0,0.0,0.0,0.0,0.0,0.0,0.0,0.0,0.0,0.0,0.0,0.0,0.0,0.0,0.0,0.0,0.0,0.0,0.0,0.0,0.0,0.0,0.0,0.0,0.0,0.0,0.0,0.0,0.0,0.0,0.0,0.0,0.0,0.0,0.0,0.0,0.0,0.0,0.0,0.0,0.0,0.0,0.0,0.0,0.0,0.0,0.0,0.0,0.0,0.0,0.0,0.0,0.0,0.0,0.0,0.0,0.0,0.0,0.0,0.0,0.0,0.0,0.0,0.0,0.0,0.0,0.0,0.0,0.0,0.0,0.0,0.0,0.0,0.0,0.0,0.0,0.0,0.0,0.0,0.0,0.0,0.0,0.0,0.0,0.0,0.0,0.0,0.0,0.0,0.0,0.0,0.0,0.0,0.0,0.0,0.0,0.0,0.0,0.0,0.0,0.0,0.0,0.0,0.0,0.0,0.0,0.0,0.0,0.0,-0.3639,-0.3623,-0.3714,-0.3924,-0.3831,-0.3781,-0.3785,0.0,0.0,0.0,0.0,0.0,0.0,0.0,0.0,0.0,0.0,0.0,0.0,0.0,0.0,0.0,0.0,0.0,0.0,0.0,0.0,0.0,0.0,0.0,0.0,0.0,0.0,0.0,0.0,0.0,0.0,0.0,0.0,0.0,0.0,0.0,0.0,0.0,0.0,0.0,0.0,0.0,0.0,0.0,0.0,0.0,0.0,0.0,0.0,0.0,0.0,0.0,0.0,0.0,0.0,0.0,0.0,0.0,0.0,0.0,0.0,0.0,0.0,0.0,0.0,0.0,0.0,0.0,0.0,0.0,0.0,0.0,0.0,0.0,0.0,0.0,0.0,0.0,0.0,0.0,0.0,0.0,0.0,0.0,0.0,0.0,0.0,0.0,0.0,0.0,0.0,0.0,0.0,0.0,0.0,0.0,0.0,0.0,0.0,0.0,0.0,0.0,0.0,0.0,0.0,0.0,0.0,0.0,0.0,-0.3516,-0.3265,-0.3321,-0.3759,-0.3667,-0.3663,0.0,0.0,0.0,0.0,0.0,0.0,0.0,0.0,0.0,0.0,0.0,0.0,0.0,0.0,0.0,0.0,0.0,0.0,0.0,0.0,0.0,0.0,0.0,0.0,0.0,0.0,0.0,0.0,0.0,0.0,0.0,0.0,0.0,0.0,0.0,0.0,0.0,0.0,0.0,0.0,0.0,0.0,0.0,0.0,0.0,0.0,0.0,0.0,0.0,0.0,0.0,0.0,0.0,0.0,0.0,0.0,0.0,0.0,0.0,0.0,0.0,0.0,0.0,0.0,0.0,0.0,0.0,0.0,0.0,0.0,0.0,0.0,0.0,0.0,0.0,0.0,0.0,0.0,0.0,0.0,0.0,0.0,0.0,0.0,0.0,0.0,0.0,0.0,0.0,0.0,0.0,0.0,0.0,0.0,0.0,0.0,0.0,0.0,0.0,0.0,0.0,0.0,0.0,0.0,0.0,0.0,0.0,0.0,0.0,-0.2986,-0.3159,-0.3286,-0.3416,-0.3364,-0.3315,0.0,0.0,0.0,0.0,0.0,0.0,0.0,0.0,0.0,0.0,0.0,0.0,0.0,0.0,0.0,0.0,0.0,0.0,0.0,0.0,0.0,0.0,0.0,0.0,0.0,0.0,0.0,0.0,0.0,0.0,0.0,0.0,0.0,0.0,0.0,0.0,0.0,0.0,0.0,0.0,0.0,0.0,0.0,0.0,0.0,0.0,0.0,0.0,0.0,0.0,0.0,0.0,0.0,0.0,0.0,0.0,0.0,0.0,0.0,0.0,0.0,0.0,0.0,0.0,0.0,0.0,0.0,0.0,0.0,0.0,0.0,0.0,0.0,0.0,0.0,0.0,0.0,0.0,0.0,0.0,0.0,0.0,0.0,0.0,0.0,0.0,0.0,0.0,0.0,0.0,0.0,0.0,0.0,0.0,0.0,0.0,0.0,0.0,0.0,0.0,0.0,0.0,0.0,0.0,0.0,0.0,0.0,0.0,-0.2444,-0.2771,-0.2981,-0.3112,-0.3144,-0.3191,-0.3175,0.0,0.0,0.0,0.0,0.0,0.0,0.0,0.0,0.0,0.0,0.0,0.0,0.0,0.0,0.0,0.0,0.0,0.0,0.0,0.0,0.0,0.0,0.0,0.0,0.0,0.0,0.0,0.0,0.0,0.0,0.0,0.0,0.0,0.0,0.0,0.0,0.0,0.0,0.0,0.0,0.0,0.0,0.0,0.0,0.0,0.0,0.0,0.0,0.0,0.0,0.0,0.0,0.0,0.0,0.0,0.0,0.0,0.0,0.0,0.0,0.0,0.0,0.0,0.0,0.0,0.0,0.0,0.0,0.0,0.0,0.0,0.0,0.0,0.0,0.0,0.0,0.0,0.0,0.0,0.0,0.0,0.0,0.0,0.0,0.0,0.0,0.0,0.0,0.0,0.0,0.0,0.0,0.0,0.0,0.0,0.0,0.0,0.0,0.0,0.0,0.0,0.0,0.0,0.0,0.0,0.0,0.0,0.0,-0.2048,-0.2417,-0.2572,-0.2728,-0.298,-0.3133,-0.3161,0.0,0.0,0.0,0.0,0.0,0.0,0.0,0.0,0.0,0.0,0.0,0.0,0.0,0.0,0.0,0.0,0.0,0.0,0.0,0.0,0.0,0.0,0.0,0.0,0.0,0.0,0.0,0.0,0.0,0.0,0.0,0.0,0.0,0.0,0.0,0.0,0.0,0.0,0.0,0.0,0.0,0.0,0.0,0.0,0.0,0.0,0.0,0.0,0.0,0.0,0.0,0.0,0.0,0.0,0.0,0.0,0.0,0.0,0.0,0.0,0.0,0.0,0.0,0.0,0.0,0.0,0.0,0.0,0.0,0.0,0.0,0.0,0.0,0.0,0.0,0.0,0.0,0.0,0.0,0.0,0.0,0.0,0.0,0.0,0.0,0.0,0.0,0.0,0.0,0.0,0.0,0.0,0.0,0.0,0.0,0.0,0.0,0.0,0.0,0.0,0.0,0.0,0.0,0.0,0.0,0.0,0.0,0.0,-0.1449,-0.0603,-0.1288,-0.1971,-0.2717,-0.288,-0.2908,0.0,0.0,0.0,0.0,0.0,0.0,0.0,0.0,0.0,0.0,0.0,0.0,0.0,0.0,0.0,0.0,0.0,0.0,0.0,0.0,0.0,0.0,0.0,0.0,0.0,0.0,0.0,0.0,0.0,0.0,0.0,0.0,0.0,0.0,0.0,0.0,0.0,0.0,0.0,0.0,0.0,0.0,0.0,0.0,0.0,0.0,0.0,0.0,0.2593,0.0,0.0,0.0,0.0,0.0,0.0,0.0,0.0,0.0,0.0,0.0,0.0,0.0,0.0,0.0,0.0,0.0,0.0,0.0,0.0,0.0,0.0,0.0,0.0,0.0,0.0,0.0,0.0,0.0,0.0,0.0,0.0,0.0,0.0,0.0,0.0,0.0,0.0,0.0,0.0,0.0,0.0,0.0,0.0,0.0,0.0,0.0,0.0,0.0,0.0,0.0,0.0,0.0,0.0,0.0,0.0,0.0,0.0,0.0,-0.0879,-0.0052,-0.0873,-0.1391,-0.1635,-0.2387,-0.2728,0.0,0.0,0.0,0.0,0.0,0.0,0.0,0.0,0.0,0.0,0.0,0.0,0.0,0.0,0.0,0.0,0.0,0.0,0.0,0.0,0.0,0.0,0.0,0.0,0.0,0.0,0.0,0.0,0.0,0.0,0.0,0.0,0.0,0.0,0.0,0.0,0.0,0.0,0.0,0.0,0.0,0.0,0.0,0.0,0.0,0.0,0.0,0.0,0.0,0.0,0.0,0.0,0.0,0.0,0.0,0.0,0.0,0.0,0.0,0.0,0.0,0.0,0.0,0.0,0.0,0.0,0.0,0.0,0.0,0.0,0.0,0.0,0.0,0.0,0.0,0.0,0.0,0.0,0.0,0.0,0.0,0.0,0.0,0.0,0.0,0.0,0.0,0.0,0.0,0.0,0.0,0.0,0.0,0.0,0.0,0.0,0.0,0.0,0.0,0.0,0.0,0.0,0.0,0.0,0.0,0.0,0.0,-0.0889,-0.0533,-0.0053,-0.0716,-0.0897,-0.0448,-0.1731,-0.2496,-0.2521,0.0,0.0,0.0,0.0,0.0,0.0,0.0,0.0,0.0,0.0,0.0,0.0,0.0,0.0,0.0,0.0,0.0,0.0,0.0,0.0,0.0,0.0,0.0,0.0,0.0,0.0,0.0,0.0,0.0,0.0,0.0,0.0,0.0,0.0,0.0,0.0,0.0,0.0,0.1614,0.1713,0.0,0.0,0.0,0.0,0.0,0.0,0.0,0.0,0.2738,0.0,0.0,0.0,0.0,0.0,0.0,0.0,0.0,0.0,0.0,0.0,0.0,0.0,0.0,0.0,0.0,0.0,0.0,0.0,0.0,0.0,0.0,0.0,0.0,0.0,0.0,0.0,0.0,0.0,0.0,0.0,0.0,0.0,0.0,0.0,0.0,0.0,0.0,0.0,0.0,0.0,0.0,0.0,0.0,0.0,0.0,0.0,0.0,0.0,0.0,0.0,0.0,0.0,0.0,0.0,0.0,-0.1363,-0.1203,-0.0746,-0.0,-0.0165,-0.028,-0.0392,-0.11,-0.1685,-0.2182,0.0,0.0,0.0,0.0,0.0,0.0,0.0,0.0,0.0,0.0,0.0,0.0,0.0,0.0,0.0,0.0,0.0,0.0,0.0,0.0,0.0,0.0,0.0,0.0,0.0,0.0,0.0,0.0,0.0,0.0,0.0,0.0,0.0,0.0,0.0,0.0,0.0,0.0,0.0,0.2261,0.2546,0.0,0.0,0.0,0.0,0.0,0.0,0.0,0.0,0.321,0.0,0.0,0.0,0.0,0.0,0.0,0.0,0.0,0.0,0.0,0.0,0.0,0.0,0.0,0.0,0.0,0.0,0.0,0.0,0.0,0.0,0.0,0.0,0.0,0.0,0.0,0.0,0.0,0.0,0.0,0.0,0.0,0.0,0.0,0.0,0.0,0.0,0.0,0.0,0.0,0.0,0.0,0.0,0.0,0.0,0.0,0.0,0.0,0.0,0.0,0.0,0.0,0.0,0.0,0.0,-0.1603,-0.1358,-0.0875,-0.0,-0.0,-0.0056,-0.0224,-0.0681,-0.1231,0.0,0.0,0.0,0.0,0.0,0.0,0.0,0.0,0.0,0.0,0.0,0.0,0.0,0.0,0.0,0.0,0.0,0.0,0.0,0.0,0.0,0.0,0.0,0.0,0.0,0.0,0.0,0.0,0.0,0.0,0.0,0.0,0.0,0.0,0.0,0.0,0.0,0.0,0.0,0.0,0.2492,0.2685,0.2689,0.0,0.0,0.0,0.0,0.0,0.0,0.2923,0.2991,0.0,0.0,0.0,0.0,0.0,0.0,0.0,0.0,0.0,0.0,0.0,0.0,0.0,0.0,0.0,0.0,0.0,0.0,0.0,0.0,0.0,0.0,0.0,0.0,0.0,0.0,0.0,0.0,0.0,0.0,0.0,0.0,0.0,0.0,0.0,0.0,0.0,0.0,0.0,0.0,0.0,0.0,0.0,0.0,0.0,0.0,0.0,0.0,0.0,0.0,0.0,0.0,0.0,0.0,0.0,-0.1684,-0.1537,-0.0973,-0.0229,-0.0057,-0.0,-0.0,-0.0477,-0.0934,0.0,0.0,0.0,0.0,0.0,0.0,0.0,0.0,0.0,0.0,0.0,0.0,0.0,0.0,0.0,0.0,0.0,0.0,0.0,0.0,0.0,0.0,0.0,0.0,0.0,0.0,0.0,0.0,0.0,0.0,0.0,0.0,0.0,0.0,0.0,0.0,0.0,0.0,0.0,0.0,0.0,0.2756,0.2636,0.2752,0.0,0.0,0.0,0.0,0.2966,0.2994,0.0,0.0,0.0,0.0,0.0,0.0,0.0,0.0,0.0,0.0,0.0,0.0,0.0,0.0,0.0,0.0,0.0,0.0,0.0,0.0,0.0,0.0,0.0,0.0,0.0,0.0,0.0,0.0,0.0,0.0,0.0,0.0,0.0,0.0,0.0,0.0,0.0,0.0,0.0,0.0,0.0,0.0,0.0,0.0,0.0,0.0,0.0,0.0,0.0,0.0,0.0,0.0,0.0,0.0,0.0,0.0,-0.1463,-0.1665,-0.1468,-0.0793,-0.0297,-0.0,-0.0,-0.0549,-0.0969,0.0,0.0,0.0,0.0,0.0,0.0,0.0,0.0,0.0,0.0,0.0,0.0,0.0,0.0,0.0,0.0,0.0,0.0,0.0,0.0,0.0,0.0,0.0,0.0,0.0,0.0,0.0,0.0,0.0,0.0,0.0,0.0,0.0,0.0,0.0,0.0,0.0,0.0,0.0,0.0,0.0,0.3151,0.3114,0.3224,0.3326,0.0,0.0,0.0,0.3658,0.3898,0.0,0.0,0.0,0.0,0.0,0.0,0.0,0.0,0.0,0.0,0.0,0.0,0.0,0.0,0.0,0.0,0.0,0.0,0.0,0.0,0.0,0.0,0.0,0.0,0.0,0.0,0.0,0.0,0.0,0.0,0.0,0.0,0.0,0.0,0.0,0.0,0.0,0.0,0.0,0.0,0.0,0.0,0.0,0.0,0.0,0.0,0.0,0.0,0.0,0.0,0.0,0.0,0.0,0.0,0.0,-0.1417,-0.1155,-0.1268,-0.0988,-0.0432,-0.0479,-0.0354,-0.0,-0.0552,-0.0975,0.0,0.0,0.0,0.0,0.0,0.0,0.0,0.0,0.0,0.0,0.0,0.0,0.0,0.0,0.0,0.0,0.0,0.0,0.0,0.0,0.0,0.0,0.0,0.0,0.0,0.0,0.0,0.0,0.0,0.0,0.0,0.0,0.0,0.0,0.0,0.0,0.0,0.0,0.0,0.0,0.0,0.0,0.3363,0.3382,0.0,0.0,0.0,0.3607,0.3766,0.0,0.0,0.0,0.0,0.0,0.0,0.0,0.0,0.0,0.0,0.0,0.0,0.0,0.0,0.0,0.0,0.0,0.0,0.0,0.0,0.0,0.0,0.0,0.0,0.0,0.0,0.0,0.0,0.0,0.0,0.0,0.0,0.0,0.0,0.0,0.0,0.0,0.0,0.0,0.0,0.0,0.0,0.0,0.0,0.0,0.0,0.0,0.0,0.0,0.0,0.0,0.0,0.0,0.0,0.0,0.0,0.0,-0.0825,-0.0741,-0.0442,-0.0063,-0.0429,-0.0541,-0.0238,-0.0621,0.0,0.0,0.0,0.0,0.0,0.0,0.0,0.0,0.0,0.0,0.0,0.0,0.0,0.0,0.0,0.0,0.0,0.0,0.0,0.0,0.0,0.0,0.0,0.0,0.0,0.0,0.0,0.1045,0.0,0.0,0.0,0.0,0.0,0.0,0.0,0.0,0.0,0.0,0.0,0.0,0.0,0.0,0.3277,0.3445,0.3477,0.3585,0.0,0.0,0.3687,0.3859,0.3961,0.3928,0.0,0.0,0.0,0.0,0.0,0.0,0.0,0.0,0.0,0.0,0.0,0.0,0.0,0.0,0.0,0.0,0.0,0.0,0.0,0.0,0.0,0.0,0.0,0.0,0.0,0.0,0.0,0.0,0.0,0.0,0.0,0.0,0.0,0.0,0.0,0.0,0.0,0.0,0.0,0.0,0.0,0.0,0.0,0.0,0.0,0.0,0.0,0.0,0.0,0.0,0.0,0.0,0.0,0.0,0.0,-0.0709,-0.0257,-0.0,-0.0,-0.0065,-0.0317,-0.0801,-0.0894,-0.0937,0.0,0.0,0.0,0.0,0.0,0.0,0.0,0.0,0.0,0.0,0.0,0.0,0.0,0.0,0.0,0.0,0.0,0.0,0.0,0.0,0.0,0.0,0.0,0.0,0.0,0.0,0.0,0.0,0.0,0.0,0.0,0.0,0.0,0.0,0.0,0.0,0.0,0.0,0.0,0.0,0.0,0.3275,0.329,0.3605,0.3853,0.0,0.0,0.3986,0.4169,0.4151,0.4026,0.3971,0.0,0.0,0.0,0.0,0.0,0.0,0.0,0.0,0.0,0.0,0.0,0.0,0.0,0.0,0.0,0.0,0.0,0.0,0.0,0.0,0.0,0.0,0.0,0.0,0.0,0.0,0.0,0.0,0.0,0.0,0.0,0.0,0.0,0.0,0.0,0.0,0.0,0.0,0.0,0.0,0.0,0.0,0.0,0.0,0.0,0.0,0.0,0.0,0.0,0.0,0.0,0.0,0.0,-0.1374,-0.0874,-0.0263,-0.0,-0.0,-0.0,-0.0318,-0.0865,-0.0733,-0.0721,0.0,0.0,0.0,0.0,0.0,0.0,0.0,0.0,0.0,0.0,0.0,0.0,0.0,0.0,0.0,0.0,0.0,0.0,0.0,0.0,0.0,0.0,0.0,0.0,0.0,0.0,0.0,0.0,0.1923,0.2008,0.2001,0.0,0.0,0.0,0.0,0.0,0.0,0.0,0.0,0.0,0.0,0.3411,0.3658,0.3704,0.0,0.0,0.3919,0.3919,0.411,0.4215,0.4172,0.4069,0.4145,0.0,0.0,0.0,0.0,0.0,0.0,0.0,0.0,0.0,0.0,0.0,0.0,0.0,0.0,0.0,0.0,0.0,0.0,0.0,0.0,0.0,0.0,0.0,0.0,0.0,0.0,0.0,0.0,0.0,0.0,0.0,0.0,0.0,0.0,0.0,0.0,0.0,0.0,0.0,0.0,0.0,0.0,0.0,0.0,0.0,0.0,0.0,0.0,0.0,0.0,0.0,0.0,-0.1357,-0.1099,-0.0602,-0.0273,-0.0205,-0.0134,-0.0392,-0.089,-0.0692,-0.0682,0.0,0.0,0.0,0.0,0.0,0.0,0.0,0.0,0.0,0.0,0.0,0.0,0.0,0.0,0.0,0.0,0.0,0.0,0.0,0.0,0.0,0.0,0.0,0.0,0.0,0.0,0.0,0.0,0.2027,0.2143,0.2182,0.0,0.0,0.0,0.0,0.0,0.0,0.0,0.0,0.0,0.0,0.3583,0.3783,0.3819,0.3945,0.403,0.404,0.404,0.4108,0.4243,0.4257,0.4137,0.0,0.0,0.0,0.0,0.0,0.0,0.0,0.0,0.0,0.0,0.0,0.0,0.0,0.0,0.0,0.0,0.0,0.0,0.0,0.0,0.0,0.0,0.0,0.0,0.0,0.0,0.0,0.0,0.0,0.0,0.0,0.0,0.0,0.0,0.0,0.0,0.0,0.0,0.0,0.0,0.0,0.0,0.0,0.0,0.0,0.0,0.0,0.0,0.0,0.0,0.0,0.0,0.0,-0.1294,-0.1295,-0.1159,-0.0979,-0.063,-0.0559,-0.062,-0.0873,-0.0852,-0.0968,-0.1096,0.0,0.0,0.0,0.0,0.0,0.0,0.0,0.0,0.0,0.0,0.0,0.0,0.0,0.0,0.0,0.0,0.0,0.0,0.0,0.0,0.0,0.0,0.0,0.0,0.0,0.0,0.1634,0.183,0.2067,0.0,0.0,0.0,0.0,0.0,0.0,0.0,0.0,0.0,0.0,0.366,0.3793,0.3677,0.4022,0.4217,0.402,0.4159,0.4295,0.4298,0.43,0.4259,0.0,0.0,0.0,0.0,0.0,0.0,0.0,0.0,0.0,0.0,0.0,0.0,0.0,0.0,0.0,0.0,0.0,0.0,0.0,0.0,0.0,0.0,0.0,0.0,0.0,0.0,0.0,0.0,0.0071,0.0,0.0,0.0,0.0,0.0,0.0,0.0,0.0,0.0,0.0,0.0,-0.1207,-0.1901,0.0,0.0,0.0,0.0,0.0,0.0,0.0,0.0,0.0,0.0,0.0,0.0,-0.117,-0.1191,-0.1121,-0.1051,-0.0911,-0.1034,-0.1012,-0.0985,-0.0728,-0.0532,-0.0399,0.0,0.0,0.0,0.0,0.0,0.0,0.0,0.0,0.0,0.0,0.0,0.0,0.0,0.0,0.0,0.0,0.0,0.0,0.0,0.0,0.0,0.0,0.0,0.0,0.0,0.2052,0.0,0.0,0.0,0.0,0.0,0.0,0.0,0.0,0.0,0.0,0.0,0.3172,0.3364,0.3515,0.3643,0.3708,0.3939,0.4097,0.0,0.0,0.0,0.0,0.0,0.0,0.0,0.0,0.0,0.0,0.0,0.0,0.0,0.0,0.4473,0.4099,0.406,0.4048,0.4178,0.0,0.0,0.0,0.0,0.0,0.0,0.0,0.0,0.0,0.0,0.0,0.0,0.0,0.0,0.0,0.0,0.0148,0.0,0.0,0.0,0.0,0.0,0.0,0.0,0.0,-0.1355,-0.1214,-0.1137,-0.133,-0.1474,0.0,-0.1301,-0.1339,0.0,0.0,0.0,0.0,0.0,0.0,0.0,0.0,-0.1075,-0.1092,-0.094,-0.086,-0.0923,-0.1119,-0.1163,-0.1065,-0.0805,-0.0472,-0.0,-0.0472,-0.0674,0.0,0.0,0.0,0.0,0.0,0.0,0.0,0.0,0.0,0.0,0.0,0.0,0.0,0.0,0.0,0.0,0.0,0.0,0.0,0.0,0.0,0.0,0.0,0.2274,0.0,0.0,0.0,0.0,0.0,0.0,0.0,0.0,0.0,0.296,0.3195,0.3364,0.3431,0.3623,0.3804,0.3799,0.0,0.0,0.0,0.0,0.0,0.0,0.0,0.4561,0.4712,0.4729,0.4801,0.4801,0.4948,0.5017,0.5093,0.0,0.0,0.4549,0.4507,0.4563,0.456,0.4423,0.4309,0.431,0.4184,0.4063,0.0,0.0,0.0,0.0,0.0,0.0,0.0,0.0,0.1141,0.1294,0.0,0.0381,0.0,0.0,0.0,0.0,0.0,0.0,0.0,0.0,-0.0478,-0.0407,-0.0975,-0.0318,-0.0551,-0.1492,-0.1275,-0.1099,-0.1098,-0.139,0.0,0.0,0.0,0.0,0.0,0.0,-0.1095,-0.1098,-0.0673,-0.0523,-0.0584,-0.0947,-0.1152,-0.1263,-0.1096,-0.0745,-0.0135,-0.0677,-0.0743,-0.0068,-0.0691,0.0,0.0,0.0,0.0,0.0,0.0,0.0,0.0,0.0,0.0,0.0,0.0,0.0,0.0,0.0,0.0,0.0,0.0,0.0,0.0,0.2227,0.0,0.0,0.0,0.0,0.0,0.0,0.0,0.0,0.0,0.0,0.3214,0.3566,0.3711,0.3564,0.0,0.0,0.0,0.0,0.4232,0.416,0.4232,0.4452,0.4673,0.4745,0.4748,0.4756,0.0,0.0,0.4963,0.5035,0.511,0.5246,0.5328,0.5312,0.5312,0.515,0.5006,0.5012,0.4931,0.487,0.4509,0.4439,0.437,0.1723,0.0,0.0,0.0,0.0,0.139,0.1309,0.1145,0.1309,0.1309,0.1309,0.0654,0.0,0.0,0.0,0.0,0.0,0.0,-0.0654,-0.1228,-0.0995,-0.0751,-0.0333,-0.0083,-0.0165,-0.0495,-0.0962,-0.1184,-0.1105,-0.1241,-0.136,-0.1314,0.0,0.0,0.0,0.0,-0.1058,-0.0768,-0.0381,-0.0453,-0.1049,-0.1177,-0.0944,-0.036,-0.0358,-0.0428,-0.0784,-0.0491,-0.0208,-0.0,-0.0206,0.0,0.0,0.0,0.0,0.0,0.0,0.0,0.0,0.0,0.0,0.0,0.0,0.0,0.0,0.0,0.0,0.0,0.0,0.0,0.2436,0.2594,0.2622,0.0,0.0,0.0,0.0,0.0,0.0,0.0,0.0,0.0,0.3614,0.3616,0.3668,0.0,0.0,0.3761,0.3829,0.4144,0.4373,0.4294,0.0,0.0,0.0,0.5034,0.5064,0.5151,0.5091,0.501,0.5005,0.5138,0.5214,0.5287,0.5287,0.5366,0.5654,0.543,0.5174,0.502,0.5023,0.4904,0.4762,0.4707,0.4657,0.1558,0.1591,0.1391,0.1374,0.1365,0.1365,0.1365,0.1365,0.1366,0.1366,0.1366,0.1024,0.0594,-0.0,-0.0505,0.0,0.0,0.0,-0.0256,-0.0768,-0.0775,-0.0519,-0.0,-0.0,-0.0171,-0.0597,-0.1084,-0.132,-0.1155,-0.1302,-0.1275,-0.1317,0.0,0.0,-0.1248,-0.126,-0.1115,-0.0888,-0.0319,-0.0236,-0.0779,-0.1131,-0.1031,-0.0437,-0.0146,-0.0218,-0.0656,-0.0503,-0.0285,-0.0,-0.0,-0.0285,0.0,0.0,0.0,0.0,0.0,0.0,0.0,0.0,0.0,0.0,0.0,0.1467,0.0,0.0,0.0,0.0,0.2239,0.2405,0.2693,0.2793,0.0,0.0,0.0,0.0,0.0,0.0,0.0,0.2601,0.3195,0.3647,0.3942,0.3814,0.3812,0.3942,0.4025,0.4045,0.4021,0.0,0.4668,0.4668,0.4911,0.5098,0.5249,0.5257,0.5284,0.5358,0.5311,0.5322,0.5414,0.5474,0.563,0.579,0.587,0.5949,0.6192,0.6045,0.5736,0.5343,0.5247,0.5202,0.4896,0.4906,0.4931,0.1534,0.1528,0.1473,0.1431,0.1401,0.1401,0.1399,0.1397,0.1402,0.1403,0.1313,0.1403,0.0867,-0.0,-0.0,0.0,0.0,-0.0347,-0.0,-0.0,-0.0,-0.0,-0.0,-0.0,-0.0524,-0.1308,-0.1366,-0.1352,-0.1352,-0.1348,-0.1348,-0.1348,-0.124,-0.1309,-0.1307,-0.1334,-0.1264,-0.1179,-0.0421,-0.0,-0.0,-0.0782,-0.1209,-0.1109,-0.0369,-0.0,-0.0,-0.0661,-0.0733,-0.0,-0.0,-0.0,-0.0,0.0,0.0,0.0,0.0,0.0,0.0,0.0,0.0,0.0,0.0,0.0,0.0,0.0,0.0,0.0,0.2564,0.0,0.294,0.2858,0.0,0.0,0.0,0.3097,0.3256,0.34,0.3359,0.3106,0.0,0.0,0.0,0.0,0.4057,0.4057,0.4384,0.4631,0.4471,0.4806,0.5142,0.5142,0.5139,0.5228,0.5409,0.5407,0.5404,0.5396,0.5468,0.5544,0.5856,0.5936,0.6197,0.6516,0.6612,0.6609,0.6612,0.6582,0.6453,0.571,0.559,0.5511,0.519,0.5045,0.5053,0.1595,0.1594,0.1579,0.1543,0.1494,0.1493,0.148,0.1462,0.1485,0.1296,0.0913,0.1298,0.0831,-0.0,-0.0,-0.0089,-0.0272,-0.0091,-0.0,-0.0,-0.0,-0.0365,-0.1077,-0.1072,-0.098,-0.089,-0.1134,-0.1382,-0.1381,-0.1359,-0.1348,-0.1349,-0.1023,-0.102,-0.1338,-0.1344,-0.1095,-0.0758,-0.0253,-0.0,-0.0,-0.0165,-0.0656,-0.1223,-0.0408,-0.0,-0.0,-0.0157,-0.0154,-0.0,-0.0,-0.0,-0.0,-0.0379,0.0,0.0,0.0,0.0,0.0,0.0,0.0,0.0,0.0,0.1458,0.1385,0.0,0.1726,0.0,0.2944,0.3405,0.3407,0.3478,0.0,0.0,0.3313,0.3335,0.3418,0.3517,0.3528,0.3353,0.417,0.473,0.4383,0.4713,0.4851,0.4322,0.4437,0.4588,0.4835,0.5114,0.529,0.5375,0.5457,0.5558,0.5638,0.5646,0.561,0.5523,0.5675,0.5814,0.5808,0.5951,0.6117,0.6201,0.6287,0.6204,0.621,0.6201,0.6105,0.5794,0.5779,0.5828,0.5497,0.5381,0.5257,0.1617,0.1617,0.1617,0.1598,0.1565,0.1552,0.1521,0.1484,0.1513,0.1226,0.0741,0.0756,0.0474,-0.0,-0.0,-0.0,-0.0,-0.0,-0.0,-0.0,-0.0,-0.0277,-0.083,-0.1199,-0.1291,-0.1014,-0.1277,-0.1361,-0.136,-0.1333,-0.1407,-0.1407,-0.1146,-0.114,-0.1388,-0.1386,-0.1214,-0.0953,-0.0347,-0.0,-0.0,-0.0,-0.0255,-0.0674,-0.0674,-0.059,-0.0589,-0.0411,-0.0324,-0.0324,-0.0316,-0.0313,-0.0318,-0.0477,-0.0317,0.0,0.0,0.0,0.0,0.0,0.0,0.0,0.0,0.0,0.0,0.0,0.1932,0.0,0.315,0.0,0.3546,0.3503,0.3528,0.3528,0.3813,0.4018,0.4312,0.4617,0.457,0.3988,0.4842,0.57,0.6079,0.558,0.4972,0.4787,0.4833,0.4871,0.5015,0.5282,0.5552,0.5552,0.5644,0.5733,0.5733,0.5733,0.5711,0.5651,0.5717,0.5782,0.5886,0.604,0.6212,0.6212,0.6383,0.6468,0.6208,0.63,0.63,0.6129,0.6043,0.5887,0.5556,0.5405,0.5344,0.1628,0.1628,0.1624,0.1623,0.162,0.159,0.1545,0.1495,0.1525,0.1142,0.0562,0.019,-0.0,-0.0,-0.0,-0.0,-0.0,-0.0,-0.0,-0.0,-0.0,-0.0,-0.0,-0.0954,-0.1335,-0.1335,-0.1335,-0.1335,-0.143,-0.1312,-0.1298,-0.1387,-0.1363,-0.144,-0.1436,-0.1439,-0.1439,-0.1436,-0.0628,-0.0178,-0.0175,-0.0087,-0.0087,-0.017,-0.0935,-0.1444,-0.1359,-0.1016,-0.0761,-0.0761,-0.0759,-0.0758,-0.0758,-0.0674,-0.0501,0.0,0.0327,0.0,0.0,0.0,0.0,0.0,0.0,0.0,0.0,0.2212,0.2395,0.2608,0.3248,0.3628,0.3544,0.3477,0.3574,0.3748,0.4249,0.4777,0.5305,0.5855,0.5863,0.483,0.5412,0.657,0.7641,0.6111,0.4948,0.5317,0.54,0.5241,0.5189,0.5517,0.5705,0.5776,0.5763,0.5768,0.5763,0.5746,0.573,0.5733,0.5811,0.5908,0.6068,0.6331,0.6511,0.6511,0.6763,0.6949,0.652,0.6602,0.6602,0.6325,0.6148,0.59,0.5622,0.5504,0.5412,0.1582,0.158,0.1559,0.155,0.1548,0.1621,0.1588,0.1556,0.1587,0.0997,0.0099,-0.0,-0.0,-0.0,-0.0,-0.0,-0.0,-0.0,-0.0,-0.0,-0.0,-0.0,-0.0,-0.0572,-0.0858,-0.0858,-0.0954,-0.124,-0.1431,-0.0665,-0.0658,-0.148,-0.1474,-0.1369,0.0,0.0,0.0,0.0,-0.1256,-0.1164,-0.1071,-0.0357,-0.0356,-0.1064,-0.133,0.0,-0.1418,-0.1309,-0.1299,-0.1297,-0.1276,0.0,0.0,0.0,0.0,0.0,0.0,0.0,0.0,0.0,0.0,0.0,0.2075,0.2058,0.2023,0.2217,0.2495,0.292,0.3321,0.3712,0.4062,0.4186,0.4268,0.4272,0.444,0.4688,0.4801,0.5472,0.5868,0.5986,0.6364,0.6267,0.5711,0.5608,0.5711,0.5628,0.5613,0.5591,0.5553,0.5821,0.6015,0.6013,0.5928,0.5874,0.5871,0.5801,0.5757,0.5733,0.608,0.6257,0.6352,0.6697,0.6959,0.6962,0.7051,0.7054,0.6792,0.6609,0.6435,0.6171,0.5905,0.5775,0.5803,0.5678,0.5638,0.1704,0.0,0.1689,0.1675,0.0,0.1645,0.1622,0.1595,0.161,0.1313,0.0707,0.02,-0.0,-0.0,-0.0,-0.0,-0.0,-0.0,-0.0,-0.0,-0.0589,-0.0786,-0.0785,-0.0785,-0.0981,-0.1178,-0.0982,-0.108,-0.1472,-0.0972,-0.0962,-0.1525,-0.151,-0.1495,-0.1481,-0.1495,-0.1495,-0.148,-0.1295,-0.1295,-0.1387,-0.0925,-0.0925,-0.1387,0.0,0.0,0.0,0.0,0.0,0.0,0.0,0.0,0.0,0.0,0.0,-0.0428,0.0691,0.1556,0.2055,0.2246,0.2346,0.252,0.2544,0.2425,0.224,0.2531,0.2818,0.3076,0.3515,0.3853,0.4125,0.4332,0.4504,0.4506,0.5016,0.5441,0.5681,0.646,0.7062,0.703,0.6934,0.6343,0.4981,0.5083,0.5579,0.5876,0.5774,0.5766,0.595,0.6059,0.6086,0.6086,0.604,0.5994,0.5988,0.5953,0.5996,0.6084,0.6218,0.6361,0.6532,0.6748,0.6877,0.6786,0.6962,0.6962,0.6523,0.6435,0.6343,0.5997,0.5822,0.5719,0.5827,0.5778,0.5719,0.172,0.172,0.1822,0.1696,0.1669,0.1664,0.1645,0.1617,0.0,0.0,0.0,0.0606,0.0202,-0.0,-0.0,-0.0,-0.0,-0.0,-0.0,-0.0,-0.1086,-0.1593,-0.1616,-0.1111,-0.1212,-0.1617,-0.1111,-0.1111,-0.1615,-0.1492,-0.1478,-0.1472,-0.1546,-0.1534,-0.1534,-0.1534,-0.1536,-0.1541,-0.1244,-0.124,-0.1526,-0.1431,-0.1431,-0.1431,-0.1526,-0.1526,-0.1526,-0.1526,-0.1526,-0.1525,-0.1502,-0.1396,-0.1301,-0.0915,-0.018,0.0881,0.1519,0.2056,0.2541,0.2667,0.2698,0.2888,0.2941,0.2913,0.2504,0.2886,0.309,0.3178,0.3735,0.4085,0.4087,0.4446,0.4596,0.4596,0.5372,0.5997,0.6377,0.7174,0.7609,0.7415,0.6921,0.6226,0.5018,0.4822,0.5138,0.5842,0.5722,0.5737,0.6116,0.6179,0.617,0.6168,0.6146,0.6116,0.6113,0.6086,0.6183,0.6341,0.6366,0.6498,0.6661,0.6856,0.6786,0.6706,0.6952,0.6863,0.6394,0.6388,0.6281,0.5822,0.5735,0.5733,0.5735,0.5749,0.5757,0.1781,0.178,0.1755,0.1726,0.1697,0.1673,0.1645,0.1617,0.1617,0.1313,0.0909,0.1212,0.0909,-0.0,-0.0,-0.0,-0.0,-0.0,-0.0,0.0,-0.1107,-0.1613,-0.1617,-0.1516,-0.1516,-0.1617,-0.1516,-0.1516,-0.1616,-0.1309,-0.1298,-0.1575,-0.1567,-0.1565,-0.1565,-0.1565,-0.1578,-0.1603,-0.1553,-0.1526,-0.1622,-0.1526,-0.1526,-0.1526,-0.1527,-0.1622,-0.1622,-0.1527,-0.1526,-0.1526,-0.1521,-0.1329,-0.0854,-0.0757,0.0281,0.23,0.2671,0.2741,0.2867,0.2869,0.2895,0.2944,0.3003,0.3025,0.3003,0.3099,0.3199,0.3388,0.3688,0.3891,0.4176,0.4442,0.4689,0.4694,0.4851,0.5001,0.5209,0.5912,0.6213,0.5732,0.5839,0.5839,0.5133,0.5035,0.5138,0.5135,0.5436,0.5634,0.5829,0.6111,0.6289,0.6372,0.6304,0.6249,0.6233,0.6151,0.6116,0.6181,0.6458,0.672,0.681,0.7153,0.7217,0.714,0.7217,0.7184,0.6633,0.6609,0.6482,0.614,0.5849,0.5757,0.5763,0.5822,0.5852,0.1795,0.1793,0.178,0.1757,0.1725,0.1682,0.1663,0.1662,0.1647,0.1325,0.0808,0.0707,0.0505,-0.0,-0.0,-0.0,-0.0,-0.0,-0.0,-0.0,-0.0505,-0.101,-0.1516,-0.1617,-0.1617,-0.1617,-0.1617,-0.1617,-0.1617,-0.1415,-0.1408,-0.1596,-0.1596,-0.1596,-0.1596,-0.1596,-0.1603,-0.1615,-0.159,-0.1575,-0.1575,-0.1575,-0.1575,-0.1575,-0.1575,-0.1575,-0.1575,-0.1575,-0.1575,-0.1575,-0.1559,-0.1453,-0.1163,-0.0671,0.0378,0.1948,0.2621,0.2906,0.2971,0.303,0.3078,0.3105,0.3131,0.3149,0.3147,0.3086,0.3146,0.3242,0.3463,0.3681,0.3874,0.4235,0.4583,0.4482,0.4914,0.5334,0.5634,0.6239,0.6637,0.6734,0.6637,0.6537,0.6129,0.5734,0.5236,0.4931,0.5233,0.5534,0.5634,0.5937,0.6139,0.6137,0.6294,0.6366,0.6355,0.6317,0.6279,0.6474,0.6608,0.6765,0.6846,0.7095,0.7133,0.7026,0.7221,0.7098,0.6653,0.6653,0.6531,0.6227,0.6015,0.5923,0.5934,0.5969,0.5977,0.1907,0.1795,0.1795,0.1778,0.1745,0.1694,0.1684,0.1701,0.1674,0.134,0.0814,0.0203,-0.0,-0.0,-0.0,-0.0,-0.0,-0.0,-0.0,-0.0,-0.0101,-0.0606,-0.1414,-0.1415,-0.1516,-0.1617,-0.1617,-0.1617,-0.1617,-0.1617,-0.1617,-0.1617,-0.1617,-0.1617,-0.1617,-0.1617,-0.1617,-0.1617,-0.1617,-0.1617,-0.1617,-0.1617,-0.1617,-0.1617,-0.1616,-0.1617,-0.1617,-0.1617,-0.1617,-0.1615,-0.1594,-0.1581,-0.1581,-0.0877,0.0191,0.1319,0.219,0.278,0.3056,0.3149,0.3211,0.321,0.3224,0.323,0.3222,0.3146,0.309,0.3192,0.3331,0.3557,0.366,0.3999,0.4338,0.4336,0.4836,0.5336,0.5937,0.6642,0.7238,0.7637,0.7335,0.6933,0.683,0.6232,0.5432,0.4929,0.5131,0.5434,0.5434,0.5639,0.5847,0.5969,0.6158,0.6334,0.6437,0.6431,0.6426,0.6739,0.6662,0.6706,0.6878,0.69,0.6849,0.6855,0.7136,0.7025,0.6611,0.6691,0.6582,0.6264,0.6056,0.6081,0.6111,0.6121,0.6127,0.2244,0.1795,0.1795,0.1778,0.1748,0.1714,0.1701,0.1702,0.1675,0.135,0.0828,0.0207,-0.0,-0.0,-0.0,-0.0,-0.0,-0.0,-0.0,-0.0,-0.0505,-0.0808,-0.0909,-0.1111,-0.1313,-0.1516,-0.1617,-0.1617,-0.1617,-0.1617,-0.1617,-0.1617,-0.1617,-0.1617,-0.1617,-0.1617,-0.1617,-0.1617,-0.1617,-0.1617,-0.1617,-0.1617,-0.1617,-0.1617,-0.1617,-0.1617,-0.1617,-0.1617,-0.1617,-0.1617,-0.1614,-0.1612,-0.1611,-0.1508,-0.0598,0.1271,0.1564,0.204,0.2966,0.311,0.3153,0.3151,0.3202,0.323,0.323,0.3219,0.3213,0.321,0.3416,0.3521,0.3627,0.3831,0.4034,0.4034,0.4342,0.4437,0.4847,0.605,0.6756,0.5937,0.6364,0.6537,0.6464,0.5962,0.5349,0.4861,0.4968,0.4968,0.5067,0.5271,0.5399,0.5544,0.6014,0.6356,0.635,0.6437,0.6445,0.6442,0.6634,0.6711,0.6697,0.6895,0.7093,0.6634,0.7075,0.7033,0.6672,0.6631,0.6783,0.6351,0.6138,0.6132,0.6219,0.6252,0.6249,0.2356,0.1795,0.1795,0.1788,0.1771,0.1725,0.1714,0.1727,0.1701,0.1575,0.1247,0.0416,-0.0,-0.0,-0.0,-0.0,-0.0,-0.0,-0.0,-0.0,-0.0909,-0.1313,-0.1313,-0.1313,-0.1516,-0.1617,-0.1617,-0.1617,-0.1617,-0.1617,-0.1617,-0.1617,-0.1617,-0.1617,-0.1617,-0.1617,-0.1617,-0.1617,-0.1617,-0.1617,-0.1617,-0.1617,-0.1617,-0.1617,-0.1617,-0.1617,-0.1617,-0.1617,-0.1617,-0.1617,-0.1617,-0.1617,-0.1617,-0.1617,-0.0801,0.0885,0.1962,0.2641,0.3105,0.3159,0.3194,0.3192,0.3215,0.323,0.323,0.323,0.323,0.323,0.3332,0.3332,0.3435,0.3635,0.3736,0.3841,0.4075,0.451,0.5018,0.5478,0.5824,0.6132,0.6442,0.6651,0.6654,0.6029,0.5302,0.4996,0.4994,0.4986,0.4992,0.5205,0.5432,0.5461,0.5851,0.611,0.6261,0.6243,0.6215,0.6163,0.6242,0.6345,0.6139,0.6137,0.6234,0.6137,0.6439,0.6631,0.6187,0.6369,0.6538,0.6285,0.629,0.6312,0.6361,0.6366,0.627,0.2468,0.1907,0.1795,0.1795,0.179,0.1739,0.1734,0.1755,0.1616,0.1589,0.1675,0.052,-0.0,-0.0,-0.0,-0.0,-0.0,-0.0,-0.0,-0.0,-0.101,-0.1415,-0.1617,-0.1617,-0.1617,-0.1617,-0.1617,-0.1622,-0.1627,-0.1619,-0.1621,-0.1627,-0.1621,-0.1617,-0.1617,-0.1617,-0.1617,-0.1617,-0.1617,-0.1617,-0.1617,-0.1617,-0.1617,-0.1617,-0.1617,-0.1617,-0.1617,-0.1617,-0.1617,-0.1617,-0.1617,-0.1617,-0.1617,-0.1414,-0.0602,0.099,0.2372,0.3164,0.3165,0.3206,0.323,0.323,0.323,0.323,0.323,0.323,0.323,0.3232,0.3247,0.3258,0.3256,0.3373,0.3487,0.3592,0.384,0.4278,0.4906,0.5067,0.5516,0.627,0.6566,0.6695,0.6698,0.5941,0.5193,0.5094,0.51,0.5106,0.5106,0.521,0.5324,0.5463,0.5572,0.5847,0.6076,0.6155,0.6102,0.6027,0.5992,0.5884,0.5648,0.5636,0.5737,0.6039,0.5942,0.6037,0.6221,0.6326,0.6431,0.6437,0.6431,0.6423,0.642,0.6434,0.6334,0.2918,0.1907,0.1795,0.1793,0.1792,0.176,0.1763,0.1783,0.119,0.1279,0.1485,0.0522,-0.0,-0.0,-0.0,-0.0,-0.0,-0.0,-0.0,-0.0101,-0.0608,-0.1112,-0.1617,-0.1617,-0.1618,-0.162,-0.1618,-0.163,-0.1653,-0.1632,-0.1632,-0.1656,-0.1633,-0.1618,-0.1619,-0.1618,-0.1617,-0.1617,-0.1617,-0.1617,-0.1617,-0.1617,-0.1617,-0.1617,-0.1617,-0.1617,-0.1617,-0.1617,-0.1617,-0.1617,-0.1617,-0.1617,-0.1516,-0.0909,0.0303,0.1811,0.2719,0.3225,0.3222,0.3228,0.323,0.323,0.323,0.323,0.323,0.323,0.323,0.3232,0.3279,0.3309,0.3323,0.3356,0.3387,0.3391,0.3292,0.3614,0.4256,0.5012,0.5527,0.5967,0.6303,0.6419,0.6078,0.5525,0.5229,0.5128,0.5118,0.5124,0.5137,0.5124,0.5159,0.5216,0.5341,0.5422,0.5764,0.5948,0.5901,0.5805,0.5748,0.5746,0.5684,0.5636,0.5739,0.5839,0.5842,0.5942,0.6239,0.6437,0.6437,0.6437,0.6437,0.6437,0.6437,0.6437,0.6337,0.2244,0.1793,0.1774,0.1777,0.1791,0.1762,0.1757,0.1651,0.1078,0.0848,0.0628,-0.0,-0.0,-0.0,-0.0,-0.0,-0.0,-0.0733,-0.0732,-0.0209,-0.0941,-0.1464,-0.1673,-0.1656,-0.1646,-0.1643,-0.1626,-0.1622,-0.1633,-0.1641,-0.1651,-0.1658,-0.1652,-0.1646,-0.1643,-0.1626,-0.1617,-0.1617,-0.1617,-0.1617,-0.1617,-0.1617,-0.1617,-0.1617,-0.1617,-0.1617,-0.1617,-0.1617,-0.1617,-0.1617,-0.1617,-0.1617,-0.1516,-0.0303,0.0807,0.1917,0.2725,0.323,0.323,0.323,0.323,0.323,0.323,0.3233,0.323,0.323,0.323,0.3243,0.3288,0.3332,0.3375,0.3401,0.3413,0.3416,0.3444,0.3681,0.4233,0.4805,0.5168,0.5501,0.5829,0.572,0.5599,0.5389,0.5282,0.5282,0.5284,0.5277,0.5282,0.5284,0.5288,0.5318,0.5333,0.5322,0.5513,0.5658,0.5687,0.5557,0.5476,0.5326,0.5273,0.5343,0.5438,0.5541,0.5641,0.5741,0.5939,0.6337,0.6339,0.6337,0.6337,0.6337,0.6437,0.6337,0.6237,0.1795,0.1791,0.1773,0.1776,0.179,0.1762,0.1755,0.165,0.1083,0.0534,-0.0,-0.0,-0.0,-0.0,-0.0,-0.0213,-0.0541,-0.1073,-0.096,-0.064,-0.1166,-0.1484,-0.1701,-0.1677,-0.1667,-0.1672,-0.1656,-0.165,-0.1659,-0.167,-0.168,-0.169,-0.1682,-0.1675,-0.1671,-0.1647,-0.1631,-0.163,-0.1622,-0.1617,-0.1617,-0.1617,-0.1617,-0.1618,-0.1626,-0.1626,-0.1618,-0.1626,-0.1631,-0.1632,-0.1632,-0.1525,-0.1112,-0.0202,0.0908,0.1917,0.2422,0.2826,0.313,0.323,0.3238,0.3157,0.326,0.3266,0.3285,0.3289,0.3289,0.3301,0.3342,0.3399,0.3432,0.3458,0.3469,0.3471,0.3503,0.3746,0.4409,0.4672,0.4921,0.5371,0.5481,0.5375,0.5382,0.538,0.5375,0.5382,0.5382,0.5382,0.5382,0.5382,0.5382,0.5382,0.5377,0.5373,0.5466,0.5526,0.5426,0.5411,0.5298,0.5139,0.5082,0.5056,0.5138,0.524,0.534,0.5441,0.5741,0.6139,0.6237,0.6337,0.6237,0.6139,0.6239,0.6237,0.6237,0.1795,0.1794,0.1794,0.1793,0.1791,0.1765,0.1767,0.1673,0.11,0.0545,-0.0,-0.0,-0.0,-0.0,-0.0,-0.0551,-0.122,-0.076,-0.0858,-0.15,-0.1161,-0.1268,-0.1821,-0.1792,-0.1681,-0.1699,-0.1701,-0.1716,-0.1731,-0.1715,-0.1718,-0.1736,-0.1716,-0.1705,-0.1704,-0.1677,-0.1662,-0.1657,-0.1638,-0.1624,-0.1618,-0.1622,-0.1621,-0.1622,-0.1643,-0.1643,-0.1618,-0.1646,-0.1662,-0.1662,-0.1662,-0.1339,-0.0611,-0.0304,0.0404,0.1718,0.1817,0.2219,0.3029,0.323,0.3255,0.3186,0.3209,0.3324,0.3365,0.3383,0.3386,0.3398,0.3439,0.3485,0.3493,0.3531,0.3563,0.3583,0.3575,0.3798,0.4362,0.4702,0.4931,0.527,0.5382,0.5382,0.5382,0.5382,0.5382,0.5382,0.5382,0.5382,0.5382,0.5382,0.5382,0.5382,0.5382,0.5382,0.5382,0.5365,0.5259,0.5151,0.5156,0.5074,0.5004,0.5063,0.5142,0.5238,0.5236,0.5336,0.5438,0.5837,0.6037,0.6037,0.6039,0.6039,0.6139,0.6139,0.6239,0.1795,0.1795,0.1795,0.1795,0.1794,0.1785,0.1787,0.1791,0.1544,0.0876,-0.0,-0.0,-0.0,-0.0,-0.0,-0.0,-0.056,-0.0998,-0.1436,-0.1764,-0.1536,-0.1535,-0.1759,-0.1736,-0.1716,-0.1706,-0.1704,-0.1709,-0.172,-0.173,-0.1742,-0.1746,-0.1741,-0.1735,-0.1734,-0.1707,-0.169,-0.169,-0.1682,-0.1677,-0.1675,-0.1658,-0.1648,-0.1647,-0.1638,-0.1626,-0.162,-0.1665,-0.169,-0.169,-0.1691,-0.137,-0.0523,0.0104,0.0926,0.1848,0.2437,0.2624,0.2826,0.303,0.3241,0.3157,0.3263,0.329,0.3445,0.3356,0.3375,0.3405,0.3431,0.345,0.3491,0.3511,0.3545,0.3583,0.3587,0.3699,0.4148,0.4596,0.5044,0.527,0.5382,0.5382,0.5382,0.5382,0.5382,0.5382,0.5382,0.5382,0.5382,0.5382,0.5382,0.5382,0.5382,0.5382,0.538,0.5361,0.5288,0.5204,0.5116,0.5135,0.5158,0.5107,0.5181,0.5247,0.5242,0.5334,0.5436,0.5536,0.5737,0.5837,0.5739,0.5839,0.5942,0.6042,0.6039,0.1795,0.1795,0.1795,0.1795,0.1795,0.1795,0.1683,0.1568,0.1665,0.1105,-0.0,-0.0,-0.0,-0.0,-0.0,-0.0,-0.0,-0.1234,-0.1795,-0.1792,-0.1782,-0.1784,-0.1791,-0.1776,-0.1758,-0.1742,-0.1738,-0.1737,-0.174,-0.1757,-0.1767,-0.1766,-0.1766,-0.1767,-0.1763,-0.1737,-0.1721,-0.172,-0.1709,-0.1704,-0.1701,-0.1687,-0.1678,-0.1677,-0.167,-0.1667,-0.1669,-0.1498,-0.1511,-0.1602,-0.1491,-0.1168,-0.0633,0.0104,0.0924,0.1741,0.2238,0.263,0.2748,0.3063,0.3186,0.3213,0.3207,0.3326,0.3373,0.3387,0.3407,0.3435,0.347,0.3491,0.3523,0.3531,0.3549,0.3582,0.3587,0.3811,0.4148,0.4596,0.5043,0.527,0.5382,0.5382,0.5382,0.5382,0.5382,0.5382,0.5382,0.5382,0.5382,0.5382,0.5382,0.5382,0.5382,0.5382,0.5377,0.5349,0.531,0.5249,0.5184,0.5212,0.5239,0.5106,0.518,0.5209,0.5183,0.5244,0.5338,0.5536,0.5636,0.5536,0.5448,0.5539,0.5741,0.5839,0.5837,0.1795,0.1795,0.1795,0.1795,0.1795,0.1795,0.1458,0.1009,0.1345,0.1008,-0.0,-0.0,-0.0,-0.0,-0.0,-0.0,-0.0224,-0.1234,-0.1795,-0.1789,-0.1777,-0.1778,-0.1791,-0.1791,-0.1787,-0.1787,-0.1788,-0.1789,-0.1785,-0.1788,-0.1795,-0.1791,-0.179,-0.1793,-0.1786,-0.1765,-0.1862,-0.1858,-0.1835,-0.1716,-0.1715,-0.1709,-0.1707,-0.1707,-0.1723,-0.1732,-0.1517,-0.1099,-0.11,-0.1396,-0.1073,-0.0854,-0.0733,-0.0308,0.0716,0.1637,0.1624,0.2252,0.2795,0.3118,0.3259,0.3119,0.3312,0.3329,0.3251,0.3363,0.3481,0.3501,0.3544,0.3576,0.3579,0.3579,0.3583,0.3586,0.3587,0.3811,0.4369,0.4706,0.4931,0.527,0.5382,0.5382,0.5382,0.5382,0.5382,0.5382,0.5382,0.5382,0.5382,0.5382,0.5382,0.5382,0.5382,0.5382,0.538,0.5373,0.5339,0.5314,0.5257,0.5306,0.5329,0.5189,0.5158,0.5089,0.5135,0.5187,0.5269,0.539,0.5383,0.528,0.5275,0.5352,0.545,0.566,0.5888,0.1795,0.1795,0.1795,0.1795,0.1795,0.1795,0.1234,0.0336,0.0448,-0.0,-0.0,-0.0,-0.0,-0.0,-0.0897,-0.0897,-0.0561,-0.1234,-0.1795,-0.1798,-0.1812,-0.1804,-0.1797,-0.1795,-0.1795,-0.1796,-0.1796,-0.1795,-0.1795,-0.1795,-0.1795,-0.1795,-0.1795,-0.1795,-0.1792,-0.2009,-0.2118,-0.2116,-0.2109,-0.199,-0.1985,-0.1855,-0.1737,-0.1737,-0.1725,-0.1397,-0.0859,-0.0436,-0.0331,-0.0443,-0.0332,-0.0221,-0.0219,0.0431,0.1171,0.1701,0.2428,0.2735,0.2747,0.3177,0.3195,0.2891,0.3218,0.333,0.338,0.3496,0.3519,0.355,0.358,0.3587,0.3587,0.3587,0.3587,0.3587,0.3587,0.381,0.4369,0.4592,0.4817,0.527,0.5382,0.5382,0.5382,0.5382,0.5382,0.5382,0.5382,0.5382,0.5382,0.5382,0.5382,0.5382,0.5382,0.5382,0.5382,0.5382,0.5375,0.5371,0.5337,0.53,0.5324,0.5147,0.5114,0.5067,0.5139,0.5095,0.5093,0.5205,0.5076,0.5133,0.5107,0.5192,0.5505,0.572,0.6075,0.1795,0.1795,0.1795,0.1795,0.1795,0.1795,0.1346,0.0785,-0.0,-0.0,-0.0,-0.0,-0.0,-0.0,-0.0673,-0.1014,-0.0906,-0.1463,-0.181,-0.1721,-0.1504,-0.1502,-0.172,-0.1823,-0.1814,-0.1812,-0.1801,-0.1795,-0.1795,-0.1795,-0.1795,-0.1795,-0.1795,-0.1795,-0.1795,-0.1907,-0.2019,-0.2019,-0.2019,-0.2019,-0.2017,-0.1876,-0.1761,-0.1758,-0.174,-0.1187,-0.0218,0.022,0.0222,0.0112,0.0223,0.0333,0.0443,0.1092,0.1623,0.1838,0.2571,0.2885,0.2798,0.3019,0.3138,0.2824,0.3035,0.3359,0.3492,0.3497,0.3518,0.354,0.357,0.3585,0.3587,0.3587,0.3587,0.3587,0.3587,0.381,0.448,0.448,0.4817,0.5156,0.5382,0.5382,0.5382,0.5382,0.5382,0.5382,0.5382,0.5382,0.5382,0.5382,0.5382,0.5382,0.5382,0.5382,0.5382,0.5382,0.5382,0.5382,0.5375,0.5349,0.53,0.5218,0.519,0.5159,0.5132,0.511,0.5102,0.5075,0.502,0.4979,0.4949,0.5146,0.5567,0.5755,0.6117,0.1795,0.1795,0.1795,0.1795,0.1795,0.1795,0.1795,0.157,0.0673,-0.0,-0.0,-0.0,-0.0,-0.0,-0.0336,-0.0791,-0.1716,-0.1699,-0.1727,-0.1637,-0.13,-0.1299,-0.1774,-0.1626,-0.1616,-0.1612,-0.1703,-0.1694,-0.1806,-0.1803,-0.1798,-0.1796,-0.1795,-0.1795,-0.1795,-0.1907,-0.1795,-0.1907,-0.1907,-0.1907,-0.1904,-0.1884,-0.1771,-0.1782,-0.1547,-0.0772,0.0334,0.0896,0.0784,0.0224,0.0773,0.0991,0.1097,0.1513,0.1828,0.2047,0.2375,0.2599,0.2624,0.2853,0.2978,0.2781,0.287,0.3184,0.3518,0.3519,0.3521,0.3529,0.3559,0.3582,0.3587,0.3587,0.3587,0.3587,0.3587,0.3921,0.4257,0.448,0.4706,0.527,0.5382,0.5382,0.5382,0.5382,0.5382,0.5382,0.5382,0.5382,0.5382,0.5382,0.5382,0.5382,0.5382,0.5382,0.5382,0.5382,0.5382,0.5382,0.5382,0.5367,0.5357,0.5304,0.5275,0.5249,0.5235,0.521,0.5184,0.5141,0.5088,0.5043,0.502,0.5326,0.5636,0.5798,0.6017,0.1795,0.1795,0.1795,0.1795,0.1795,0.1795,0.1795,0.1795,0.157,0.0785,-0.0,-0.0,-0.0,-0.0,-0.0449,-0.1124,-0.1704,-0.1716,-0.1747,-0.1675,-0.1201,-0.1331,-0.1575,-0.1427,-0.1174,-0.1171,-0.1051,-0.1273,-0.1607,-0.1713,-0.1818,-0.1799,-0.1796,-0.1795,-0.1795,-0.1907,-0.2132,-0.2132,-0.2132,-0.2019,-0.2019,-0.1898,-0.1783,-0.1679,-0.1228,-0.0112,0.112,0.157,0.157,0.1457,0.1453,0.1559,0.1557,0.1664,0.188,0.21,0.2214,0.2332,0.234,0.2564,0.2681,0.2575,0.2904,0.3233,0.357,0.3565,0.3565,0.3568,0.358,0.3587,0.3587,0.3587,0.3587,0.3587,0.3587,0.3699,0.4035,0.4148,0.4372,0.4819,0.5043,0.5156,0.5382,0.5382,0.5382,0.5382,0.5382,0.5382,0.5382,0.5382,0.5382,0.5382,0.5382,0.5382,0.5382,0.5382,0.5382,0.5382,0.5382,0.5382,0.5371,0.5367,0.5331,0.5331,0.5345,0.5312,0.5265,0.5239,0.5297,0.5249,0.5204,0.5525,0.5721,0.5765,0.6086,0.1795,0.1795,0.1795,0.1795,0.1795,0.1795,0.1795,0.1795,0.1795,0.1121,-0.0,-0.0,-0.0,-0.0,-0.0909,-0.1487,-0.1513,-0.1181,-0.1314,-0.145,-0.1214,-0.098,-0.1107,-0.1216,-0.1202,-0.0,-0.0472,-0.0703,-0.0931,-0.1386,-0.1602,-0.1815,-0.1803,-0.1795,-0.1795,-0.1908,-0.2019,-0.2019,-0.2019,-0.2019,-0.2019,-0.1892,-0.1774,-0.1334,-0.0446,0.0897,0.1683,0.1795,0.1795,0.1795,0.1795,0.1795,0.1795,0.1795,0.1907,0.2019,0.2132,0.2132,0.2244,0.2356,0.2579,0.2693,0.2805,0.3141,0.3475,0.3587,0.3587,0.3587,0.3587,0.3587,0.3587,0.3587,0.3587,0.3587,0.3587,0.3699,0.3813,0.3924,0.4148,0.4594,0.4819,0.5044,0.527,0.5382,0.5382,0.5382,0.5382,0.5382,0.5382,0.5382,0.5382,0.5382,0.5382,0.5382,0.5382,0.5382,0.5382,0.5382,0.5382,0.5382,0.5377,0.538,0.5377,0.5377,0.5373,0.5375,0.5337,0.5422,0.5387,0.5224,0.5297,0.5625,0.5813,0.5847,0.6226,0.1795,0.1795,0.1795,0.1795,0.1795,0.1683,0.157,0.1458,0.157,0.0899,-0.0,-0.0,-0.0,-0.0,-0.0915,-0.1517,-0.1435,-0.0729,-0.0608,-0.1216,-0.0858,-0.0493,-0.0493,-0.0861,-0.0,-0.0,-0.0,-0.0,-0.0,-0.07,-0.1278,-0.1729,-0.1817,-0.1587,-0.1584,-0.1804,-0.181,-0.1817,-0.1697,-0.1806,-0.1801,-0.1779,-0.1765,-0.1326,0.0445,0.1458,0.1795,0.1795,0.1795,0.1795,0.1795,0.1795,0.1795,0.1795,0.1795,0.1795,0.2019,0.2132,0.2244,0.2356,0.2581,0.2918,0.2918,0.3029,0.3477,0.3587,0.3587,0.3587,0.3587,0.3587,0.3587,0.3587,0.3587,0.3587,0.3587,0.3587,0.3587,0.3813,0.4035,0.4258,0.4594,0.4931,0.5156,0.5382,0.5382,0.5382,0.5382,0.5382,0.5382,0.5382,0.5382,0.5382,0.5382,0.5382,0.5382,0.5382,0.5382,0.5382,0.5382,0.5382,0.5382,0.5382,0.5382,0.5382,0.5382,0.5382,0.5382,0.5359,0.5322,0.5286,0.5385,0.5494,0.5778,0.5929,0.634,0.1795,0.1795,0.1795,0.1795,0.1683,0.1234,0.0785,0.0336,-0.0,-0.0,-0.0,-0.0,-0.0,-0.0,-0.0,-0.0,-0.1184,-0.0603,-0.0,-0.0,-0.0,-0.0,-0.0,-0.0,-0.0,-0.0,-0.0,-0.0,-0.0,-0.024,-0.0829,-0.1524,-0.1848,-0.1381,-0.1041,-0.1155,-0.1725,-0.1847,-0.1607,-0.16,-0.1703,-0.1802,-0.1787,-0.1452,0.0561,0.1684,0.1795,0.1795,0.1795,0.1795,0.1795,0.1795,0.18,0.18,0.18,0.1907,0.2019,0.2244,0.2244,0.2468,0.2692,0.3027,0.3026,0.3138,0.3475,0.3587,0.3587,0.3587,0.3587,0.3587,0.3587,0.3587,0.3587,0.3587,0.3587,0.3587,0.3587,0.3699,0.3701,0.3923,0.4258,0.4817,0.5156,0.5382,0.5382,0.5382,0.5382,0.5382,0.527,0.5382,0.5382,0.5382,0.5382,0.5382,0.5382,0.5382,0.5382,0.5382,0.5382,0.5382,0.5382,0.5382,0.5382,0.5382,0.5382,0.5382,0.5382,0.5382,0.5351,0.53,0.532,0.546,0.5617,0.5884,0.5918,0.1795,0.1795,0.1795,0.1795,0.1683,0.1121,0.0561,-0.0,-0.0,-0.0,-0.0,-0.0,-0.0,-0.0,-0.0,-0.0,-0.0,-0.0,-0.0,-0.0,-0.0,-0.0,-0.0,-0.0,-0.0,-0.0,-0.0,-0.0,-0.0,-0.0,-0.0,-0.0834,-0.1409,-0.1521,-0.1055,-0.1159,-0.1621,-0.1627,-0.1619,-0.1604,-0.1823,-0.1814,-0.1819,-0.1136,0.0454,0.1697,0.1796,0.1795,0.1795,0.1798,0.181,0.1817,0.1823,0.1829,0.1827,0.1804,0.2021,0.2245,0.2244,0.2468,0.2805,0.3026,0.3138,0.325,0.3475,0.3587,0.3587,0.3587,0.3587,0.3587,0.3587,0.3587,0.3587,0.3587,0.3587,0.3587,0.3587,0.3587,0.3587,0.3699,0.4147,0.4707,0.527,0.5382,0.5382,0.5382,0.5382,0.527,0.5156,0.5156,0.527,0.5156,0.5156,0.5156,0.527,0.527,0.527,0.527,0.5382,0.5382,0.5382,0.5382,0.5382,0.5382,0.5382,0.5382,0.5382,0.5382,0.5347,0.5324,0.5349,0.5468,0.5652,0.5742,0.5872,0.1801,0.1795,0.1795,0.1795,0.1683,0.1121,0.0561,-0.0,-0.0,-0.0,-0.0,-0.0,-0.0,-0.0,-0.0,-0.0,-0.0,-0.0,-0.0,-0.0,-0.0,-0.0,-0.0,-0.0,-0.0,-0.0,-0.0,-0.0,-0.0,-0.0,-0.0,-0.0,-0.1193,-0.1781,-0.1662,-0.1295,-0.1398,-0.1632,-0.1859,-0.1843,-0.1827,-0.1836,-0.1849,-0.1618,0.0578,0.1838,0.1823,0.1821,0.1821,0.1825,0.1836,0.1849,0.1853,0.1872,0.1862,0.1823,0.2148,0.2256,0.2479,0.2693,0.3027,0.325,0.325,0.3362,0.3475,0.3587,0.3587,0.3587,0.3587,0.3587,0.3587,0.3587,0.3587,0.3587,0.3587,0.3587,0.3587,0.3587,0.3587,0.3811,0.4147,0.4596,0.516,0.5156,0.5156,0.5044,0.5044,0.5044,0.4931,0.5043,0.4931,0.4817,0.4706,0.4931,0.4931,0.5044,0.5044,0.5156,0.527,0.5382,0.5382,0.5382,0.5382,0.5382,0.5382,0.5382,0.5382,0.5382,0.5365,0.5359,0.5375,0.5483,0.5567,0.555,0.5669,0.1819,0.1795,0.1795,0.1795,0.1683,0.1121,0.0561,-0.0,-0.0,-0.0,-0.0,0.1045,0.1514,0.1284,0.0463,-0.0,-0.0,-0.0,-0.0,-0.0,-0.0,-0.0,-0.0,-0.0,-0.0,-0.0,-0.0,-0.0,-0.0,-0.0,-0.0,-0.0,-0.0728,-0.1331,-0.1826,-0.1561,-0.1572,-0.1825,-0.1929,-0.1902,-0.1881,-0.188,-0.188,-0.1292,0.0352,0.1875,0.1866,0.1863,0.1866,0.1869,0.1875,0.1881,0.1999,0.1883,0.1885,0.1987,0.2316,0.2753,0.2971,0.317,0.3367,0.3478,0.3475,0.3587,0.3587,0.3587,0.3587,0.3587,0.3587,0.3587,0.3587,0.3587,0.3587,0.3587,0.3587,0.3587,0.3587,0.3587,0.3587,0.3699,0.3923,0.4487,0.505,0.4935,0.4931,0.4819,0.4706,0.4706,0.4706,0.4817,0.5043,0.4931,0.4594,0.4596,0.4819,0.4819,0.4819,0.4931,0.5156,0.527,0.527,0.527,0.5382,0.5382,0.5382,0.5382,0.5382,0.5382,0.5382,0.5382,0.5382,0.5382,0.538,0.5479,0.5575,0.1864,0.1819,0.1802,0.1795,0.1683,0.1121,0.0564,0.0228,0.081,0.1176,0.1188,0.1527,0.1857,0.161,0.1147,-0.0,-0.0,-0.0,-0.0,-0.0,-0.0,-0.0,-0.0,-0.0,-0.0,-0.0,-0.0,-0.0,-0.0,-0.0,-0.0,-0.0,-0.0368,-0.098,-0.185,-0.1824,-0.1819,-0.1937,-0.1923,-0.1917,-0.1926,-0.1922,-0.1912,-0.1792,0.0597,0.1665,0.201,0.1885,0.1885,0.1889,0.1899,0.1911,0.2036,0.2047,0.2058,0.2539,0.2624,0.2815,0.2882,0.3427,0.3515,0.3597,0.359,0.3587,0.3587,0.3587,0.3587,0.3587,0.3587,0.3587,0.3587,0.3587,0.3587,0.3587,0.3587,0.3587,0.3587,0.3587,0.3587,0.3699,0.3701,0.415,0.4601,0.4597,0.4594,0.4594,0.4594,0.4706,0.4594,0.4592,0.4931,0.5156,0.4709,0.4372,0.4484,0.4596,0.4594,0.4707,0.4931,0.5044,0.5156,0.5156,0.527,0.5382,0.5382,0.5382,0.5382,0.5382,0.5382,0.5382,0.5382,0.5382,0.5382,0.5491,0.5481,0.1904,0.1859,0.1822,0.1802,0.1683,0.1121,0.0566,0.023,0.1403,0.2021,0.2036,0.1897,0.1851,0.181,0.1705,0.1144,-0.0,0.0118,-0.0,-0.0,-0.0,-0.0,-0.0,-0.0,-0.0,-0.0,-0.0,-0.0,-0.0,-0.0,-0.0,-0.0,-0.0,-0.0864,-0.1477,-0.1835,-0.1949,-0.1947,-0.193,-0.1938,-0.196,-0.1952,-0.1945,-0.1213,0.0364,0.2052,0.2032,0.1911,0.1911,0.1917,0.193,0.1942,0.1945,0.2079,0.2334,0.2699,0.2916,0.2995,0.3176,0.3366,0.3677,0.3646,0.3613,0.3619,0.3613,0.3602,0.3587,0.3587,0.3587,0.3587,0.3587,0.3587,0.3587,0.3587,0.3587,0.3587,0.3587,0.3587,0.3587,0.3587,0.3587,0.3587,0.3924,0.4147,0.4257,0.4258,0.437,0.4482,0.448,0.4369,0.4594,0.4933,0.4819,0.4372,0.4596,0.4594,0.4482,0.437,0.4706,0.4817,0.4819,0.5043,0.5156,0.527,0.527,0.5382,0.5382,0.5382,0.5382,0.5382,0.5382,0.5382,0.5382,0.5493,0.5603,0.205,0.192,0.1861,0.1822,0.1798,0.1121,0.0567,0.0231,0.1406,0.2022,0.2041,0.1898,0.1852,0.1809,0.1802,0.1476,0.0806,0.0234,-0.0,-0.0,-0.0,-0.0,-0.0,-0.0,-0.0,-0.0,-0.0,-0.0,-0.0,-0.0,-0.0,-0.0,-0.0,-0.0865,-0.1358,-0.1846,-0.1967,-0.1967,-0.1958,-0.196,-0.1974,-0.1971,-0.197,-0.1354,0.0493,0.1972,0.1969,0.1962,0.1958,0.1958,0.1963,0.1967,0.209,0.2218,0.2468,0.2587,0.3077,0.3283,0.3361,0.3552,0.3762,0.374,0.3707,0.3668,0.3655,0.3615,0.3595,0.359,0.3587,0.3587,0.3587,0.3587,0.3587,0.3587,0.3587,0.3587,0.3587,0.3587,0.3587,0.3587,0.3587,0.3587,0.3587,0.3811,0.3921,0.3923,0.4148,0.426,0.4258,0.4147,0.437,0.4482,0.4594,0.4482,0.4706,0.4594,0.437,0.437,0.448,0.4592,0.448,0.4706,0.4931,0.5044,0.5044,0.527,0.5382,0.5382,0.5382,0.5382,0.5382,0.5382,0.5605,0.5826,0.6047,0.2041,0.202,0.1995,0.1862,0.1735,0.1156,0.105,0.1302,0.1789,0.2027,0.2023,0.1888,0.1852,0.1809,0.1797,0.1698,0.1266,0.0351,-0.0,-0.0,-0.0,-0.0,-0.0,-0.0,-0.0,-0.0,-0.0,-0.0,-0.0,-0.0,-0.0,-0.0,-0.0,-0.1483,-0.173,-0.1853,-0.1977,-0.1977,-0.1977,-0.1853,-0.1483,-0.173,-0.1606,-0.0618,0.0865,0.1977,0.1975,0.1976,0.1977,0.1977,0.1977,0.21,0.21,0.2222,0.2345,0.259,0.3085,0.332,0.3666,0.3737,0.3812,0.377,0.3743,0.3721,0.3698,0.3655,0.3621,0.3605,0.3591,0.3595,0.3587,0.3587,0.3587,0.3587,0.3587,0.3587,0.3587,0.3587,0.3587,0.3587,0.3587,0.3587,0.3587,0.3587,0.3587,0.3699,0.3813,0.4038,0.4036,0.4035,0.4258,0.437,0.4369,0.448,0.4594,0.4482,0.426,0.4258,0.4369,0.4257,0.4257,0.4479,0.4704,0.4706,0.4815,0.5037,0.5148,0.5268,0.5382,0.5382,0.5382,0.5382,0.5717,0.6161,0.649,0.1911,0.2018,0.2018,0.2012,0.1768,0.1414,0.1308,0.1687,0.1689,0.18,0.2018,0.1897,0.1866,0.1822,0.1584,0.1704,0.1383,-0.0,-0.0,-0.0,-0.0,-0.0,-0.0,-0.0,-0.0,-0.0,-0.0,-0.0,-0.0,-0.0,-0.0,-0.0,-0.1235,-0.1853,-0.1977,-0.1977,-0.1977,-0.1977,-0.173,-0.1483,-0.1112,-0.1112,-0.1112,-0.0,0.1235,0.1977,0.1977,0.1977,0.1977,0.21,0.2099,0.2222,0.2223,0.2346,0.2593,0.2838,0.3085,0.3455,0.3813,0.3913,0.3868,0.3843,0.3807,0.3777,0.3743,0.3715,0.3683,0.363,0.3617,0.3608,0.3597,0.3587,0.3587,0.3587,0.3587,0.3587,0.3587,0.3587,0.3587,0.3587,0.3587,0.3587,0.3587,0.3587,0.3587,0.3587,0.3699,0.3813,0.3923,0.4035,0.4148,0.4258,0.4257,0.4369,0.448,0.4258,0.4148,0.4036,0.4147,0.4033,0.4033,0.425,0.4362,0.4367,0.4475,0.4691,0.4808,0.5041,0.5156,0.5382,0.5382,0.5493,0.6158,0.6712,0.7154,0.1902,0.205,0.2047,0.2031,0.2011,0.1887,0.1549,0.1209,0.1209,0.1448,0.1926,0.1926,0.1895,0.1732,0.1262,0.1266,0.1276,-0.0,-0.0,-0.0,-0.0,-0.0,-0.0,-0.0,-0.0,-0.0,-0.0,-0.0,-0.0,-0.0,-0.0,-0.0,-0.0618,-0.173,-0.1977,-0.1977,-0.1977,-0.1853,-0.1359,-0.0988,-0.0741,-0.0371,-0.0124,0.0494,0.1359,0.1977,0.1977,0.1977,0.1977,0.2099,0.2222,0.2345,0.259,0.2961,0.3085,0.3208,0.3579,0.3826,0.3948,0.3947,0.3933,0.3917,0.3875,0.3847,0.3835,0.38,0.3734,0.3669,0.3662,0.3638,0.3613,0.3587,0.3587,0.3587,0.3587,0.3587,0.3587,0.3587,0.3587,0.3587,0.3587,0.3587,0.3587,0.3587,0.3587,0.3587,0.3587,0.3699,0.3811,0.3923,0.4036,0.4035,0.4035,0.4147,0.4258,0.4148,0.4038,0.3924,0.3924,0.3811,0.3792,0.388,0.3998,0.4021,0.4231,0.4431,0.4566,0.4706,0.5154,0.5491,0.5491,0.5712,0.649,0.7149,0.7584,0.1873,0.19,0.1901,0.2039,0.1943,0.1946,0.1586,0.1102,0.147,0.1828,0.1934,0.1931,0.1911,0.1758,0.116,-0.0,-0.0,-0.0,-0.0,-0.0,-0.0,-0.0,-0.0,-0.0,-0.0,-0.0,-0.0,-0.0,-0.0,-0.0,-0.0,-0.0,0.0494,-0.0741,-0.1483,-0.1606,-0.1359,-0.1235,-0.0741,-0.0124,0.0247,0.0247,0.0494,0.1235,0.173,0.1977,0.1977,0.1977,0.2099,0.2223,0.2345,0.2468,0.2714,0.3085,0.3085,0.3208,0.3579,0.3703,0.3826,0.3948,0.395,0.3942,0.3931,0.3898,0.3864,0.3846,0.3778,0.3714,0.3699,0.3661,0.3604,0.3593,0.359,0.3587,0.3587,0.3587,0.3587,0.3587,0.3587,0.3587,0.3587,0.3587,0.3587,0.3587,0.3587,0.3587,0.3587,0.3587,0.3699,0.3699,0.3699,0.3811,0.3811,0.3923,0.4035,0.3924,0.3924,0.3924,0.3924,0.3924,0.3785,0.3643,0.3656,0.3797,0.3986,0.4065,0.4332,0.4706,0.5264,0.5712,0.5935,0.6241,0.6874,0.7541,0.7996,0.1612,0.1168,0.1285,0.1309,0.1346,0.1355,0.1112,0.1112,0.1729,0.1964,0.195,0.1947,0.193,0.1784,0.1297,0.0589,-0.0,-0.0,-0.0,-0.0,-0.0,-0.0,-0.0,-0.0,-0.0,-0.0,-0.0,-0.0,-0.0,-0.0,0.1976,0.2346,0.1852,0.0494,-0.037,-0.0494,-0.0618,-0.0494,-0.0,0.0494,0.0741,0.0988,0.1112,0.173,0.1977,0.1977,0.1976,0.2099,0.2222,0.2346,0.2469,0.2469,0.2838,0.296,0.3085,0.3455,0.3579,0.3703,0.3826,0.395,0.395,0.3948,0.395,0.3932,0.3901,0.3894,0.3841,0.3782,0.3743,0.3703,0.3661,0.3647,0.364,0.3642,0.3643,0.3646,0.3644,0.3647,0.3621,0.3619,0.359,0.359,0.3587,0.3587,0.3587,0.3587,0.3587,0.3587,0.3587,0.3587,0.3587,0.3587,0.3587,0.3811,0.3811,0.3813,0.3813,0.3813,0.3813,0.3813,0.368,0.3651,0.3556,0.3563,0.3755,0.3856,0.4231,0.4706,0.5487,0.6156,0.6712,0.7,0.7371,0.7831,0.832,0.1133,-0.0,-0.0,-0.0,-0.0,-0.0,0.037,0.0988,0.173,0.1976,0.1975,0.197,0.195,0.181,0.1324,0.0721,-0.0,-0.0,-0.0,-0.0,-0.0,-0.0,-0.0,-0.0,-0.0,-0.0,0.0617,0.1729,0.3463,0.3213,0.284,0.2467,0.1973,0.1357,0.0987,0.0617,0.0247,0.0247,0.0618,0.1112,0.1235,0.1606,0.173,0.1977,0.1977,0.1977,0.2099,0.2222,0.2222,0.2346,0.2591,0.2838,0.3085,0.3331,0.3579,0.3826,0.3826,0.3826,0.3826,0.395,0.395,0.395,0.395,0.3948,0.3944,0.3931,0.3887,0.3852,0.3819,0.3793,0.3766,0.3753,0.3743,0.3743,0.3744,0.3743,0.3739,0.3721,0.3684,0.3654,0.361,0.3594,0.3589,0.3587,0.3587,0.3587,0.3587,0.3587,0.3587,0.3587,0.3587,0.3587,0.3587,0.3587,0.3587,0.3699,0.3699,0.3701,0.3699,0.3698,0.3564,0.3549,0.3552,0.3546,0.3526,0.3644,0.4018,0.4704,0.5708,0.6376,0.7046,0.7662,0.8029,0.82,0.8579,0.1132,-0.0,-0.0,-0.0,-0.0,-0.0,0.0367,0.1111,0.173,0.1977,0.1976,0.2075,0.1944,0.193,0.1789,0.0958,-0.0,-0.0,-0.0,-0.0,-0.0,-0.0,-0.0,-0.0,-0.0,0.21,0.2594,0.2593,0.2716,0.3333,0.3829,0.3331,0.2466,0.2343,0.2097,0.1728,0.1235,0.0988,0.1359,0.1483,0.1606,0.1853,0.1977,0.1977,0.1977,0.1977,0.21,0.2345,0.2345,0.2468,0.2715,0.3085,0.3331,0.3455,0.3579,0.3826,0.395,0.395,0.395,0.395,0.395,0.395,0.395,0.395,0.395,0.3943,0.3922,0.3894,0.3873,0.3845,0.3818,0.3805,0.3801,0.3801,0.3801,0.38,0.3794,0.3774,0.3736,0.367,0.3627,0.3601,0.3594,0.3587,0.3587,0.3587,0.3587,0.3587,0.3587,0.3587,0.3587,0.3587,0.3587,0.3587,0.3587,0.3587,0.3587,0.3587,0.3587,0.3586,0.3575,0.3561,0.3548,0.3544,0.3546,0.3559,0.3692,0.4592,0.5708,0.6596,0.7374,0.8094,0.861,0.8669,0.8689,0.1128,-0.0,-0.0,-0.0,-0.0,-0.0,0.0364,0.0978,0.1714,0.1964,0.1973,0.1958,0.1705,0.1339,0.1572,-0.0,-0.0,-0.0,-0.0,-0.0,-0.0,-0.0,-0.0,0.1482,0.2099,0.3212,0.3582,0.3334,0.2961,0.3085,0.3579,0.3579,0.296,0.2714,0.2467,0.2099,0.1729,0.1606,0.173,0.1977,0.1977,0.1977,0.1977,0.1977,0.1977,0.1977,0.21,0.2345,0.2467,0.2468,0.2715,0.3085,0.3331,0.3455,0.3702,0.395,0.395,0.395,0.395,0.395,0.395,0.395,0.395,0.395,0.395,0.3946,0.3931,0.391,0.3901,0.3886,0.3862,0.3843,0.3843,0.3845,0.3845,0.3845,0.3834,0.382,0.3763,0.3691,0.3649,0.3619,0.3602,0.3595,0.3587,0.3587,0.3587,0.3587,0.3587,0.3587,0.3587,0.3587,0.3587,0.3587,0.3587,0.3587,0.3587,0.3587,0.3587,0.3585,0.3579,0.3576,0.3567,0.3572,0.358,0.3587,0.3587,0.4592,0.5708,0.6596,0.7371,0.8002,0.8533,0.8789,0.8783,0.1009,-0.0,-0.0,-0.0,-0.0,-0.0,0.036,0.0964,0.1687,0.2068,0.1971,0.1973,0.1228,0.0612,0.1099,0.0978,-0.0,-0.0,-0.0,-0.0,-0.0,0.1358,0.2594,0.3708,0.3088,0.2838,0.3085,0.3703,0.3703,0.3702,0.3579,0.3455,0.296,0.2714,0.259,0.2345,0.1976,0.1853,0.1853,0.1977,0.1977,0.1977,0.1977,0.1977,0.1977,0.1977,0.2099,0.2222,0.2344,0.2346,0.2592,0.3085,0.3331,0.3579,0.3826,0.3826,0.395,0.395,0.395,0.395,0.395,0.395,0.395,0.395,0.395,0.395,0.3936,0.3933,0.3924,0.3922,0.3905,0.3899,0.3901,0.3901,0.3901,0.3901,0.3895,0.3867,0.3808,0.3745,0.3707,0.3677,0.3658,0.3655,0.3643,0.3617,0.3604,0.3606,0.3589,0.3589,0.3587,0.3587,0.3587,0.3587,0.3587,0.3587,0.3587,0.3587,0.3587,0.3587,0.3583,0.3585,0.3587,0.3587,0.3587,0.3587,0.3811,0.4704,0.5594,0.6366,0.7138,0.7907,0.8348,0.8679,0.8796,0.0224,-0.0,-0.0,-0.0,-0.0,-0.0,-0.0,0.0355,0.1541,0.1928,0.1965,0.1465,0.0851,0.0244,0.0366,0.0366,0.0853,0.2707,0.358,-0.0,-0.0,0.1851,0.2716,0.3581,0.358,0.3703,0.3826,0.395,0.3826,0.3703,0.3579,0.3331,0.3085,0.296,0.2714,0.2468,0.2222,0.1977,0.1977,0.1977,0.1977,0.1977,0.1977,0.1977,0.1977,0.1977,0.2099,0.2221,0.2221,0.2223,0.2963,0.3455,0.3703,0.3826,0.395,0.395,0.395,0.395,0.395,0.395,0.395,0.395,0.395,0.395,0.395,0.395,0.395,0.395,0.395,0.395,0.395,0.395,0.395,0.395,0.395,0.395,0.395,0.3902,0.385,0.3809,0.3651,0.3744,0.3724,0.3707,0.3698,0.3681,0.3665,0.3649,0.3608,0.3593,0.3589,0.3587,0.3587,0.3587,0.3587,0.3587,0.3587,0.3587,0.3587,0.3587,0.3587,0.3587,0.3587,0.3587,0.3587,0.3587,0.3923,0.4596,0.5485,0.6144,0.6903,0.7665,0.8182,0.8388,0.8646,-0.0,-0.0,-0.0,-0.0,-0.0,-0.0,-0.0,-0.0,0.0828,0.0721,0.0488,0.0976,0.0975,-0.0,-0.0,0.1461,0.2439,0.4676,0.5061,0.4445,0.3579,0.3207,0.3454,0.3579,0.3703,0.395,0.395,0.395,0.3826,0.3703,0.3579,0.3331,0.3331,0.3083,0.2714,0.2467,0.2222,0.1977,0.1977,0.1977,0.1977,0.1977,0.1977,0.1977,0.1977,0.1977,0.21,0.2222,0.2099,0.2223,0.284,0.3455,0.3703,0.3826,0.395,0.395,0.395,0.395,0.395,0.395,0.395,0.395,0.395,0.395,0.395,0.395,0.395,0.395,0.395,0.395,0.395,0.395,0.395,0.395,0.395,0.395,0.395,0.3929,0.3883,0.3842,0.3811,0.379,0.3768,0.3744,0.3734,0.3724,0.371,0.3684,0.3644,0.3616,0.3605,0.3594,0.36,0.3593,0.3587,0.3587,0.3587,0.3587,0.3587,0.3587,0.3587,0.3587,0.3587,0.3587,0.3587,0.3587,0.4035,0.4484,0.5154,0.5817,0.6682,0.7425,0.7825,0.8125,0.8291,-0.0,-0.0,-0.0,-0.0,-0.0,-0.0,-0.0,-0.0,-0.0,-0.0721,-0.1208,0.1098,0.1228,-0.0,-0.0,-0.0,0.4818,0.5434,0.5808,0.5309,0.4444,0.3948,0.3824,0.4071,0.395,0.395,0.395,0.395,0.395,0.3703,0.3579,0.3455,0.3085,0.2713,0.2467,0.2346,0.2223,0.21,0.1977,0.1977,0.1977,0.1977,0.1977,0.1977,0.1977,0.1977,0.1977,0.1977,0.1977,0.2223,0.2716,0.3332,0.3703,0.395,0.395,0.395,0.395,0.395,0.395,0.395,0.395,0.395,0.395,0.395,0.395,0.395,0.395,0.395,0.395,0.395,0.395,0.395,0.395,0.395,0.395,0.395,0.3948,0.3948,0.3913,0.3875,0.386,0.3839,0.3823,0.3797,0.3782,0.377,0.3747,0.3715,0.3689,0.3672,0.3657,0.3636,0.3625,0.3615,0.3594,0.3587,0.3587,0.3587,0.3587,0.3587,0.3587,0.3587,0.3587,0.3587,0.3587,0.3587,0.3587,0.3923,0.4594,0.5487,0.6102,0.6837,0.7604,0.781,0.7853,-0.0,-0.0,-0.0,-0.0,-0.0,-0.0,-0.0,-0.0,-0.0,-0.0706,-0.0958,0.1314,-0.0,-0.0,-0.0,-0.0,0.5419,0.5802,0.5309,0.481,0.4689,0.4442,0.4196,0.4073,0.395,0.395,0.395,0.395,0.395,0.3826,0.3826,0.3703,0.3703,0.3331,0.2837,0.2716,0.247,0.2224,0.1977,0.1977,0.1977,0.1977,0.1977,0.1977,0.1977,0.1977,0.1977,0.1977,0.1977,0.2224,0.2592,0.3209,0.3702,0.3826,0.395,0.395,0.395,0.395,0.395,0.395,0.395,0.395,0.395,0.395,0.395,0.395,0.395,0.395,0.395,0.395,0.395,0.395,0.395,0.395,0.395,0.395,0.395,0.395,0.3935,0.3922,0.3918,0.391,0.3906,0.3886,0.3872,0.3854,0.3826,0.3793,0.3753,0.3732,0.3709,0.3679,0.3653,0.3624,0.36,0.359,0.3587,0.3587,0.3587,0.3587,0.3587,0.3587,0.3587,0.3587,0.3587,0.3587,0.3587,0.3587,0.4369,0.5254,0.552,0.6141,0.7029,0.7491,0.7532]},{"header":{"parameterUnit":"m.s-1","parameterCategory":1,"la1":31.0,"la2":29.5877,"lo1":-88.7671,"lo2":-86.6584,"dy":0.0162,"dx":0.0185,"nx":115,"ny":88,"refTime":"2023-07-04T06:00:00:Z","depth":0,"parameterNumber":3,"parameterNumberName":"V-component_of_WINDS"},"data":[0.0,0.0,0.0,0.0,0.0,0.0,0.0,0.0,0.0,0.0,0.0,0.0,0.0,0.0,0.0,0.0,0.0,0.0,0.0,0.0,0.0,0.0,0.0,0.0,0.0,0.0,0.0,0.0,0.0,0.0,0.0,0.0,0.0,0.0,0.0,0.0,0.0,0.0,0.0,0.0,0.0,0.0,0.0,0.0,0.0,0.0,0.0,0.0,0.0,0.0,0.0,0.0,0.0,0.0,0.0,0.0,0.0,0.0,0.0,0.0,0.0,0.0,0.0,0.0,0.0,0.0,0.0,0.0,0.0,0.0,0.0,0.0,0.0,0.0,0.0,0.0,0.0,0.0,0.0,0.0,0.0,0.0,0.0,0.0,0.0,0.0,0.0,0.0,0.0,0.0,0.0,0.0,0.0,0.0,0.0,0.0,0.0,0.0,0.0,0.0,0.0,0.0,0.0,0.0,0.0,0.0,0.0,0.0,0.0,0.0,0.0,0.0,0.0,0.0,0.0,0.0,0.0,0.0,0.0,0.0,0.0,0.0,0.0,0.0,0.0,0.0,0.0,0.0,0.0,0.0,0.0,0.0,0.0,0.0,0.0,0.0,0.0,0.0,0.0,0.0,0.0,0.0,0.0,0.0,0.0,0.0,0.0,0.0,0.0,0.0,0.0,0.0,0.0,0.0,0.0,0.0,0.0,0.0,0.0,0.0,0.0,0.0,0.0,0.0,0.0,0.0,0.0,0.0,0.0,0.0,0.0,0.0,0.0,0.0,0.0,0.0,0.0,0.0,0.0,0.0,0.0,0.0,0.0,0.0,0.0,0.0,0.0,0.0,0.0,0.0,0.0,0.0,0.0,0.0,0.0,0.0,0.0,0.0,0.0,0.0,0.0,0.0,0.0,0.0,0.0,0.0,0.0,0.0,0.0,0.0,0.0,0.0,0.0,0.0,0.0,0.0,0.0,0.0,0.0,0.0,0.0,0.0,0.0,0.0,0.0,0.0,0.0,0.0,0.0,0.0,0.0,0.0,0.0,0.0,0.0,0.0,0.0,0.0,0.0,0.0,0.0,0.0,0.0,0.0,0.0,0.0,0.0,0.0,0.0,0.0,0.0,0.0,0.0,0.0,0.0,0.0,0.0,0.0,0.0,0.0,0.0,0.0,0.0,0.0,0.0,0.0,0.0,0.0,0.0,0.0,0.0,0.0,0.0,0.0,0.0,0.0,0.0,0.0,0.0,0.0,0.0,0.0,0.0,0.0,0.0,0.0,0.0,0.0,0.0,0.0,0.0,0.0,0.0,0.0,0.0,0.0,0.0,0.0,0.0,0.0,0.0,0.0,0.0,0.0,0.0,0.0,0.0,0.0,0.0,0.0,0.0,0.0,0.0,0.0,0.0,0.0,0.0,0.0,0.0,0.0,0.0,0.0,0.0,0.0,0.0,0.0,0.0,0.0,0.0,0.0,0.0,0.0,0.0,0.0,0.0,0.0,0.0,0.0,0.0,0.0,0.0,0.0,0.0,0.0,0.0,0.0,0.0,0.0,0.0,0.0,0.0,0.0,0.0,0.0,0.0,0.0,0.0,0.0,0.0,0.0,0.0,0.0,0.0,0.0,0.0,0.0,0.0,0.0,0.0,0.0,0.0,0.0,0.0,0.0,0.0,0.0,0.0,0.0,0.0,0.0,0.0,0.0,0.0,0.0,0.0,0.0,0.0,0.0,0.0,0.0,0.0,0.0,0.0,0.0,0.0,0.0,0.0,0.0,0.0,0.0,0.0,0.0,0.0,0.0,0.0,0.0,0.0,0.0,0.0,0.0,0.0,0.0,0.0,0.0,0.0,0.0,0.0,0.0,0.0,0.0,0.0,0.0,0.0,0.0,0.0,0.0,0.0,0.0,0.0,0.0,0.0,0.0,0.0,0.0,0.0,0.0,0.0,0.0,0.0,0.0,0.0,0.0,0.0,0.0,0.0,0.0,0.0,0.0,0.0,0.0,0.0,0.0,0.0,0.0,0.0,0.0,0.0,0.0,0.0,0.0,0.0,0.0,0.0,0.0,0.0,0.0,0.0,0.0,0.0,0.0,0.0,0.0,0.0,0.0,0.0,0.0,0.0,0.0,0.0,0.0,0.0,0.0,0.0,0.0,0.0,0.0,0.0,0.0,0.0,0.0,0.0,0.0,0.0,0.0,0.0,0.0,0.0,0.0,0.0,0.0,0.0,0.0,0.0,0.0,0.0,0.0,0.0,0.0,0.0,0.0,0.0,0.0,0.0,0.0,0.0,0.0,0.0,0.0,0.0,0.0,0.0,0.0,0.0,0.0,0.0,0.0,0.0,0.0,0.0,0.0,0.0,0.0,0.0,0.0,0.0,0.0,0.0,0.0,0.0,0.0,0.0,0.0,0.0,0.0,0.0,0.0,0.0,0.0,0.0,0.0,0.0,0.0,0.0,0.0,0.0,0.0,0.0,0.0,0.0,0.0,0.0,0.0,0.0,0.0,0.0,0.0,0.0,0.0,0.0,0.0,0.0,0.0,0.0,0.0,0.0,0.0,0.0,0.0,0.0,0.0,0.0,0.0,0.0,0.0,0.0,0.0,0.0,0.0,0.0,0.0,0.0,0.0,0.0,0.0,0.0,0.0,0.0,0.0,0.0,0.0,0.0,0.0,0.0,0.0,0.0,0.0,0.0,0.0,0.0,0.0,0.0,0.0,0.0,0.0,0.0,0.0,0.0,0.0,0.0,0.0,0.0,0.0,0.0,0.0,0.0,0.0,0.0,0.0,0.0,0.0,0.0,0.0,0.0,0.0,0.0,0.0,0.0,0.0,0.0,0.0,0.0,0.0,0.0,0.0,0.0,0.0,0.0,0.0,0.0,0.0,0.0,0.0,0.0,0.0,0.0,0.0,0.0,0.0,0.0,0.0,0.0,0.0,0.0,0.0,0.0,0.0,0.0,0.0,0.0,0.0,0.0,0.0,0.0,0.0,0.0,0.0,0.0,0.0,0.0,0.0,0.0,0.0,0.0,0.0,0.0,0.0,0.0,0.0,0.0,0.0,0.0,0.0,0.0,0.0,0.0,0.0,0.0,0.0,0.0,0.0,0.0,0.0,0.0,0.0,0.0,0.0,0.0,0.0,0.0,0.0,0.0,0.0,0.0,0.0,0.0,0.0,0.0,0.0,0.0,0.0,0.0,0.0,0.0,0.0,0.0,0.0,0.0,0.0,0.0,0.0,0.0,0.0,0.0,0.0,0.0,0.0,0.0,0.0,0.0,0.0,0.0,0.0,0.0,0.0,0.0,0.0,0.0,0.0,0.0,0.0,0.0,0.0,0.0,0.0,0.0,0.0,0.0,0.0,0.0,0.0,0.0,0.0,0.0,0.0,0.0,0.0,0.0,0.0,0.0,0.0,0.0,0.0,0.0,0.0,0.0,0.0,0.0,0.0,0.0,0.0,0.0,0.0,0.0,0.0,0.0,0.0,0.0,0.0,0.0,0.0,0.0,0.0,0.0,0.0,0.0,0.0,0.0,0.0,0.0,0.0,0.0,0.0,0.0,0.0,0.0,0.0,0.0,0.0,0.0,0.0,0.0,0.0,0.0,0.0,0.0,0.0,0.0,0.0,0.0,0.0,0.0,0.0,0.0,0.0,0.0,0.0,0.0,0.0,0.0,0.0,0.0,0.0,0.0,0.0,0.0,0.0,0.0,0.0,0.0,0.0,0.0,0.0,0.0,0.0,0.0,0.0,0.0,0.0,0.0,0.0,0.0,0.0,0.0,0.0,0.0,0.0,0.0,0.0,0.0,0.0,0.0,0.0,0.0,0.0,0.0,0.0,0.0,0.0,0.0,0.0,0.0,0.0,0.0,0.0,0.0,0.0,0.0,0.0,0.0,0.0,0.0,0.0,0.0,0.0,0.0,0.0,0.0,0.0,0.0,0.0,0.0,0.0,0.0,0.0,0.0,0.0,0.0,0.0,0.0,0.0,0.0,0.0,0.0,0.0,0.0,0.0,0.0,0.0,0.0,0.0,0.0,0.0,0.0,0.0,0.0,0.0,0.0,0.0,0.0,0.0,0.0,0.0,0.0,0.0,0.0,0.0,0.0,0.0,0.0,0.0,0.0,0.0,0.0,0.0,0.0,0.0,0.0,0.0,0.0,0.0,0.0,0.0,0.0,0.0,0.0,0.0,0.0,0.0,0.0,0.0,0.0,0.0,0.0,0.0,0.0,0.0,0.0,0.0,0.0,0.0,0.0,0.0,0.0,0.0,0.0,0.0,-1.5759,0.0,0.0,0.0,0.0,0.0,0.0,0.0,0.0,0.0,0.0,0.0,0.0,0.0,0.0,0.0,0.0,0.0,0.0,0.0,0.0,0.0,0.0,0.0,0.0,0.0,0.0,0.0,0.0,0.0,0.0,0.0,0.0,0.0,0.0,0.0,0.0,0.0,0.0,0.0,0.0,0.0,0.0,0.0,0.0,0.0,0.0,0.0,0.0,0.0,0.0,0.0,0.0,0.0,0.0,0.0,0.0,0.0,0.0,0.0,0.0,0.0,0.0,0.0,0.0,0.0,0.0,0.0,0.0,0.0,0.0,0.0,0.0,0.0,0.0,0.0,0.0,0.0,0.0,0.0,0.0,0.0,0.0,0.0,0.0,0.0,0.0,0.0,0.0,0.0,0.0,0.0,0.0,0.0,0.0,0.0,0.0,0.0,0.0,0.0,0.0,0.0,0.0,0.0,0.0,0.0,0.0,0.0,0.0,0.0,0.0,-1.4581,-1.46,-1.5021,-1.5247,-1.5239,0.0,0.0,0.0,0.0,0.0,0.0,0.0,0.0,0.0,0.0,0.0,0.0,0.0,0.0,0.0,0.0,0.0,0.0,0.0,0.0,0.0,0.0,0.0,0.0,0.0,0.0,0.0,0.0,0.0,0.0,0.0,0.0,0.0,0.0,0.0,0.0,0.0,0.0,0.0,0.0,0.0,0.0,0.0,0.0,0.0,0.0,0.0,0.0,0.0,0.0,0.0,0.0,0.0,0.0,0.0,0.0,0.0,0.0,0.0,0.0,0.0,0.0,0.0,0.0,0.0,0.0,0.0,0.0,0.0,0.0,0.0,0.0,0.0,0.0,0.0,0.0,0.0,0.0,0.0,0.0,0.0,0.0,0.0,0.0,0.0,0.0,0.0,0.0,0.0,0.0,0.0,0.0,0.0,0.0,0.0,0.0,0.0,0.0,0.0,0.0,0.0,0.0,0.0,0.0,0.0,0.0,0.0,0.0,0.0,0.0,0.0,0.0,-1.4879,-1.5088,-1.5257,0.0,0.0,0.0,0.0,0.0,0.0,0.0,0.0,0.0,0.0,0.0,0.0,0.0,0.0,0.0,0.0,0.0,0.0,0.0,0.0,0.0,0.0,0.0,0.0,0.0,0.0,0.0,0.0,0.0,0.0,0.0,0.0,0.0,0.0,0.0,0.0,0.0,0.0,0.0,0.0,0.0,0.0,0.0,0.0,0.0,0.0,0.0,0.0,0.0,0.0,0.0,0.0,0.0,0.0,0.0,0.0,0.0,0.0,0.0,0.0,0.0,0.0,0.0,0.0,0.0,0.0,0.0,0.0,0.0,0.0,0.0,0.0,0.0,0.0,0.0,0.0,0.0,0.0,0.0,0.0,0.0,0.0,0.0,0.0,0.0,0.0,0.0,0.0,0.0,0.0,0.0,0.0,0.0,0.0,0.0,0.0,0.0,0.0,0.0,0.0,0.0,0.0,0.0,0.0,0.0,0.0,0.0,0.0,0.0,0.0,-1.486,-1.4786,-1.5504,0.0,-1.6881,0.0,0.0,0.0,0.0,0.0,0.0,0.0,0.0,0.0,0.0,0.0,0.0,0.0,0.0,0.0,0.0,0.0,0.0,0.0,0.0,0.0,0.0,0.0,0.0,0.0,0.0,0.0,0.0,0.0,0.0,0.0,0.0,0.0,0.0,0.0,0.0,0.0,0.0,0.0,0.0,0.0,0.0,0.0,0.0,0.0,0.0,0.0,0.0,0.0,0.0,0.0,0.0,0.0,0.0,0.0,0.0,0.0,0.0,0.0,0.0,0.0,0.0,0.0,0.0,0.0,0.0,0.0,0.0,0.0,0.0,0.0,0.0,0.0,0.0,0.0,0.0,0.0,0.0,0.0,0.0,0.0,0.0,0.0,0.0,0.0,0.0,0.0,0.0,0.0,0.0,0.0,0.0,0.0,0.0,0.0,0.0,0.0,0.0,0.0,0.0,0.0,0.0,0.0,0.0,0.0,0.0,0.0,0.0,0.0,0.0,-1.4896,-1.4869,-1.5132,-1.5451,0.0,0.0,0.0,0.0,0.0,0.0,0.0,0.0,0.0,0.0,0.0,0.0,0.0,0.0,0.0,0.0,0.0,0.0,0.0,0.0,0.0,0.0,0.0,0.0,0.0,0.0,0.0,0.0,0.0,0.0,0.0,0.0,0.0,0.0,0.0,0.0,0.0,0.0,0.0,0.0,0.0,0.0,0.0,0.0,0.0,0.0,0.0,0.0,0.0,0.0,0.0,0.0,0.0,0.0,0.0,0.0,0.0,0.0,0.0,0.0,0.0,0.0,0.0,0.0,0.0,0.0,0.0,0.0,0.0,0.0,0.0,0.0,0.0,0.0,0.0,0.0,0.0,0.0,0.0,0.0,0.0,0.0,0.0,0.0,0.0,0.0,0.0,0.0,0.0,0.0,0.0,0.0,0.0,0.0,0.0,0.0,0.0,0.0,0.0,0.0,0.0,0.0,0.0,0.0,0.0,0.0,0.0,0.0,0.0,0.0,-1.5938,-1.5636,-1.562,-1.5565,-1.5508,-1.5479,0.0,0.0,0.0,0.0,0.0,0.0,0.0,0.0,0.0,0.0,0.0,0.0,0.0,0.0,0.0,0.0,0.0,0.0,0.0,0.0,0.0,0.0,0.0,0.0,0.0,0.0,0.0,0.0,0.0,0.0,0.0,0.0,0.0,0.0,0.0,0.0,0.0,0.0,0.0,0.0,0.0,0.0,0.0,0.0,0.0,0.0,0.0,0.0,0.0,0.0,0.0,0.0,0.0,0.0,0.0,0.0,0.0,0.0,0.0,0.0,0.0,0.0,0.0,0.0,0.0,0.0,0.0,0.0,0.0,0.0,0.0,0.0,0.0,0.0,0.0,0.0,0.0,0.0,0.0,0.0,0.0,0.0,0.0,0.0,0.0,0.0,0.0,0.0,0.0,0.0,0.0,0.0,0.0,0.0,0.0,0.0,0.0,0.0,0.0,0.0,0.0,0.0,0.0,0.0,0.0,0.0,0.0,0.0,-1.7573,-1.7461,-1.743,-1.7359,-1.7321,-1.7253,0.0,0.0,0.0,0.0,0.0,0.0,0.0,0.0,0.0,0.0,0.0,0.0,0.0,0.0,0.0,0.0,0.0,0.0,0.0,0.0,0.0,0.0,0.0,0.0,0.0,0.0,0.0,0.0,0.0,0.0,0.0,0.0,0.0,0.0,0.0,0.0,0.0,0.0,0.0,0.0,0.0,0.0,0.0,0.0,0.0,0.0,0.0,0.0,0.0,0.0,0.0,0.0,0.0,0.0,0.0,0.0,0.0,0.0,0.0,0.0,0.0,0.0,0.0,0.0,0.0,0.0,0.0,0.0,0.0,0.0,0.0,0.0,0.0,0.0,0.0,0.0,0.0,0.0,0.0,0.0,0.0,0.0,0.0,0.0,0.0,0.0,0.0,0.0,0.0,0.0,0.0,0.0,0.0,0.0,0.0,0.0,0.0,0.0,0.0,0.0,0.0,0.0,0.0,0.0,0.0,0.0,0.0,0.0,0.0,-1.842,-1.7377,-1.7066,-1.7526,-1.7018,-1.6952,0.0,0.0,0.0,0.0,0.0,0.0,0.0,0.0,0.0,0.0,0.0,0.0,0.0,0.0,0.0,0.0,0.0,0.0,0.0,0.0,0.0,0.0,0.0,0.0,0.0,0.0,0.0,0.0,0.0,0.0,0.0,0.0,0.0,0.0,0.0,0.0,0.0,0.0,0.0,0.0,0.0,0.0,0.0,0.0,0.0,0.0,0.0,0.0,0.0,0.0,0.0,0.0,0.0,0.0,0.0,0.0,0.0,0.0,0.0,0.0,0.0,0.0,0.0,0.0,0.0,0.0,0.0,0.0,0.0,0.0,0.0,0.0,0.0,0.0,0.0,0.0,0.0,0.0,0.0,0.0,0.0,0.0,0.0,0.0,0.0,0.0,0.0,0.0,0.0,0.0,0.0,0.0,0.0,0.0,0.0,0.0,0.0,0.0,0.0,0.0,0.0,0.0,0.0,0.0,0.0,0.0,0.0,0.0,0.0,-1.9271,0.0,-1.76,-1.8351,-1.7852,-1.7814,0.0,0.0,0.0,0.0,0.0,0.0,0.0,0.0,0.0,0.0,0.0,0.0,0.0,0.0,0.0,0.0,0.0,0.0,0.0,0.0,0.0,0.0,0.0,0.0,0.0,0.0,0.0,0.0,0.0,0.0,0.0,0.0,0.0,0.0,0.0,0.0,0.0,0.0,0.0,0.0,0.0,0.0,0.0,0.0,0.0,0.0,0.0,0.0,0.0,0.0,0.0,0.0,0.0,0.0,0.0,0.0,0.0,0.0,0.0,0.0,0.0,0.0,0.0,0.0,0.0,0.0,0.0,0.0,0.0,0.0,0.0,0.0,0.0,0.0,0.0,0.0,0.0,0.0,0.0,0.0,0.0,0.0,0.0,0.0,0.0,0.0,0.0,0.0,0.0,0.0,0.0,0.0,0.0,0.0,0.0,0.0,0.0,0.0,0.0,0.0,0.0,0.0,0.0,0.0,0.0,0.0,0.0,0.0,-2.0159,-2.015,-1.9306,-1.9173,-2.005,-1.9972,-1.9982,0.0,0.0,0.0,0.0,0.0,0.0,0.0,0.0,0.0,0.0,0.0,0.0,0.0,0.0,0.0,0.0,0.0,0.0,0.0,0.0,0.0,0.0,0.0,0.0,0.0,0.0,0.0,0.0,0.0,0.0,0.0,0.0,0.0,0.0,0.0,0.0,0.0,0.0,0.0,0.0,0.0,0.0,0.0,0.0,0.0,0.0,0.0,0.0,0.0,0.0,0.0,0.0,0.0,0.0,0.0,0.0,0.0,0.0,0.0,0.0,0.0,0.0,0.0,0.0,0.0,0.0,0.0,0.0,0.0,0.0,0.0,0.0,0.0,0.0,0.0,0.0,0.0,0.0,0.0,0.0,0.0,0.0,0.0,0.0,0.0,0.0,0.0,0.0,0.0,0.0,0.0,0.0,0.0,0.0,0.0,0.0,0.0,0.0,0.0,0.0,0.0,0.0,0.0,0.0,0.0,0.0,0.0,0.0,0.0,-2.0156,-1.935,-1.9304,-2.0106,-1.9637,-1.9607,0.0,0.0,0.0,0.0,0.0,0.0,0.0,0.0,0.0,0.0,0.0,0.0,0.0,0.0,0.0,0.0,0.0,0.0,0.0,0.0,0.0,0.0,0.0,0.0,0.0,0.0,0.0,0.0,0.0,0.0,0.0,0.0,0.0,0.0,0.0,0.0,0.0,0.0,0.0,0.0,0.0,0.0,0.0,0.0,0.0,0.0,0.0,0.0,0.0,0.0,0.0,0.0,0.0,0.0,0.0,0.0,0.0,0.0,0.0,0.0,0.0,0.0,0.0,0.0,0.0,0.0,0.0,0.0,0.0,0.0,0.0,0.0,0.0,0.0,0.0,0.0,0.0,0.0,0.0,0.0,0.0,0.0,0.0,0.0,0.0,0.0,0.0,0.0,0.0,0.0,0.0,0.0,0.0,0.0,0.0,0.0,0.0,0.0,0.0,0.0,0.0,0.0,0.0,0.0,0.0,0.0,0.0,0.0,0.0,-2.0639,-1.955,-1.9334,-2.0188,-1.9709,-1.9679,-2.0175,0.0,0.0,0.0,0.0,0.0,0.0,0.0,0.0,0.0,0.0,0.0,0.0,0.0,0.0,0.0,0.0,0.0,0.0,0.0,0.0,0.0,0.0,0.0,0.0,0.0,0.0,0.0,0.0,0.0,0.0,0.0,0.0,0.0,0.0,0.0,0.0,0.0,0.0,0.0,0.0,0.0,0.0,0.0,0.0,0.0,0.0,0.0,0.0,0.0,0.0,0.0,0.0,0.0,0.0,0.0,0.0,0.0,0.0,0.0,0.0,0.0,0.0,0.0,0.0,0.0,0.0,0.0,0.0,0.0,0.0,0.0,0.0,0.0,0.0,0.0,0.0,0.0,0.0,0.0,0.0,0.0,0.0,0.0,0.0,0.0,0.0,0.0,0.0,0.0,0.0,0.0,0.0,0.0,0.0,0.0,0.0,0.0,0.0,0.0,0.0,0.0,0.0,0.0,0.0,0.0,0.0,0.0,0.0,-2.159,-2.0048,-1.9584,-2.028,-2.0277,-2.0257,0.0,0.0,0.0,0.0,0.0,0.0,0.0,0.0,0.0,0.0,0.0,0.0,0.0,0.0,0.0,0.0,0.0,0.0,0.0,0.0,0.0,0.0,0.0,0.0,0.0,0.0,0.0,0.0,0.0,0.0,0.0,0.0,0.0,0.0,0.0,0.0,0.0,0.0,0.0,0.0,0.0,0.0,0.0,0.0,0.0,0.0,0.0,0.0,0.0,0.0,0.0,0.0,0.0,0.0,0.0,0.0,0.0,0.0,0.0,0.0,0.0,0.0,0.0,0.0,0.0,0.0,0.0,0.0,0.0,0.0,0.0,0.0,0.0,0.0,0.0,0.0,0.0,0.0,0.0,0.0,0.0,0.0,0.0,0.0,0.0,0.0,0.0,0.0,0.0,0.0,0.0,0.0,0.0,0.0,0.0,0.0,0.0,0.0,0.0,0.0,0.0,0.0,0.0,0.0,0.0,0.0,0.0,0.0,0.0,-2.1591,-2.1784,-2.1666,-2.127,-2.1239,-2.093,0.0,0.0,0.0,0.0,0.0,0.0,0.0,0.0,0.0,0.0,0.0,0.0,0.0,0.0,0.0,0.0,0.0,0.0,0.0,0.0,0.0,0.0,0.0,0.0,0.0,0.0,0.0,0.0,0.0,0.0,0.0,0.0,0.0,0.0,0.0,0.0,0.0,0.0,0.0,0.0,0.0,0.0,0.0,0.0,0.0,0.0,0.0,0.0,0.0,0.0,0.0,0.0,0.0,0.0,0.0,0.0,0.0,0.0,0.0,0.0,0.0,0.0,0.0,0.0,0.0,0.0,0.0,0.0,0.0,0.0,0.0,0.0,0.0,0.0,0.0,0.0,0.0,0.0,0.0,0.0,0.0,0.0,0.0,0.0,0.0,0.0,0.0,0.0,0.0,0.0,0.0,0.0,0.0,0.0,0.0,0.0,0.0,0.0,0.0,0.0,0.0,0.0,0.0,0.0,0.0,0.0,0.0,0.0,-2.1876,-2.2171,-2.303,-2.325,-2.2733,-2.2351,-2.1564,0.0,0.0,0.0,0.0,0.0,0.0,0.0,0.0,0.0,0.0,0.0,0.0,0.0,0.0,0.0,0.0,0.0,0.0,0.0,0.0,0.0,0.0,0.0,0.0,0.0,0.0,0.0,0.0,0.0,0.0,0.0,0.0,0.0,0.0,0.0,0.0,0.0,0.0,0.0,0.0,0.0,0.0,0.0,0.0,0.0,0.0,0.0,0.0,0.0,0.0,0.0,0.0,0.0,0.0,0.0,0.0,0.0,0.0,0.0,0.0,0.0,0.0,0.0,0.0,0.0,0.0,0.0,0.0,0.0,0.0,0.0,0.0,0.0,0.0,0.0,0.0,0.0,0.0,0.0,0.0,0.0,0.0,0.0,0.0,0.0,0.0,0.0,0.0,0.0,0.0,0.0,0.0,0.0,0.0,0.0,0.0,0.0,0.0,0.0,0.0,0.0,0.0,0.0,0.0,0.0,0.0,0.0,0.0,-2.2289,-2.2998,-2.3964,-2.4418,-2.4271,-2.3404,-2.2139,0.0,0.0,0.0,0.0,0.0,0.0,0.0,0.0,0.0,0.0,0.0,0.0,0.0,0.0,0.0,0.0,0.0,0.0,0.0,0.0,0.0,0.0,0.0,0.0,0.0,0.0,0.0,0.0,0.0,0.0,0.0,0.0,0.0,0.0,0.0,0.0,0.0,0.0,0.0,0.0,0.0,0.0,0.0,0.0,0.0,0.0,0.0,0.0,0.0,0.0,0.0,0.0,0.0,0.0,0.0,0.0,0.0,0.0,0.0,0.0,0.0,0.0,0.0,0.0,0.0,0.0,0.0,0.0,0.0,0.0,0.0,0.0,0.0,0.0,0.0,0.0,0.0,0.0,0.0,0.0,0.0,0.0,0.0,0.0,0.0,0.0,0.0,0.0,0.0,0.0,0.0,0.0,0.0,0.0,0.0,0.0,0.0,0.0,0.0,0.0,0.0,0.0,0.0,0.0,0.0,0.0,0.0,0.0,-2.2864,-2.3019,-2.4576,-2.504,-2.4321,-2.3457,-2.2469,0.0,0.0,0.0,0.0,0.0,0.0,0.0,0.0,0.0,0.0,0.0,0.0,0.0,0.0,0.0,0.0,0.0,0.0,0.0,0.0,0.0,0.0,0.0,0.0,0.0,0.0,0.0,0.0,0.0,0.0,0.0,0.0,0.0,0.0,0.0,0.0,0.0,0.0,0.0,0.0,0.0,0.0,0.0,0.0,0.0,0.0,0.0,0.0,-2.0383,0.0,0.0,0.0,0.0,0.0,0.0,0.0,0.0,0.0,0.0,0.0,0.0,0.0,0.0,0.0,0.0,0.0,0.0,0.0,0.0,0.0,0.0,0.0,0.0,0.0,0.0,0.0,0.0,0.0,0.0,0.0,0.0,0.0,0.0,0.0,0.0,0.0,0.0,0.0,0.0,0.0,0.0,0.0,0.0,0.0,0.0,0.0,0.0,0.0,0.0,0.0,0.0,0.0,0.0,0.0,0.0,0.0,0.0,0.0,-2.3695,-2.3691,-2.5004,-2.547,-2.4946,-2.3708,-2.2629,0.0,0.0,0.0,0.0,0.0,0.0,0.0,0.0,0.0,0.0,0.0,0.0,0.0,0.0,0.0,0.0,0.0,0.0,0.0,0.0,0.0,0.0,0.0,0.0,0.0,0.0,0.0,0.0,0.0,0.0,0.0,0.0,0.0,0.0,0.0,0.0,0.0,0.0,0.0,0.0,0.0,0.0,0.0,0.0,0.0,0.0,0.0,0.0,0.0,0.0,0.0,0.0,0.0,0.0,0.0,0.0,0.0,0.0,0.0,0.0,0.0,0.0,0.0,0.0,0.0,0.0,0.0,0.0,0.0,0.0,0.0,0.0,0.0,0.0,0.0,0.0,0.0,0.0,0.0,0.0,0.0,0.0,0.0,0.0,0.0,0.0,0.0,0.0,0.0,0.0,0.0,0.0,0.0,0.0,0.0,0.0,0.0,0.0,0.0,0.0,0.0,0.0,0.0,0.0,0.0,0.0,0.0,-2.3948,-2.4408,-2.4433,-2.5244,-2.5687,-2.566,-2.4,-2.2793,-2.2122,0.0,0.0,0.0,0.0,0.0,0.0,0.0,0.0,0.0,0.0,0.0,0.0,0.0,0.0,0.0,0.0,0.0,0.0,0.0,0.0,0.0,0.0,0.0,0.0,0.0,0.0,0.0,0.0,0.0,0.0,0.0,0.0,0.0,0.0,0.0,0.0,0.0,0.0,-2.0503,-2.0613,0.0,0.0,0.0,0.0,0.0,0.0,0.0,0.0,-2.1152,0.0,0.0,0.0,0.0,0.0,0.0,0.0,0.0,0.0,0.0,0.0,0.0,0.0,0.0,0.0,0.0,0.0,0.0,0.0,0.0,0.0,0.0,0.0,0.0,0.0,0.0,0.0,0.0,0.0,0.0,0.0,0.0,0.0,0.0,0.0,0.0,0.0,0.0,0.0,0.0,0.0,0.0,0.0,0.0,0.0,0.0,0.0,0.0,0.0,0.0,0.0,0.0,0.0,0.0,0.0,0.0,-2.3104,-2.3954,-2.4422,-2.4414,-2.5253,-2.5702,-2.5661,-2.3998,-2.3357,-2.3748,0.0,0.0,0.0,0.0,0.0,0.0,0.0,0.0,0.0,0.0,0.0,0.0,0.0,0.0,0.0,0.0,0.0,0.0,0.0,0.0,0.0,0.0,0.0,0.0,0.0,0.0,0.0,0.0,0.0,0.0,0.0,0.0,0.0,0.0,0.0,0.0,0.0,0.0,0.0,-2.107,-2.151,0.0,0.0,0.0,0.0,0.0,0.0,0.0,0.0,-2.2487,0.0,0.0,0.0,0.0,0.0,0.0,0.0,0.0,0.0,0.0,0.0,0.0,0.0,0.0,0.0,0.0,0.0,0.0,0.0,0.0,0.0,0.0,0.0,0.0,0.0,0.0,0.0,0.0,0.0,0.0,0.0,0.0,0.0,0.0,0.0,0.0,0.0,0.0,0.0,0.0,0.0,0.0,0.0,0.0,0.0,0.0,0.0,0.0,0.0,0.0,0.0,0.0,0.0,0.0,0.0,-2.4459,-2.4865,-2.5063,-2.5078,-2.5488,-2.5703,-2.5663,-2.4014,-2.3483,0.0,0.0,0.0,0.0,0.0,0.0,0.0,0.0,0.0,0.0,0.0,0.0,0.0,0.0,0.0,0.0,0.0,0.0,0.0,0.0,0.0,0.0,0.0,0.0,0.0,0.0,0.0,0.0,0.0,0.0,0.0,0.0,0.0,0.0,0.0,0.0,0.0,0.0,0.0,0.0,-2.1457,-2.1867,-2.2299,0.0,0.0,0.0,0.0,0.0,0.0,-2.2979,-2.3108,0.0,0.0,0.0,0.0,0.0,0.0,0.0,0.0,0.0,0.0,0.0,0.0,0.0,0.0,0.0,0.0,0.0,0.0,0.0,0.0,0.0,0.0,0.0,0.0,0.0,0.0,0.0,0.0,0.0,0.0,0.0,0.0,0.0,0.0,0.0,0.0,0.0,0.0,0.0,0.0,0.0,0.0,0.0,0.0,0.0,0.0,0.0,0.0,0.0,0.0,0.0,0.0,0.0,0.0,0.0,-2.5687,-2.6068,-2.6232,-2.6229,-2.6055,-2.5977,-2.5918,-2.4292,-2.3771,0.0,0.0,0.0,0.0,0.0,0.0,0.0,0.0,0.0,0.0,0.0,0.0,0.0,0.0,0.0,0.0,0.0,0.0,0.0,0.0,0.0,0.0,0.0,0.0,0.0,0.0,0.0,0.0,0.0,0.0,0.0,0.0,0.0,0.0,0.0,0.0,0.0,0.0,0.0,0.0,0.0,-2.2449,-2.3132,-2.3256,0.0,0.0,0.0,0.0,-2.4154,-2.3954,0.0,0.0,0.0,0.0,0.0,0.0,0.0,0.0,0.0,0.0,0.0,0.0,0.0,0.0,0.0,0.0,0.0,0.0,0.0,0.0,0.0,0.0,0.0,0.0,0.0,0.0,0.0,0.0,0.0,0.0,0.0,0.0,0.0,0.0,0.0,0.0,0.0,0.0,0.0,0.0,0.0,0.0,0.0,0.0,0.0,0.0,0.0,0.0,0.0,0.0,0.0,0.0,0.0,0.0,0.0,0.0,-2.5759,-2.7215,-2.8008,-2.7957,-2.7264,-2.6855,-2.6836,-2.517,-2.4668,0.0,0.0,0.0,0.0,0.0,0.0,0.0,0.0,0.0,0.0,0.0,0.0,0.0,0.0,0.0,0.0,0.0,0.0,0.0,0.0,0.0,0.0,0.0,0.0,0.0,0.0,0.0,0.0,0.0,0.0,0.0,0.0,0.0,0.0,0.0,0.0,0.0,0.0,0.0,0.0,0.0,-2.3934,-2.4057,-2.4082,-2.4048,0.0,0.0,0.0,-2.4119,-2.5327,0.0,0.0,0.0,0.0,0.0,0.0,0.0,0.0,0.0,0.0,0.0,0.0,0.0,0.0,0.0,0.0,0.0,0.0,0.0,0.0,0.0,0.0,0.0,0.0,0.0,0.0,0.0,0.0,0.0,0.0,0.0,0.0,0.0,0.0,0.0,0.0,0.0,0.0,0.0,0.0,0.0,0.0,0.0,0.0,0.0,0.0,0.0,0.0,0.0,0.0,0.0,0.0,0.0,0.0,0.0,-2.5957,-2.6459,-2.7666,-2.8283,-2.8278,-2.7437,-2.7009,-2.7012,-2.5306,-2.4805,0.0,0.0,0.0,0.0,0.0,0.0,0.0,0.0,0.0,0.0,0.0,0.0,0.0,0.0,0.0,0.0,0.0,0.0,0.0,0.0,0.0,0.0,0.0,0.0,0.0,0.0,0.0,0.0,0.0,0.0,0.0,0.0,0.0,0.0,0.0,0.0,0.0,0.0,0.0,0.0,0.0,0.0,-2.5541,-2.5263,0.0,0.0,0.0,-2.5666,-2.5584,0.0,0.0,0.0,0.0,0.0,0.0,0.0,0.0,0.0,0.0,0.0,0.0,0.0,0.0,0.0,0.0,0.0,0.0,0.0,0.0,0.0,0.0,0.0,0.0,0.0,0.0,0.0,0.0,0.0,0.0,0.0,0.0,0.0,0.0,0.0,0.0,0.0,0.0,0.0,0.0,0.0,0.0,0.0,0.0,0.0,0.0,0.0,0.0,0.0,0.0,0.0,0.0,0.0,0.0,0.0,0.0,0.0,-2.6999,-2.8291,-2.8961,-2.8926,-2.8083,-2.7553,-2.7304,-2.5852,0.0,0.0,0.0,0.0,0.0,0.0,0.0,0.0,0.0,0.0,0.0,0.0,0.0,0.0,0.0,0.0,0.0,0.0,0.0,0.0,0.0,0.0,0.0,0.0,0.0,0.0,0.0,-2.0814,0.0,0.0,0.0,0.0,0.0,0.0,0.0,0.0,0.0,0.0,0.0,0.0,0.0,0.0,-2.5316,-2.6614,-2.6413,-2.6339,0.0,0.0,-2.7094,-2.7031,-2.7746,-2.7948,0.0,0.0,0.0,0.0,0.0,0.0,0.0,0.0,0.0,0.0,0.0,0.0,0.0,0.0,0.0,0.0,0.0,0.0,0.0,0.0,0.0,0.0,0.0,0.0,0.0,0.0,0.0,0.0,0.0,0.0,0.0,0.0,0.0,0.0,0.0,0.0,0.0,0.0,0.0,0.0,0.0,0.0,0.0,0.0,0.0,0.0,0.0,0.0,0.0,0.0,0.0,0.0,0.0,0.0,0.0,-2.708,-2.9452,-3.0684,-3.0703,-2.9883,-2.9041,-2.8231,-2.731,-2.6839,0.0,0.0,0.0,0.0,0.0,0.0,0.0,0.0,0.0,0.0,0.0,0.0,0.0,0.0,0.0,0.0,0.0,0.0,0.0,0.0,0.0,0.0,0.0,0.0,0.0,0.0,0.0,0.0,0.0,0.0,0.0,0.0,0.0,0.0,0.0,0.0,0.0,0.0,0.0,0.0,0.0,-2.6675,-2.6791,-2.7381,-2.786,0.0,0.0,-2.792,-2.7893,-2.8626,-2.8644,-2.6975,0.0,0.0,0.0,0.0,0.0,0.0,0.0,0.0,0.0,0.0,0.0,0.0,0.0,0.0,0.0,0.0,0.0,0.0,0.0,0.0,0.0,0.0,0.0,0.0,0.0,0.0,0.0,0.0,0.0,0.0,0.0,0.0,0.0,0.0,0.0,0.0,0.0,0.0,0.0,0.0,0.0,0.0,0.0,0.0,0.0,0.0,0.0,0.0,0.0,0.0,0.0,0.0,0.0,-2.86,-2.8619,-3.0116,-3.0918,-3.0879,-3.0039,-2.9178,-2.8307,-2.7979,-2.7549,0.0,0.0,0.0,0.0,0.0,0.0,0.0,0.0,0.0,0.0,0.0,0.0,0.0,0.0,0.0,0.0,0.0,0.0,0.0,0.0,0.0,0.0,0.0,0.0,0.0,0.0,0.0,0.0,-2.3143,-2.3547,-2.4077,0.0,0.0,0.0,0.0,0.0,0.0,0.0,0.0,0.0,0.0,-2.778,-2.826,-2.8136,0.0,0.0,-2.8797,-2.8797,-2.879,-2.9525,-2.9689,-2.85,-2.8588,0.0,0.0,0.0,0.0,0.0,0.0,0.0,0.0,0.0,0.0,0.0,0.0,0.0,0.0,0.0,0.0,0.0,0.0,0.0,0.0,0.0,0.0,0.0,0.0,0.0,0.0,0.0,0.0,0.0,0.0,0.0,0.0,0.0,0.0,0.0,0.0,0.0,0.0,0.0,0.0,0.0,0.0,0.0,0.0,0.0,0.0,0.0,0.0,0.0,0.0,0.0,0.0,-2.9598,-2.9608,-3.0678,-3.1249,-3.1269,-3.0664,-2.9958,-2.9127,-2.882,-2.841,0.0,0.0,0.0,0.0,0.0,0.0,0.0,0.0,0.0,0.0,0.0,0.0,0.0,0.0,0.0,0.0,0.0,0.0,0.0,0.0,0.0,0.0,0.0,0.0,0.0,0.0,0.0,0.0,-2.4389,-2.5124,-2.6257,0.0,0.0,0.0,0.0,0.0,0.0,0.0,0.0,0.0,0.0,-2.8664,-2.9229,-2.9007,-2.8991,-2.961,-2.9687,-2.9687,-2.9698,-3.0192,-3.0288,-2.9437,0.0,0.0,0.0,0.0,0.0,0.0,0.0,0.0,0.0,0.0,0.0,0.0,0.0,0.0,0.0,0.0,0.0,0.0,0.0,0.0,0.0,0.0,0.0,0.0,0.0,0.0,0.0,0.0,0.0,0.0,0.0,0.0,0.0,0.0,0.0,0.0,0.0,0.0,0.0,0.0,0.0,0.0,0.0,0.0,0.0,0.0,0.0,0.0,0.0,0.0,0.0,0.0,0.0,-2.964,-2.9659,-3.1248,-3.2055,-3.2064,-3.2046,-3.1595,-3.0788,-3.0027,-2.9554,-2.953,0.0,0.0,0.0,0.0,0.0,0.0,0.0,0.0,0.0,0.0,0.0,0.0,0.0,0.0,0.0,0.0,0.0,0.0,0.0,0.0,0.0,0.0,0.0,0.0,0.0,0.0,-2.3361,-2.462,-2.6266,0.0,0.0,0.0,0.0,0.0,0.0,0.0,0.0,0.0,0.0,-2.8772,-2.9306,-2.9419,-3.0044,-3.0491,-3.0537,-3.0558,-3.0559,-3.0578,-3.0598,-3.0308,0.0,0.0,0.0,0.0,0.0,0.0,0.0,0.0,0.0,0.0,0.0,0.0,0.0,0.0,0.0,0.0,0.0,0.0,0.0,0.0,0.0,0.0,0.0,0.0,0.0,0.0,0.0,0.0,-3.25,0.0,0.0,0.0,0.0,0.0,0.0,0.0,0.0,0.0,0.0,0.0,-3.2517,-3.2229,0.0,0.0,0.0,0.0,0.0,0.0,0.0,0.0,0.0,0.0,0.0,0.0,-3.1541,-3.2087,-3.2109,-3.2112,-3.2096,-3.1585,-3.0901,-3.0081,-3.0323,-3.0464,-3.0466,0.0,0.0,0.0,0.0,0.0,0.0,0.0,0.0,0.0,0.0,0.0,0.0,0.0,0.0,0.0,0.0,0.0,0.0,0.0,0.0,0.0,0.0,0.0,0.0,0.0,-2.6816,0.0,0.0,0.0,0.0,0.0,0.0,0.0,0.0,0.0,0.0,0.0,-2.8967,-2.8965,-2.9695,-3.0211,-3.0203,-3.043,-3.0606,0.0,0.0,0.0,0.0,0.0,0.0,0.0,0.0,0.0,0.0,0.0,0.0,0.0,0.0,-3.0849,-2.9166,-2.9349,-2.9745,-2.9727,0.0,0.0,0.0,0.0,0.0,0.0,0.0,0.0,0.0,0.0,0.0,0.0,0.0,0.0,0.0,0.0,-3.3847,0.0,0.0,0.0,0.0,0.0,0.0,0.0,0.0,-3.4485,-3.4764,-3.4727,-3.3861,-3.3757,0.0,-3.3119,-3.2277,0.0,0.0,0.0,0.0,0.0,0.0,0.0,0.0,-3.2834,-3.3361,-3.3151,-3.286,-3.2545,-3.2051,-3.1346,-3.0509,-3.0751,-3.0914,-3.0918,-3.0914,-3.0911,0.0,0.0,0.0,0.0,0.0,0.0,0.0,0.0,0.0,0.0,0.0,0.0,0.0,0.0,0.0,0.0,0.0,0.0,0.0,0.0,0.0,0.0,0.0,-2.8895,0.0,0.0,0.0,0.0,0.0,0.0,0.0,0.0,0.0,-3.005,-3.0399,-3.0715,-3.0707,-3.1196,-3.1549,-3.151,0.0,0.0,0.0,0.0,0.0,0.0,0.0,-3.2454,-3.3005,-3.3121,-3.3111,-3.3111,-3.3109,-3.3079,-3.3087,0.0,0.0,-3.0897,-3.1081,-3.1468,-3.1448,-3.1468,-3.1661,-3.2193,-3.2328,-3.2501,0.0,0.0,0.0,0.0,0.0,0.0,0.0,0.0,-3.4864,-3.4878,0.0,-3.4881,0.0,0.0,0.0,0.0,0.0,0.0,0.0,0.0,-3.654,-3.7341,-3.7253,-3.6444,-3.607,-3.5965,-3.4371,-3.3556,-3.3537,-3.3506,0.0,0.0,0.0,0.0,0.0,0.0,-3.3459,-3.3537,-3.4251,-3.4273,-3.3471,-3.3385,-3.2988,-3.2143,-3.1387,-3.1026,-3.0996,-3.1008,-3.0948,-3.0957,-3.1653,0.0,0.0,0.0,0.0,0.0,0.0,0.0,0.0,0.0,0.0,0.0,0.0,0.0,0.0,0.0,0.0,0.0,0.0,0.0,0.0,-2.9114,0.0,0.0,0.0,0.0,0.0,0.0,0.0,0.0,0.0,0.0,-3.3381,-3.3227,-3.3211,-3.3208,0.0,0.0,0.0,0.0,-3.3267,-3.3276,-3.3267,-3.3258,-3.3247,-3.3237,-3.3256,-3.3314,0.0,0.0,-3.3205,-3.3194,-3.3203,-3.3122,-3.3169,-3.3072,-3.3072,-3.2979,-3.3001,-3.304,-3.2993,-3.3081,-3.3132,-3.3161,-3.319,-3.9474,0.0,0.0,0.0,0.0,-3.7474,-3.7477,-3.7482,-3.7477,-3.7477,-3.7477,-3.7494,0.0,0.0,0.0,0.0,0.0,0.0,-3.7475,-3.7519,-3.7995,-3.8235,-3.8202,-3.7969,-3.7851,-3.7809,-3.6726,-3.6172,-3.6155,-3.5545,-3.4622,-3.3431,0.0,0.0,0.0,0.0,-3.4632,-3.5187,-3.49,-3.4567,-3.4339,-3.371,-3.3287,-3.3025,-3.281,-3.2673,-3.2666,-3.2125,-3.1796,-3.1758,-3.1425,0.0,0.0,0.0,0.0,0.0,0.0,0.0,0.0,0.0,0.0,0.0,0.0,0.0,0.0,0.0,0.0,0.0,0.0,0.0,-3.184,-3.2063,-3.2414,0.0,0.0,0.0,0.0,0.0,0.0,0.0,0.0,0.0,-3.5893,-3.44,-3.3491,0.0,0.0,-3.4345,-3.4967,-3.5009,-3.4982,-3.4972,0.0,0.0,0.0,-3.582,-3.6033,-3.6651,-3.6226,-3.5646,-3.5055,-3.4897,-3.4886,-3.4855,-3.4855,-3.4863,-3.4718,-3.3805,-3.3134,-3.3098,-3.3117,-3.3313,-3.3886,-3.4031,-3.4216,-4.1983,-4.0496,-3.9839,-3.9351,-3.9078,-3.9078,-3.9078,-3.9078,-3.9117,-3.9117,-3.9117,-3.9108,-3.8921,-3.8613,-3.861,0.0,0.0,0.0,-3.912,-3.9133,-3.9465,-3.9645,-3.9609,-3.9277,-3.9101,-3.9077,-3.8227,-3.7809,-3.7795,-3.7282,-3.6501,-3.5483,0.0,0.0,-3.574,-3.6072,-3.6506,-3.6981,-3.6502,-3.6073,-3.5714,-3.4552,-3.3754,-3.3415,-3.3379,-3.3378,-3.3392,-3.2945,-3.2635,-3.2598,-3.25,-3.2616,0.0,0.0,0.0,0.0,0.0,0.0,0.0,0.0,0.0,0.0,0.0,-3.0551,0.0,0.0,0.0,0.0,-3.3049,-3.3351,-3.329,-3.3615,0.0,0.0,0.0,0.0,0.0,0.0,0.0,-3.6059,-3.6521,-3.7028,-3.7508,-3.6284,-3.5519,-3.5996,-3.6026,-3.62,-3.6714,0.0,-3.6696,-3.6696,-3.6684,-3.6856,-3.7348,-3.7406,-3.7599,-3.8121,-3.7793,-3.7278,-3.6772,-3.6624,-3.6581,-3.6556,-3.6543,-3.653,-3.651,-3.5643,-3.4744,-3.4214,-3.4091,-3.4295,-3.4833,-3.4911,-3.5085,-4.3918,-4.3762,-4.2181,-4.0971,-4.0132,-4.0112,-4.0073,-4.0015,-4.0151,-4.0171,-4.0096,-4.0171,-3.9717,-3.8906,-3.8828,0.0,0.0,-3.9744,-4.0098,-4.0137,-4.0937,-4.125,-4.1152,-4.0371,-3.9996,-3.9959,-3.9117,-3.8707,-3.8707,-3.8609,-3.8609,-3.859,-3.789,-3.7477,-3.7438,-3.8199,-3.8612,-3.8595,-3.8572,-3.8203,-3.7402,-3.5831,-3.4627,-3.3868,-3.3807,-3.3848,-3.3828,-3.3685,-3.3605,-3.3633,-3.4238,-3.4629,-3.4707,0.0,0.0,0.0,0.0,0.0,0.0,0.0,0.0,0.0,0.0,0.0,0.0,0.0,0.0,0.0,-3.3515,0.0,-3.3602,-3.4393,0.0,0.0,0.0,-3.7274,-3.7221,-3.7914,-3.8388,-3.839,0.0,0.0,0.0,0.0,-3.8596,-3.8596,-3.8481,-3.8413,-3.8491,-3.8451,-3.8407,-3.8407,-3.8388,-3.8415,-3.8489,-3.847,-3.845,-3.8392,-3.8303,-3.8233,-3.8048,-3.8016,-3.8053,-3.7921,-3.7983,-3.7964,-3.7983,-3.781,-3.7555,-3.6054,-3.5797,-3.5809,-3.5797,-3.5897,-3.5955,-4.5675,-4.5656,-4.5226,-4.4172,-4.2786,-4.2767,-4.2396,-4.1869,-4.2513,-4.2422,-4.1865,-4.25,-4.2316,-4.1465,-4.0859,-4.0918,-4.1522,-4.1699,-4.1816,-4.1816,-4.2012,-4.1776,-4.1119,-4.0923,-4.0828,-4.0771,-3.9984,-3.9585,-3.9546,-3.8921,-3.8609,-3.8629,-3.9049,-3.8951,-3.8316,-3.8492,-3.8598,-3.8606,-3.8612,-3.8496,-3.8301,-3.7871,-3.7572,-3.7363,-3.7381,-3.7363,-3.7344,-3.6074,-3.539,-3.5351,-3.4316,-3.4004,-3.4668,-3.4705,0.0,0.0,0.0,0.0,0.0,0.0,0.0,0.0,0.0,-3.3386,-3.3389,0.0,-3.4371,0.0,-3.5425,-3.6188,-3.6207,-3.6966,0.0,0.0,-3.7863,-3.8116,-3.8109,-3.8276,-3.8393,-3.833,-3.8859,-3.9228,-3.9228,-3.982,-4.0236,-4.0276,-3.9714,-3.95,-4.01,-4.0203,-4.0181,-4.015,-4.0099,-4.0184,-4.0113,-4.0172,-3.992,-3.9301,-3.9141,-3.8904,-3.8292,-3.8112,-3.8086,-3.8073,-3.8078,-3.8092,-3.813,-3.8073,-3.8009,-3.7643,-3.7546,-3.7321,-3.6779,-3.7112,-3.7406,-4.63,-4.63,-4.63,-4.5753,-4.4816,-4.4445,-4.3548,-4.2494,-4.3333,-4.3205,-4.2454,-4.3314,-4.3435,-4.2969,-4.25,-4.2344,-4.2383,-4.2383,-4.2383,-4.2383,-4.2383,-4.2343,-4.2257,-4.2249,-4.2265,-4.2253,-4.1797,-4.1579,-4.154,-4.072,-4.0288,-4.0288,-4.0394,-4.0179,-3.9741,-3.9702,-3.9727,-3.9715,-3.9705,-3.9551,-3.9199,-3.918,-3.9003,-3.8627,-3.8607,-3.8609,-3.8589,-3.7673,-3.7166,-3.7127,-3.6229,-3.5917,-3.6405,-3.6423,-3.6268,0.0,0.0,0.0,0.0,0.0,0.0,0.0,0.0,0.0,0.0,0.0,-3.5396,0.0,-3.6936,0.0,-3.7685,-3.8121,-3.8393,-3.8393,-3.8719,-3.9052,-3.9374,-3.9752,-4.0111,-4.0488,-4.0906,-4.1209,-4.1293,-4.1679,-4.2011,-4.2013,-4.1615,-4.1158,-4.0846,-4.0812,-4.0796,-4.0796,-4.0803,-4.079,-4.079,-4.079,-4.0636,-4.021,-4.0043,-3.9876,-3.9387,-3.9245,-3.9218,-3.9218,-3.9191,-3.9177,-3.9199,-3.9224,-3.9224,-3.9251,-3.9264,-3.8814,-3.7738,-3.7858,-3.8025,-4.6612,-4.6612,-4.6515,-4.6475,-4.6397,-4.5519,-4.4231,-4.2806,-4.3665,-4.3598,-4.2945,-4.3574,-4.3867,-4.3867,-4.375,-4.334,-4.2734,-4.2734,-4.2734,-4.2734,-4.2734,-4.3086,-4.3691,-4.37,-4.371,-4.371,-4.371,-4.371,-4.3668,-4.2929,-4.25,-4.238,-4.1638,-4.1225,-4.1108,-4.1205,-4.1205,-4.1108,-4.1108,-4.0761,-4.0078,-4.0058,-3.9687,-3.8964,-3.8934,-3.8918,-3.8921,-3.8815,-3.8762,-3.8742,-3.8664,-3.8606,-3.8606,-3.8607,-3.8258,0.0,-3.7459,0.0,0.0,0.0,0.0,0.0,0.0,0.0,0.0,-3.6163,-3.6543,-3.7292,-3.8084,-3.856,-3.8568,-3.877,-3.8899,-3.8921,-3.9597,-4.0363,-4.0986,-4.1661,-4.2389,-4.3227,-4.3296,-4.3313,-4.3335,-4.3479,-4.343,-4.3307,-4.3199,-4.2687,-4.1513,-4.1214,-4.1248,-4.11,-4.1003,-4.1042,-4.1003,-4.0887,-4.0771,-4.079,-4.07,-4.0746,-4.0604,-4.0544,-4.0535,-4.0535,-4.0414,-4.0442,-4.0593,-4.054,-4.054,-4.0505,-4.0532,-4.0076,-3.8774,-3.8554,-3.8508,-4.8314,-4.8255,-4.7611,-4.7338,-4.7299,-4.6417,-4.546,-4.4563,-4.5441,-4.5712,-4.5527,-4.5,-4.4746,-4.4707,-4.4023,-4.4004,-4.4512,-4.4512,-4.4512,-4.4512,-4.4512,-4.4219,-4.3711,-4.3707,-4.3702,-4.3702,-4.37,-4.3693,-4.3707,-4.353,-4.31,-4.2396,-4.222,-4.1813,0.0,0.0,0.0,0.0,-4.1114,-4.1019,-4.0884,-4.0877,-4.0799,-4.0631,-4.0623,0.0,-4.06,-3.9998,-3.9666,-3.9627,-3.8983,0.0,0.0,0.0,0.0,0.0,0.0,0.0,0.0,0.0,0.0,0.0,-3.801,-3.7698,-3.7054,-3.7591,-3.8063,-3.817,-3.8941,-3.9455,-3.9479,-4.0684,-4.148,-4.1519,-4.2248,-4.281,-4.2975,-4.3013,-4.3118,-4.3279,-4.3225,-4.322,-4.3376,-4.333,-4.3376,-4.3485,-4.3369,-4.3194,-4.2904,-4.277,-4.2802,-4.2783,-4.2183,-4.1796,-4.1777,-4.1274,-4.0965,-4.079,-4.0681,-4.0654,-4.0679,-4.0564,-4.05,-4.0519,-4.0504,-4.0523,-4.0588,-4.0579,-4.0626,-4.0687,-4.0726,-4.0449,-3.9419,-3.9772,-4.0113,-4.8798,0.0,-4.8369,-4.7978,0.0,-4.712,-4.6456,-4.5675,-4.6105,-4.629,-4.6264,-4.5839,-4.5644,-4.5625,-4.5176,-4.498,-4.5019,-4.5019,-4.5019,-4.5019,-4.5016,-4.5013,-4.4993,-4.4993,-4.497,-4.4984,-4.4989,-4.4987,-4.4956,-4.454,-4.411,-4.3684,-4.3255,-4.2825,-4.2415,-4.2825,-4.2825,-4.2396,-4.2382,-4.2382,-4.238,-4.2392,-4.2373,-4.238,0.0,0.0,0.0,0.0,0.0,0.0,0.0,0.0,0.0,0.0,0.0,-3.9236,-3.9564,-3.9598,-3.9204,-3.9546,-3.9775,-3.9783,-4.0154,-3.9652,-3.7981,-3.8608,-3.9078,-3.9078,-4.0178,-4.0952,-4.0965,-4.2102,-4.285,-4.2869,-4.3186,-4.3528,-4.3892,-4.3882,-4.3968,-4.4388,-4.4403,-4.4432,-4.4586,-4.4614,-4.4633,-4.4634,-4.4608,-4.455,-4.4447,-4.3802,-4.3305,-4.3305,-4.2976,-4.2647,-4.2609,-4.2357,-4.1996,-4.1963,-4.1608,-4.133,-4.1244,-4.0872,-4.0554,-4.0549,-4.0519,-4.0519,-4.0612,-4.0626,-4.0621,-4.0733,-4.0778,-4.0694,-4.0185,-4.0468,-4.0694,-4.9267,-4.9247,-4.9107,-4.8564,-4.7803,-4.7647,-4.712,-4.63,0.0,0.0,0.0,-4.6305,-4.6289,-4.6289,-4.6289,-4.5898,-4.5234,-4.5234,-4.5234,-4.5234,-4.5241,-4.5617,-4.628,-4.6295,-4.6293,-4.63,-4.6295,-4.6295,-4.6261,-4.5561,-4.5151,-4.4956,-4.427,-4.3938,-4.3938,-4.3938,-4.3997,-4.4133,-4.3849,-4.3693,-4.3704,-4.3707,-4.3707,-4.3707,-4.3704,-4.3704,-4.3704,-4.3704,-4.3704,-4.3684,-4.3021,-4.2633,-4.2597,-4.1943,-4.1191,-4.0361,-4.0929,-4.0944,-4.0115,-4.0694,-4.1162,-4.1305,-4.2065,-4.1656,-3.953,-4.0013,-4.039,-4.0383,-4.1649,-4.2421,-4.244,-4.3209,-4.3724,-4.3724,-4.3753,-4.4066,-4.4664,-4.4662,-4.4867,-4.5533,-4.563,-4.575,-4.582,-4.588,-4.5983,-4.5919,-4.5776,-4.5893,-4.5686,-4.4672,-4.3904,-4.3885,-4.373,-4.3518,-4.3498,-4.3305,-4.3311,-4.3071,-4.2593,-4.2218,-4.2054,-4.1528,-4.1104,-4.1176,-4.0997,-4.1012,-4.0949,-4.091,-4.0808,-4.0778,-4.081,-4.079,-4.081,-4.0906,-4.0965,-5.1004,-5.0984,-5.0243,-4.9423,-4.8584,-4.79,-4.712,-4.63,-4.63,-4.629,-4.63,-4.6293,-4.63,-4.6289,-4.6289,-4.623,-4.6133,-4.6113,-4.6133,0.0,-4.6119,-4.6183,-4.63,-4.6303,-4.6303,-4.63,-4.6303,-4.6303,-4.628,-4.6153,-4.5743,-4.509,-4.4875,-4.4816,-4.4816,-4.4816,-4.5187,-4.589,-4.4465,-4.3704,-4.37,-4.3704,-4.3704,-4.3704,-4.3723,-4.37,-4.37,-4.3723,-4.3704,-4.3704,-4.3567,-4.3515,-4.3507,-4.3372,-4.2948,-4.2125,-4.2161,-4.1824,-4.0994,-4.1033,-4.1403,-4.2104,-4.2942,-4.3254,-4.2942,-4.2974,-4.3045,-4.305,-4.3241,-4.338,-4.3374,-4.4113,-4.4617,-4.4656,-4.5209,-4.5664,-4.572,-4.5674,-4.5653,-4.5854,-4.5899,-4.5899,-4.5944,-4.5975,-4.5983,-4.5964,-4.5929,-4.5886,-4.5822,-4.5647,-4.5465,-4.5336,-4.4852,-4.4465,-4.4349,-4.3769,-4.3518,-4.3291,-4.3211,-4.3033,-4.2999,-4.2745,-4.2556,-4.2668,-4.2556,-4.2364,-4.188,-4.1726,-4.1509,-4.1087,-4.0971,-4.0965,-4.1003,-4.1429,-4.1641,-5.1394,-5.1355,-5.0965,-5.0301,-4.9403,-4.8154,-4.7627,-4.7608,-4.7178,-4.6719,-4.6301,-4.6303,-4.6306,-4.6289,-4.6289,-4.6289,-4.6289,-4.6289,-4.6289,-4.6289,-4.6306,-4.6297,-4.6303,-4.63,-4.63,-4.63,-4.63,-4.63,-4.63,-4.6306,-4.6092,-4.5714,-4.5695,-4.5714,-4.5714,-4.5714,-4.5909,-4.6261,-4.5519,-4.5109,-4.5109,-4.5109,-4.5109,-4.5109,-4.5109,-4.5109,-4.5109,-4.5109,-4.5109,-4.509,-4.4641,-4.439,-4.4399,-4.396,-4.3299,-4.2494,-4.285,-4.2909,-4.2494,-4.3332,-4.4014,-4.4403,-4.4773,-4.5027,-4.5007,-4.413,-4.3617,-4.363,-4.4004,-4.43,-4.4284,-4.5016,-4.5512,-4.5502,-4.5792,-4.5922,-4.5886,-4.5847,-4.5771,-4.5737,-4.5771,-4.5786,-4.5783,-4.5873,-4.5953,-4.5947,-4.5933,-4.5898,-4.5886,-4.5867,-4.586,-4.5841,-4.5504,-4.5297,-4.522,-4.4949,-4.4678,-4.465,-4.4216,-4.3955,-4.3844,-4.3567,-4.3204,-4.3142,-4.315,-4.2992,-4.2609,-4.2609,-4.243,-4.2298,-4.2131,-4.2144,-4.2222,-4.2473,-4.2531,-5.139,-5.1394,-5.1394,-5.0906,-4.9969,-4.8505,-4.8232,-4.8701,-4.7939,-4.7227,-4.6653,-4.6601,-4.6484,-4.6308,-4.6289,-4.6289,-4.6289,-4.6289,-4.6289,-4.6289,-4.6289,-4.6305,-4.6287,-4.6306,-4.6303,-4.63,-4.63,-4.63,-4.63,-4.63,-4.63,-4.63,-4.63,-4.63,-4.63,-4.63,-4.63,-4.63,-4.63,-4.63,-4.63,-4.63,-4.63,-4.63,-4.628,-4.63,-4.63,-4.63,-4.63,-4.6261,-4.5656,-4.5285,-4.5265,-4.4659,-4.3886,-4.3163,-4.3617,-4.3877,-4.3702,-4.5027,-4.5923,-4.5903,-4.6098,-4.6196,-4.6079,-4.4988,-4.4189,-4.426,-4.4818,-4.5192,-4.5243,-4.5704,-4.6105,-4.6085,-4.6016,-4.5941,-4.5867,-4.581,-4.57,-4.5635,-4.5665,-4.5708,-4.5703,-4.5789,-4.5891,-4.5928,-4.5925,-4.591,-4.591,-4.5925,-4.5958,-4.6119,-4.5996,-4.5794,-4.58,-4.5761,-4.5722,-4.5776,-4.5254,-4.4873,-4.4689,-4.4191,-4.3863,-4.3901,-4.3817,-4.3736,-4.3583,-4.3472,-4.339,-4.3201,-4.3092,-4.3266,-4.3479,-4.3556,-4.3595,-5.1396,-5.1394,-5.1394,-5.0906,-5.0048,-4.9091,-4.872,-4.874,-4.7959,-4.7578,-4.7434,-4.748,-4.7012,-4.6367,-4.6289,-4.6289,-4.6289,-4.6289,-4.6289,-4.6289,-4.6306,-4.6301,-4.63,-4.6295,-4.629,-4.6303,-4.63,-4.63,-4.63,-4.63,-4.63,-4.63,-4.63,-4.63,-4.63,-4.63,-4.63,-4.63,-4.63,-4.63,-4.63,-4.63,-4.63,-4.63,-4.63,-4.63,-4.63,-4.63,-4.63,-4.63,-4.6222,-4.6163,-4.6144,-4.6069,-4.566,-4.4806,-4.4797,-4.4504,-4.3786,-4.4481,-4.5085,-4.5066,-4.5787,-4.6196,-4.6196,-4.604,-4.5942,-4.5903,-4.5967,-4.6018,-4.6088,-4.6111,-4.6113,-4.6113,-4.6144,-4.6076,-4.6113,-4.5951,-4.5892,-4.5867,-4.6007,-4.5786,-4.5993,-4.6061,-4.6057,-4.6249,-4.6297,-4.6297,-4.6266,-4.6263,-4.6484,-4.6841,-4.6468,-4.5949,-4.591,-4.58,-4.5858,-4.5838,-4.5752,-4.5583,-4.5486,-4.5457,-4.5426,-4.5061,-4.531,-4.504,-4.4641,-4.437,-4.4071,-4.38,-4.3672,-4.3634,-4.4253,-4.4485,-4.4465,-5.1391,-5.1394,-5.1394,-5.1199,-5.0711,-4.9403,-4.9091,-4.9462,-4.872,-4.8099,-4.764,-4.7615,-4.7109,-4.6308,-4.6289,-4.6289,-4.6289,-4.6289,-4.6289,-4.6289,-4.63,-4.629,-4.629,-4.629,-4.6303,-4.63,-4.63,-4.63,-4.63,-4.63,-4.63,-4.63,-4.63,-4.63,-4.63,-4.63,-4.63,-4.63,-4.63,-4.63,-4.63,-4.63,-4.63,-4.63,-4.63,-4.63,-4.63,-4.63,-4.63,-4.63,-4.63,-4.63,-4.63,-4.63,-4.5911,-4.505,-4.4938,-4.4785,-4.4403,-4.5183,-4.567,-4.565,-4.5981,-4.6196,-4.6196,-4.6196,-4.6196,-4.6196,-4.6208,-4.6208,-4.622,-4.6185,-4.6177,-4.6227,-4.658,-4.6834,-4.6763,-4.7163,-4.7437,-4.7378,-4.7337,-4.7328,-4.7347,-4.7391,-4.7459,-4.7531,-4.7512,-4.7434,-4.7492,-4.7528,-4.768,-4.7932,-4.765,-4.7204,-4.677,-4.6635,-4.6422,-4.6035,-4.5866,-4.5872,-4.586,-4.5841,-4.5808,-4.5841,-4.5819,-4.5733,-4.546,-4.5316,-4.5095,-4.4717,-4.4755,-4.491,-4.5258,-4.5297,-4.533,-5.1386,-5.139,-5.1394,-5.1394,-5.1258,-4.9794,-4.9657,-5.0243,-4.9348,-4.8548,-4.7959,-4.7712,-4.7266,-4.668,-4.6426,-4.6289,-4.6289,-4.6289,-4.6289,-4.6289,-4.6297,-4.6306,-4.63,-4.63,-4.63,-4.63,-4.63,-4.6436,-4.6593,-4.6358,-4.6417,-4.6593,-4.6417,-4.63,-4.63,-4.63,-4.63,-4.63,-4.63,-4.63,-4.63,-4.63,-4.63,-4.63,-4.63,-4.63,-4.63,-4.63,-4.63,-4.63,-4.63,-4.63,-4.63,-4.6287,-4.5992,-4.536,-4.527,-4.5241,-4.526,-4.5845,-4.6196,-4.6196,-4.6196,-4.6196,-4.6196,-4.6196,-4.6196,-4.6215,-4.6429,-4.6585,-4.6566,-4.6773,-4.6921,-4.6953,-4.7462,-4.7699,-4.7678,-4.8211,-4.8417,-4.8443,-4.8247,-4.8406,-4.8426,-4.8387,-4.8394,-4.8463,-4.8522,-4.858,-4.858,-4.8549,-4.8615,-4.8895,-4.8902,-4.8496,-4.7759,-4.7552,-4.7146,-4.6565,-4.6293,-4.6248,-4.6002,-4.5905,-4.5893,-4.5874,-4.5906,-4.5854,-4.5711,-4.5736,-4.5761,-4.58,-4.5761,-4.5703,-4.5684,-4.578,-4.5794,-5.1382,-5.139,-5.1394,-5.1355,-5.1316,-5.0399,-5.0496,-5.1063,-4.9595,-4.885,-4.861,-4.7888,-4.7558,-4.7422,-4.6719,-4.6328,-4.6348,-4.6426,-4.6465,-4.6465,-4.6422,-4.6334,-4.63,-4.63,-4.6339,-4.6397,-4.6319,-4.6671,-4.7334,-4.6729,-4.6729,-4.7432,-4.6749,-4.6339,-4.6358,-4.6319,-4.63,-4.63,-4.63,-4.63,-4.63,-4.63,-4.63,-4.63,-4.63,-4.63,-4.63,-4.63,-4.63,-4.63,-4.63,-4.63,-4.6303,-4.63,-4.6229,-4.6097,-4.6111,-4.6118,-4.6079,-4.6157,-4.6196,-4.6196,-4.6196,-4.6196,-4.6196,-4.6196,-4.6196,-4.6215,-4.6897,-4.7326,-4.7521,-4.7988,-4.8436,-4.8495,-4.8599,-4.8635,-4.8642,-4.8708,-4.8514,-4.86,-4.8695,-4.8759,-4.8625,-4.8495,-4.8724,-4.8794,-4.8696,-4.8755,-4.8871,-4.8755,-4.9085,-4.9629,-4.9773,-4.9509,-4.8703,-4.8445,-4.8057,-4.7282,-4.6816,-4.6797,-4.6293,-4.5905,-4.5912,-4.5899,-4.5919,-4.5906,-4.5847,-4.58,-4.58,-4.58,-4.58,-4.58,-4.58,-4.58,-4.5814,-5.1396,-5.1336,-5.0789,-5.0887,-5.1277,-5.0457,-5.0301,-5.0442,-4.9402,-4.8567,-4.7965,-4.7148,-4.707,-4.7578,-4.7266,-4.7441,-4.793,-4.7963,-4.7944,-4.7968,-4.792,-4.7927,-4.79,-4.7432,-4.7139,-4.7061,-4.6554,-4.6456,-4.6768,-4.6983,-4.7276,-4.749,-4.7295,-4.7139,-4.7042,-4.6573,-4.63,-4.63,-4.63,-4.63,-4.63,-4.63,-4.63,-4.63,-4.63,-4.63,-4.63,-4.63,-4.63,-4.63,-4.63,-4.63,-4.6303,-4.6249,-4.6223,-4.621,-4.6209,-4.6196,-4.6196,-4.6196,-4.6196,-4.6196,-4.6196,-4.6235,-4.6196,-4.6196,-4.6196,-4.6371,-4.7014,-4.7657,-4.8261,-4.8631,-4.8806,-4.8845,-4.9255,-4.9531,-4.9624,-4.9906,-5.0223,-5.0227,-5.019,-5.0202,-5.0118,-5.0219,-5.025,-5.025,-5.027,-5.0212,-5.025,-5.027,-5.0309,-5.06,-5.0736,-5.0639,-5.0343,-4.9659,-4.8968,-4.7842,-4.7144,-4.6748,-4.6282,-4.5999,-4.5949,-4.5956,-4.5944,-4.5932,-4.5887,-4.5814,-4.5833,-4.5814,-4.5814,-4.5814,-4.58,-4.5814,-4.5827,-5.1394,-5.1297,-5.077,-5.0848,-5.1258,-5.0457,-5.0262,-5.0403,-4.9656,-4.8962,-4.8379,-4.7812,-4.7891,-4.8379,-4.8457,-4.8906,-4.9567,-4.9168,-4.8897,-4.8863,-4.858,-4.8571,-4.872,-4.8017,-4.7744,-4.7881,-4.7412,-4.7237,-4.751,-4.7822,-4.8115,-4.8408,-4.8154,-4.7978,-4.7861,-4.7159,-4.671,-4.669,-4.6436,-4.63,-4.63,-4.63,-4.63,-4.6339,-4.6573,-4.6573,-4.6339,-4.6554,-4.671,-4.6729,-4.6729,-4.6596,-4.6334,-4.6249,-4.6221,-4.621,-4.6206,-4.6203,-4.6203,-4.6196,-4.6313,-4.6612,-4.6624,-4.6702,-4.6975,-4.7033,-4.7033,-4.7209,-4.7793,-4.8612,-4.9079,-4.9449,-4.9605,-4.9644,-5.0092,-5.0408,-5.0393,-5.084,-5.1111,-5.1105,-5.1074,-5.1144,-5.1202,-5.1183,-5.1144,-5.1202,-5.1202,-5.1202,-5.1202,-5.1202,-5.1202,-5.1202,-5.1163,-5.1125,-5.0938,-5.046,-4.9547,-4.8429,-4.742,-4.6926,-4.6402,-4.6169,-4.5983,-4.5991,-4.598,-4.5968,-4.5932,-4.586,-4.5827,-4.5814,-4.5827,-4.586,-4.5847,-4.5827,-4.5827,-5.1394,-5.1375,-5.1375,-5.1336,-5.1297,-5.0555,-5.0614,-5.1105,-5.0398,-4.9958,-4.9844,-4.9922,-4.9707,-5.0058,-4.9902,-5.0505,-5.0825,-4.976,-4.9172,-4.9098,-4.8365,-4.8421,-4.9068,-4.8287,-4.8135,-4.8662,-4.872,-4.913,-4.9579,-4.9111,-4.9189,-4.9716,-4.913,-4.8818,-4.8798,-4.8037,-4.7608,-4.7451,-4.6905,-4.6495,-4.6319,-4.6436,-4.6417,-4.6456,-4.7061,-4.7042,-4.6339,-4.7139,-4.7608,-4.7608,-4.7608,-4.7207,-4.6637,-4.6444,-4.6307,-4.6296,-4.6234,-4.6197,-4.6209,-4.6196,-4.6546,-4.7041,-4.7372,-4.754,-4.8125,-4.8378,-4.8417,-4.8592,-4.9177,-4.9839,-4.9956,-5.0502,-5.095,-5.1242,-5.1125,-5.1109,-5.1142,-5.1171,-5.1208,-5.1214,-5.1202,-5.1202,-5.1202,-5.1202,-5.1202,-5.1202,-5.1202,-5.1202,-5.1202,-5.1202,-5.1202,-5.1202,-5.1202,-5.1202,-5.1202,-5.1047,-5.0037,-4.9007,-4.8044,-4.7287,-4.6627,-4.6227,-4.6022,-4.5972,-4.5953,-4.5941,-4.5949,-4.588,-4.5854,-4.5854,-4.5874,-4.5874,-4.586,-4.586,-4.5847,-5.1394,-5.1394,-5.1394,-5.1394,-5.1375,-5.1102,-5.118,-5.1297,-5.0523,-5.0188,-5.0098,-4.957,-4.9609,-5.0117,-5.0195,-5.0644,-5.1325,-5.083,-5.0624,-5.0516,-5.0269,-5.025,-5.036,-4.9716,-4.913,-4.8857,-4.8798,-4.8935,-4.9267,-4.954,-4.9872,-4.9989,-4.9852,-4.9696,-4.9657,-4.8876,-4.8408,-4.8388,-4.8154,-4.8037,-4.7959,-4.7471,-4.7198,-4.7159,-4.6905,-4.6554,-4.6397,-4.7666,-4.8388,-4.8408,-4.8427,-4.8281,-4.7966,-4.7461,-4.7139,-4.7034,-4.6499,-4.6215,-4.6203,-4.6229,-4.6352,-4.6612,-4.6663,-4.7053,-4.7766,-4.7988,-4.8261,-4.869,-4.906,-4.9333,-4.9917,-5.0209,-5.0696,-5.1242,-5.13,-5.1292,-5.1278,-5.124,-5.1217,-5.1214,-5.1202,-5.1202,-5.1202,-5.1202,-5.1202,-5.1202,-5.1202,-5.1202,-5.1202,-5.1202,-5.1202,-5.1202,-5.1202,-5.1202,-5.1183,-5.1008,-5.0309,-4.9512,-4.8677,-4.785,-4.7101,-4.6635,-4.6372,-4.605,-4.6011,-4.5922,-4.5929,-4.5917,-4.5893,-4.588,-4.5912,-4.5899,-4.5906,-4.5893,-4.5874,-5.1394,-5.1394,-5.1394,-5.1394,-5.1394,-5.1394,-5.1398,-5.1324,-5.0871,-5.0652,-5.0527,-5.0098,-5.0137,-5.0566,-5.0644,-5.0918,-5.1367,-5.1391,-5.1394,-5.1316,-5.1023,-5.1082,-5.1277,-5.0867,-5.034,-4.9872,-4.9774,-4.9755,-4.9813,-5.0301,-5.0594,-5.0575,-5.0575,-5.0594,-5.0496,-4.9735,-4.9286,-4.9247,-4.8935,-4.8798,-4.8701,-4.831,-4.8057,-4.8017,-4.7822,-4.7725,-4.7803,-4.904,-4.9469,-4.8939,-4.8805,-4.8677,-4.8355,-4.7519,-4.7042,-4.6921,-4.6587,-4.6312,-4.6599,-4.6736,-4.7041,-4.743,-4.7352,-4.756,-4.8241,-4.8436,-4.8729,-4.9118,-4.9625,-4.9917,-5.0385,-5.0502,-5.0755,-5.1222,-5.13,-5.1284,-5.1278,-5.124,-5.1197,-5.1214,-5.1202,-5.1202,-5.1202,-5.1202,-5.1202,-5.1202,-5.1202,-5.1202,-5.1202,-5.1202,-5.1202,-5.1202,-5.1202,-5.1202,-5.1163,-5.0891,-5.0522,-4.994,-4.9318,-4.8569,-4.7839,-4.7578,-4.7295,-4.6624,-4.6391,-4.603,-4.596,-4.5917,-4.5905,-4.5917,-4.6026,-4.5937,-4.5932,-4.5899,-4.588,-5.1394,-5.1394,-5.1394,-5.1394,-5.1394,-5.1394,-5.1385,-5.1396,-5.1349,-5.1318,-5.1308,-5.1172,-5.125,-5.1348,-5.125,-5.1328,-5.1386,-5.1391,-5.1394,-5.1238,-5.0887,-5.0926,-5.1297,-5.1277,-5.118,-5.116,-5.1199,-5.1238,-5.1102,-5.1199,-5.1394,-5.1277,-5.1258,-5.1355,-5.1141,-5.0535,-5.018,-5.0063,-4.9458,-4.913,-4.9111,-4.8935,-4.8876,-4.8896,-4.9345,-4.9599,-4.9645,-5.0379,-5.0398,-4.9199,-4.9168,-4.8918,-4.7983,-4.7011,-4.685,-4.6866,-4.6495,-4.6879,-4.7398,-4.7574,-4.8112,-4.9237,-4.8892,-4.9145,-4.96,-4.9652,-4.9781,-5.0073,-5.0677,-5.1145,-5.1183,-5.1183,-5.1242,-5.1281,-5.13,-5.1284,-5.122,-5.121,-5.1208,-5.1214,-5.1202,-5.1202,-5.1202,-5.1202,-5.1202,-5.1202,-5.1202,-5.1202,-5.1202,-5.1202,-5.1202,-5.1202,-5.1202,-5.1202,-5.1183,-5.1125,-5.0794,-5.0561,-5.0017,-4.9443,-4.8654,-4.8355,-4.8064,-4.7423,-4.6888,-4.643,-4.6244,-4.6407,-4.6348,-4.6341,-4.6302,-4.6077,-4.6046,-4.6099,-4.6287,-5.1394,-5.1394,-5.1394,-5.1394,-5.1394,-5.1394,-5.1391,-5.1386,-5.1385,-5.1387,-5.1387,-5.1387,-5.1387,-5.1387,-5.1398,-5.1398,-5.1442,-5.1411,-5.1394,-5.1492,-5.1902,-5.1668,-5.1472,-5.1414,-5.1414,-5.1433,-5.1433,-5.1394,-5.1394,-5.1394,-5.1394,-5.1394,-5.1394,-5.1394,-5.1316,-5.1132,-5.1069,-5.103,-5.0855,-5.0644,-5.0527,-4.9985,-4.9755,-4.9735,-4.9403,-4.9238,-4.9231,-4.9978,-5.0643,-5.076,-5.0721,-5.0663,-5.0156,-4.9373,-4.8775,-4.8701,-4.8337,-4.8164,-4.8379,-4.847,-4.8743,-4.9016,-4.9094,-4.9165,-4.9905,-4.9995,-5.0326,-5.0774,-5.1203,-5.13,-5.13,-5.13,-5.13,-5.13,-5.13,-5.1265,-5.122,-5.1201,-5.12,-5.1214,-5.1202,-5.1202,-5.1202,-5.1202,-5.1202,-5.1202,-5.1202,-5.1202,-5.1202,-5.1202,-5.1202,-5.1202,-5.1202,-5.1202,-5.1202,-5.1202,-5.1144,-5.1105,-5.0775,-5.0425,-4.9617,-4.8968,-4.8658,-4.8211,-4.7889,-4.7481,-4.7462,-4.7528,-4.7306,-4.6868,-4.6635,-4.6469,-4.6511,-4.6584,-4.6933,-5.1394,-5.1394,-5.1394,-5.1394,-5.1394,-5.1394,-5.1389,-5.14,-5.1387,-5.1387,-5.1387,-5.1387,-5.1387,-5.1387,-5.1402,-5.1631,-5.1887,-5.1561,-5.1824,-5.2569,-5.3006,-5.2947,-5.253,-5.2195,-5.1941,-5.1882,-5.157,-5.1414,-5.1394,-5.1394,-5.1394,-5.1394,-5.1394,-5.1394,-5.1394,-5.139,-5.1386,-5.1386,-5.1386,-5.1386,-5.1327,-5.0551,-5.0418,-5.034,-4.9833,-4.9458,-4.9902,-5.041,-5.0917,-5.1211,-5.1074,-5.0858,-5.0779,-5.0027,-4.9563,-4.9536,-4.9054,-4.8919,-4.9276,-4.9361,-4.9529,-4.9724,-4.9614,-4.9593,-4.9937,-5.0014,-5.0307,-5.0618,-5.1047,-5.1261,-5.13,-5.13,-5.13,-5.13,-5.13,-5.1265,-5.1211,-5.1211,-5.12,-5.1206,-5.1202,-5.1202,-5.1202,-5.1202,-5.1202,-5.1202,-5.1202,-5.1202,-5.1202,-5.1202,-5.1202,-5.1202,-5.1202,-5.1202,-5.1202,-5.1202,-5.1202,-5.1202,-5.1144,-5.0891,-5.0425,-4.9648,-4.9376,-4.9085,-4.8832,-4.8619,-4.8541,-4.8289,-4.7764,-4.7376,-4.7084,-4.6985,-4.7035,-4.6874,-4.7262,-5.1394,-5.1394,-5.1394,-5.1394,-5.1394,-5.1394,-5.1394,-5.1402,-5.1402,-5.1387,-5.1387,-5.1387,-5.1387,-5.1387,-5.1405,-5.181,-5.2433,-5.1886,-5.2765,-5.3569,-5.4144,-5.4105,-5.419,-5.3217,-5.2885,-5.2749,-5.2023,-5.1749,-5.1726,-5.1629,-5.1492,-5.1433,-5.1394,-5.1394,-5.1394,-5.139,-5.1394,-5.139,-5.139,-5.139,-5.1312,-5.0785,-5.0711,-5.1023,-5.064,-5.0541,-5.1014,-5.132,-5.1361,-5.1386,-5.0639,-5.0459,-5.0261,-4.9508,-4.9263,-4.9352,-4.9435,-4.96,-5.0068,-5.0251,-5.0498,-5.094,-5.0543,-5.0251,-5.0307,-5.0326,-5.0346,-5.0463,-5.0891,-5.1222,-5.13,-5.13,-5.13,-5.13,-5.13,-5.1256,-5.123,-5.1211,-5.121,-5.1214,-5.1202,-5.1202,-5.1202,-5.1202,-5.1202,-5.1202,-5.1202,-5.1202,-5.1202,-5.1202,-5.1202,-5.1202,-5.1202,-5.1202,-5.1202,-5.1202,-5.1202,-5.1202,-5.1202,-5.1066,-5.0969,-5.0464,-5.0192,-4.994,-4.9804,-4.9571,-4.9318,-4.891,-4.8405,-4.7978,-4.7764,-4.7672,-4.7617,-4.7223,-4.7295,-5.1394,-5.1394,-5.1394,-5.1394,-5.1394,-5.1394,-5.1394,-5.1394,-5.1382,-5.14,-5.1406,-5.1406,-5.1445,-5.1426,-5.1482,-5.1531,-5.2062,-5.2413,-5.337,-5.4838,-5.5026,-5.5453,-5.5524,-5.4493,-5.3796,-5.3659,-5.3544,-5.3051,-5.2593,-5.2316,-5.2058,-5.1511,-5.1433,-5.1394,-5.1394,-5.139,-5.1401,-5.1401,-5.1401,-5.1386,-5.1386,-5.1156,-5.1063,-5.1301,-5.1157,-5.1191,-5.1316,-5.1402,-5.1402,-5.1346,-5.1229,-5.1011,-5.0972,-5.0832,-5.0668,-5.064,-5.0713,-5.0864,-5.104,-5.1049,-5.116,-5.1283,-5.1148,-5.103,-5.1047,-5.0989,-5.0989,-5.1028,-5.1203,-5.13,-5.13,-5.13,-5.13,-5.13,-5.13,-5.1292,-5.1267,-5.1278,-5.1259,-5.1219,-5.1197,-5.1206,-5.1202,-5.1202,-5.1202,-5.1202,-5.1202,-5.1202,-5.1202,-5.1202,-5.1202,-5.1202,-5.1202,-5.1202,-5.1202,-5.1202,-5.1202,-5.1202,-5.1202,-5.1202,-5.1105,-5.1066,-5.0717,-5.0717,-5.0853,-5.0542,-5.0095,-4.9843,-4.9365,-4.8918,-4.8491,-4.8495,-4.8334,-4.7818,-4.7837,-5.1394,-5.1394,-5.1394,-5.1394,-5.1394,-5.1394,-5.1394,-5.1394,-5.1394,-5.1394,-5.1504,-5.1777,-5.2012,-5.2012,-5.2062,-5.2401,-5.3318,-5.4108,-5.475,-5.5391,-5.5651,-5.6163,-5.6376,-5.5729,-5.5065,-5.4648,-5.4138,-5.3706,-5.3332,-5.2911,-5.2436,-5.198,-5.1629,-5.1414,-5.1394,-5.1429,-5.1386,-5.1386,-5.1386,-5.1386,-5.1386,-5.098,-5.0809,-5.0939,-5.115,-5.1398,-5.1398,-5.1394,-5.1394,-5.1394,-5.1394,-5.1394,-5.1394,-5.1394,-5.139,-5.1386,-5.1401,-5.1401,-5.1396,-5.1391,-5.1361,-5.1394,-5.1369,-5.1349,-5.1308,-5.13,-5.13,-5.13,-5.13,-5.13,-5.13,-5.13,-5.13,-5.13,-5.13,-5.1292,-5.1304,-5.1295,-5.1278,-5.122,-5.1219,-5.1217,-5.1214,-5.1202,-5.1202,-5.1202,-5.1202,-5.1202,-5.1202,-5.1202,-5.1202,-5.1202,-5.1202,-5.1202,-5.1202,-5.1202,-5.1202,-5.1202,-5.1202,-5.1202,-5.1163,-5.1183,-5.1163,-5.1163,-5.1125,-5.1144,-5.0775,-5.053,-5.02,-4.9707,-4.9365,-4.9368,-4.911,-4.8496,-4.8941,-5.1394,-5.1394,-5.1394,-5.1394,-5.1394,-5.1398,-5.1402,-5.1385,-5.1382,-5.1515,-5.166,-5.2305,-5.2324,-5.2598,-5.2414,-5.3474,-5.4805,-5.5718,-5.5758,-5.5748,-5.6185,-5.6482,-5.6541,-5.638,-5.6055,-5.5449,-5.4941,-5.4492,-5.4062,-5.3491,-5.3246,-5.2823,-5.2038,-5.1929,-5.1831,-5.1648,-5.1843,-5.2038,-5.1847,-5.1726,-5.157,-5.0945,-5.0555,-5.0647,-5.1033,-5.1385,-5.1394,-5.1394,-5.1394,-5.1394,-5.1394,-5.1394,-5.1394,-5.1394,-5.1394,-5.1394,-5.1386,-5.1401,-5.1396,-5.1391,-5.14,-5.1382,-5.1382,-5.1356,-5.1328,-5.13,-5.13,-5.13,-5.13,-5.13,-5.13,-5.13,-5.13,-5.13,-5.13,-5.13,-5.13,-5.1304,-5.1267,-5.1249,-5.122,-5.1208,-5.1206,-5.1202,-5.1202,-5.1202,-5.1202,-5.1202,-5.1202,-5.1202,-5.1202,-5.1202,-5.1202,-5.1202,-5.1202,-5.1202,-5.1202,-5.1202,-5.1202,-5.1202,-5.1202,-5.1202,-5.1202,-5.1202,-5.1202,-5.1202,-5.1202,-5.0989,-5.0639,-5.0289,-5.0181,-5.0169,-4.9744,-4.9175,-4.9833,-5.1394,-5.1394,-5.1394,-5.1394,-5.1398,-5.1391,-5.14,-5.1386,-5.1445,-5.1836,-5.2344,-5.1933,-5.2207,-5.2422,-5.1894,-5.2656,-5.4245,-5.5309,-5.5957,-5.6211,-5.6543,-5.6601,-5.6621,-5.6601,-5.6484,-5.6426,-5.6035,-5.5644,-5.5195,-5.4921,-5.429,-5.3728,-5.2917,-5.2755,-5.3017,-5.2936,-5.2686,-5.2897,-5.2612,-5.2358,-5.2023,-5.1609,-5.118,-5.119,-5.1442,-5.1437,-5.1394,-5.1394,-5.1394,-5.1394,-5.1394,-5.1414,-5.1531,-5.1531,-5.1531,-5.139,-5.1386,-5.1396,-5.1396,-5.1386,-5.1375,-5.1336,-5.1317,-5.131,-5.1308,-5.13,-5.13,-5.13,-5.13,-5.13,-5.13,-5.13,-5.13,-5.13,-5.13,-5.13,-5.13,-5.1292,-5.1312,-5.1276,-5.1249,-5.12,-5.1206,-5.1202,-5.1202,-5.1202,-5.1202,-5.1202,-5.1214,-5.1202,-5.1202,-5.1202,-5.1202,-5.1202,-5.1202,-5.1202,-5.1202,-5.1202,-5.1202,-5.1202,-5.1202,-5.1202,-5.1202,-5.1202,-5.1202,-5.1202,-5.1202,-5.1202,-5.0911,-5.0425,-5.0619,-5.088,-5.0273,-4.9711,-5.0002,-5.1394,-5.1394,-5.1394,-5.1394,-5.1398,-5.1394,-5.1384,-5.1465,-5.1875,-5.2305,-5.2637,-5.2734,-5.2949,-5.3066,-5.2461,-5.2851,-5.4004,-5.543,-5.6172,-5.6582,-5.6621,-5.6621,-5.6621,-5.6621,-5.6621,-5.6601,-5.6562,-5.6426,-5.5957,-5.5469,-5.5137,-5.4622,-5.381,-5.3611,-5.37,-5.3112,-5.3061,-5.3237,-5.2983,-5.2514,-5.2195,-5.196,-5.2078,-5.2058,-5.2029,-5.1847,-5.1433,-5.1394,-5.1394,-5.1492,-5.1824,-5.2019,-5.2195,-5.237,-5.2331,-5.1648,-5.1445,-5.1416,-5.1396,-5.1386,-5.1369,-5.1317,-5.131,-5.1303,-5.1308,-5.13,-5.13,-5.13,-5.13,-5.13,-5.13,-5.13,-5.13,-5.13,-5.13,-5.13,-5.13,-5.13,-5.13,-5.1292,-5.1258,-5.1229,-5.1214,-5.1202,-5.1202,-5.1202,-5.1202,-5.1214,-5.1206,-5.1206,-5.1214,-5.1206,-5.1206,-5.1206,-5.1214,-5.1214,-5.1214,-5.1214,-5.1202,-5.1202,-5.1202,-5.1202,-5.1202,-5.1202,-5.1202,-5.1202,-5.1202,-5.1202,-5.0872,-5.0658,-5.0891,-5.0957,-5.0584,-5.0396,-5.0558,-5.157,-5.1394,-5.1394,-5.1394,-5.1398,-5.1394,-5.1384,-5.1562,-5.2305,-5.2793,-5.3027,-5.3418,-5.3711,-5.3711,-5.3262,-5.3164,-5.4101,-5.5625,-5.6269,-5.6582,-5.6621,-5.6621,-5.6621,-5.6621,-5.6621,-5.6621,-5.6621,-5.6621,-5.6406,-5.5957,-5.5644,-5.5312,-5.4694,-5.4404,-5.4408,-5.3949,-5.338,-5.3412,-5.3229,-5.278,-5.2312,-5.2565,-5.2956,-5.2944,-5.2965,-5.2644,-5.2214,-5.2156,-5.2136,-5.2273,-5.2585,-5.2956,-5.3073,-5.36,-5.3327,-5.2195,-5.1791,-5.1669,-5.162,-5.1394,-5.1336,-5.1303,-5.1303,-5.1296,-5.1308,-5.13,-5.13,-5.13,-5.13,-5.13,-5.13,-5.13,-5.13,-5.13,-5.13,-5.13,-5.13,-5.13,-5.13,-5.1284,-5.1258,-5.124,-5.1245,-5.1206,-5.1206,-5.1217,-5.1217,-5.1217,-5.1208,-5.1197,-5.1208,-5.12,-5.121,-5.1208,-5.1208,-5.1217,-5.1217,-5.1206,-5.1214,-5.1202,-5.1202,-5.1202,-5.1202,-5.1202,-5.1202,-5.1202,-5.1202,-5.1202,-5.1047,-5.0989,-5.1144,-5.1093,-5.0829,-5.0673,-5.0739,-5.2097,-5.1394,-5.1394,-5.1394,-5.1398,-5.1394,-5.1403,-5.1562,-5.2402,-5.3144,-5.3808,-5.3232,-5.3377,-5.35,-5.3064,-5.3223,-5.4062,-5.5039,-5.5918,-5.6367,-5.6562,-5.6621,-5.6621,-5.6621,-5.6621,-5.6621,-5.6621,-5.6621,-5.6562,-5.6426,-5.6387,-5.6172,-5.564,-5.5453,-5.579,-5.5017,-5.5427,-5.5751,-5.524,-5.4459,-5.3854,-5.3834,-5.3834,-5.3832,-5.3827,-5.3698,-5.3424,-5.3346,-5.3424,-5.3522,-5.3698,-5.3854,-5.3869,-5.3912,-5.3971,-5.3537,-5.3055,-5.2525,-5.2318,-5.1837,-5.1374,-5.1347,-5.1308,-5.13,-5.13,-5.13,-5.13,-5.13,-5.13,-5.13,-5.13,-5.13,-5.13,-5.13,-5.13,-5.13,-5.13,-5.13,-5.13,-5.1292,-5.1276,-5.1288,-5.1275,-5.1247,-5.1208,-5.1219,-5.121,-5.121,-5.121,-5.12,-5.1197,-5.1208,-5.122,-5.124,-5.1219,-5.1219,-5.1219,-5.1208,-5.1206,-5.1214,-5.1214,-5.1214,-5.1202,-5.1202,-5.1202,-5.1202,-5.1202,-5.1202,-5.1202,-5.1202,-5.1202,-5.1202,-5.1183,-5.1054,-5.0906,-5.3385,-5.2097,-5.159,-5.1394,-5.1398,-5.1394,-5.1696,-5.2265,-5.306,-5.3913,-5.444,-5.3826,-5.3171,-5.271,-5.2546,-5.2891,-5.3516,-5.4648,-5.5449,-5.5996,-5.6348,-5.6601,-5.6621,-5.6621,-5.6621,-5.6621,-5.6621,-5.6621,-5.6621,-5.6621,-5.6621,-5.6543,-5.6249,-5.6144,-5.6513,-5.5732,-5.5576,-5.5454,-5.5064,-5.4908,-5.5162,-5.5025,-5.4752,-5.4736,-5.4743,-5.4506,-5.4181,-5.399,-5.399,-5.4088,-5.4381,-5.4732,-5.4884,-5.5157,-5.547,-5.5371,-5.4624,-5.3715,-5.2792,-5.229,-5.1893,-5.1437,-5.1339,-5.13,-5.13,-5.13,-5.13,-5.13,-5.13,-5.13,-5.13,-5.13,-5.13,-5.13,-5.13,-5.13,-5.13,-5.13,-5.13,-5.1292,-5.1312,-5.1297,-5.1298,-5.1259,-5.122,-5.122,-5.122,-5.121,-5.122,-5.1201,-5.1208,-5.1206,-5.1249,-5.1259,-5.1249,-5.124,-5.122,-5.1229,-5.1208,-5.1217,-5.1206,-5.1206,-5.1214,-5.1202,-5.1202,-5.1202,-5.1202,-5.1202,-5.1202,-5.1202,-5.1202,-5.1202,-5.1202,-5.1171,-5.1074,-5.4537,-5.3249,-5.2175,-5.1609,-5.1398,-5.1394,-5.1872,-5.2753,-5.3595,-5.4455,-5.4884,-5.4322,-5.3014,-5.1824,-5.2081,-5.2448,-5.2832,-5.4297,-5.5019,-5.5508,-5.6094,-5.6562,-5.6621,-5.6621,-5.6621,-5.6621,-5.6621,-5.6621,-5.6621,-5.6621,-5.6621,-5.6621,-5.6523,-5.6556,-5.6406,-5.6064,-5.5806,-5.5767,-5.5259,-5.5493,-5.6138,-5.5903,-5.5689,-5.5612,-5.5546,-5.5313,-5.4767,-5.4713,-5.4732,-5.4888,-5.5279,-5.5611,-5.5708,-5.6036,-5.628,-5.6185,-5.5646,-5.486,-5.3852,-5.3136,-5.2586,-5.2138,-5.1671,-5.1749,-5.1671,-5.1515,-5.13,-5.13,-5.13,-5.13,-5.13,-5.13,-5.13,-5.13,-5.13,-5.13,-5.13,-5.13,-5.13,-5.13,-5.13,-5.13,-5.1295,-5.1258,-5.123,-5.1249,-5.124,-5.123,-5.1211,-5.122,-5.122,-5.1228,-5.1219,-5.1259,-5.124,-5.122,-5.123,-5.124,-5.121,-5.12,-5.1219,-5.1197,-5.1206,-5.1214,-5.1214,-5.1202,-5.1202,-5.1202,-5.1202,-5.1202,-5.1202,-5.1202,-5.1202,-5.119,-5.1159,-5.5235,-5.4986,-5.3288,-5.2175,-5.1492,-5.1394,-5.195,-5.2988,-5.3712,-5.4494,-5.5001,-5.4342,-5.3034,-5.1804,-5.159,-5.203,-5.2748,-5.3671,-5.4551,-5.539,-5.6133,-5.6543,-5.6621,-5.6621,-5.6621,-5.6621,-5.6621,-5.6621,-5.6621,-5.6621,-5.6621,-5.6621,-5.6621,-5.6614,-5.6566,-5.6395,-5.6313,-5.6313,-5.6079,-5.6138,-5.6528,-5.645,-5.6411,-5.6429,-5.6463,-5.6469,-5.6391,-5.6177,-5.6079,-5.6079,-5.6216,-5.6313,-5.6328,-5.6441,-5.6528,-5.6425,-5.6361,-5.5665,-5.4956,-5.42,-5.3794,-5.3483,-5.3015,-5.245,-5.2275,-5.169,-5.1417,-5.1339,-5.13,-5.13,-5.13,-5.13,-5.13,-5.13,-5.13,-5.13,-5.13,-5.13,-5.13,-5.13,-5.13,-5.13,-5.13,-5.1284,-5.1256,-5.1276,-5.1278,-5.1269,-5.1249,-5.1258,-5.124,-5.123,-5.122,-5.123,-5.121,-5.122,-5.124,-5.124,-5.1211,-5.1201,-5.1211,-5.121,-5.1208,-5.1217,-5.1217,-5.1214,-5.1202,-5.1202,-5.1202,-5.1202,-5.1202,-5.1202,-5.1178,-5.1134,-5.1089,-5.5001,-5.4435,-5.3771,-5.3307,-5.2999,-5.2995,-5.3486,-5.4262,-5.4658,-5.463,-5.4533,-5.4068,-5.3034,-5.1804,-5.1453,-5.1867,-5.2758,-5.3612,-5.4473,-5.5332,-5.6113,-5.6543,-5.6621,-5.6621,-5.6621,-5.6621,-5.6621,-5.6621,-5.6621,-5.6621,-5.6621,-5.6621,-5.6621,-5.6621,-5.6614,-5.661,-5.6606,-5.6606,-5.6606,-5.661,-5.6621,-5.6614,-5.6618,-5.6618,-5.6614,-5.6606,-5.6567,-5.6586,-5.6606,-5.6606,-5.6606,-5.6602,-5.6602,-5.6558,-5.6533,-5.6484,-5.6498,-5.6289,-5.5935,-5.5166,-5.4515,-5.3911,-5.3522,-5.321,-5.2879,-5.2275,-5.1787,-5.1554,-5.1359,-5.1417,-5.13,-5.13,-5.13,-5.13,-5.13,-5.13,-5.13,-5.13,-5.13,-5.13,-5.13,-5.13,-5.13,-5.13,-5.13,-5.1292,-5.1304,-5.1306,-5.1287,-5.1267,-5.1249,-5.124,-5.122,-5.1211,-5.122,-5.123,-5.1269,-5.1249,-5.122,-5.123,-5.123,-5.1191,-5.119,-5.121,-5.118,-5.1139,-5.1128,-5.1194,-5.1202,-5.1202,-5.1202,-5.1202,-5.1166,-5.1095,-5.1015,-5.4713,-5.4396,-5.4396,-5.422,-5.4014,-5.3985,-5.4496,-5.5208,-5.5267,-5.499,-5.4377,-5.4322,-5.3424,-5.2175,-5.1831,-5.2062,-5.2833,-5.3613,-5.4453,-5.5332,-5.6113,-5.6523,-5.6621,-5.6621,-5.6621,-5.6621,-5.6621,-5.6621,-5.6621,-5.6621,-5.6621,-5.6621,-5.6607,-5.661,-5.6606,-5.6606,-5.6606,-5.6606,-5.6614,-5.6621,-5.661,-5.661,-5.661,-5.6621,-5.6607,-5.6606,-5.6606,-5.6606,-5.6606,-5.6602,-5.6582,-5.6558,-5.6577,-5.6572,-5.6562,-5.6511,-5.6498,-5.6496,-5.6297,-5.5957,-5.5314,-5.4963,-5.4437,-5.4009,-5.3522,-5.3132,-5.2664,-5.1904,-5.1729,-5.1593,-5.1437,-5.13,-5.13,-5.13,-5.13,-5.13,-5.13,-5.13,-5.13,-5.13,-5.13,-5.13,-5.13,-5.13,-5.13,-5.13,-5.1292,-5.1304,-5.1276,-5.1267,-5.1278,-5.1249,-5.123,-5.122,-5.1211,-5.1249,-5.1278,-5.1287,-5.1258,-5.1248,-5.1248,-5.1152,-5.1142,-5.1201,-5.1152,-5.1054,-5.1102,-5.1178,-5.1206,-5.1202,-5.1202,-5.119,-5.1075,-5.0986,-5.0906,-5.4478,-5.5235,-5.5177,-5.4728,-5.4201,-5.4029,-5.4587,-5.5397,-5.5416,-5.5313,-5.5142,-5.5142,-5.4264,-5.2921,-5.2563,-5.2739,-5.3149,-5.3769,-5.4551,-5.5488,-5.623,-5.6562,-5.6621,-5.6621,-5.6621,-5.6621,-5.6621,-5.6621,-5.6621,-5.6621,-5.6621,-5.6621,-5.6618,-5.6614,-5.6606,-5.6606,-5.6606,-5.661,-5.6605,-5.6612,-5.6616,-5.662,-5.6621,-5.6619,-5.6605,-5.6606,-5.6606,-5.6606,-5.6606,-5.6582,-5.6558,-5.6533,-5.6503,-5.6504,-5.6498,-5.6491,-5.6488,-5.6492,-5.6464,-5.6444,-5.6249,-5.6015,-5.5411,-5.5022,-5.4846,-5.434,-5.3405,-5.2469,-5.2372,-5.2021,-5.1671,-5.13,-5.13,-5.13,-5.13,-5.13,-5.13,-5.13,-5.13,-5.13,-5.13,-5.13,-5.13,-5.13,-5.13,-5.13,-5.13,-5.1292,-5.1284,-5.1276,-5.1287,-5.1267,-5.1267,-5.1258,-5.1249,-5.1278,-5.1306,-5.1295,-5.1295,-5.1284,-5.1031,-5.0711,-5.08,-5.1092,-5.0918,-5.0646,-5.0909,-5.121,-5.1186,-5.1171,-5.1171,-5.1127,-5.1015,-5.0867,-5.0745,-5.3639,-5.442,-5.4439,-5.4943,-5.563,-5.5728,-5.5895,-5.6122,-5.6133,-5.5849,-5.5376,-5.5298,-5.4713,-5.3702,-5.3151,-5.334,-5.4258,-5.3867,-5.4609,-5.6094,-5.6504,-5.6562,-5.6621,-5.6621,-5.6621,-5.6621,-5.6621,-5.6621,-5.6621,-5.6621,-5.6621,-5.6621,-5.6599,-5.6616,-5.6621,-5.6618,-5.6605,-5.6607,-5.6616,-5.6621,-5.662,-5.662,-5.6619,-5.6607,-5.6614,-5.6606,-5.6606,-5.6606,-5.6582,-5.6577,-5.6533,-5.6528,-5.6497,-5.6498,-5.6498,-5.6491,-5.6488,-5.65,-5.6492,-5.6464,-5.6483,-5.6366,-5.621,-5.5743,-5.5256,-5.5002,-5.4028,-5.3112,-5.2898,-5.2353,-5.1534,-5.1378,-5.1339,-5.13,-5.13,-5.13,-5.13,-5.13,-5.13,-5.13,-5.13,-5.13,-5.13,-5.13,-5.13,-5.13,-5.13,-5.13,-5.1292,-5.1292,-5.1292,-5.1284,-5.1284,-5.1276,-5.1267,-5.1295,-5.1295,-5.1295,-5.1295,-5.1295,-5.0934,-5.0513,-5.0689,-5.1089,-5.0644,-5.0246,-5.0792,-5.121,-5.1156,-5.1127,-5.1102,-5.0829,-5.0511,-5.0455,-5.0484,-5.2749,-5.3522,-5.3539,-5.4554,-5.6058,-5.6468,-5.661,-5.661,-5.6595,-5.6255,-5.5845,-5.5747,-5.5279,-5.4482,-5.4027,-5.3962,-5.5215,-5.4824,-5.5039,-5.6504,-5.6601,-5.6621,-5.6621,-5.6621,-5.6621,-5.6621,-5.6621,-5.6621,-5.6621,-5.6621,-5.6586,-5.6572,-5.6571,-5.658,-5.6581,-5.658,-5.6618,-5.6619,-5.6621,-5.6619,-5.6616,-5.6612,-5.661,-5.6614,-5.6606,-5.6606,-5.6586,-5.6563,-5.6558,-5.6553,-5.6548,-5.6548,-5.6511,-5.6485,-5.6498,-5.6496,-5.6488,-5.65,-5.6492,-5.6483,-5.6483,-5.6464,-5.6483,-5.623,-5.5782,-5.5684,-5.4924,-5.4087,-5.3522,-5.2957,-5.2353,-5.2158,-5.206,-5.208,-5.2099,-5.2138,-5.2119,-5.2158,-5.1787,-5.1749,-5.1339,-5.1339,-5.13,-5.13,-5.13,-5.13,-5.13,-5.13,-5.13,-5.13,-5.13,-5.13,-5.13,-5.1284,-5.1284,-5.1304,-5.1304,-5.1304,-5.1304,-5.1304,-5.102,-5.063,-5.0852,-5.095,-5.0525,-5.0399,-5.0918,-5.121,-5.1132,-5.1056,-5.0986,-5.0612,-5.0066,-5.0154,-5.0392,-5.1921,-5.2656,-5.2715,-5.3769,-5.5293,-5.6152,-5.6522,-5.6612,-5.6614,-5.6586,-5.6567,-5.6411,-5.5845,-5.5302,-5.514,-5.5112,-5.5254,-5.5195,-5.5781,-5.6348,-5.6601,-5.6621,-5.6621,-5.6621,-5.6621,-5.6621,-5.6598,-5.6595,-5.6613,-5.6588,-5.655,-5.6509,-5.6508,-5.6527,-5.6534,-5.6559,-5.6601,-5.662,-5.6618,-5.661,-5.6607,-5.6618,-5.6614,-5.6606,-5.6606,-5.6606,-5.6582,-5.6558,-5.6558,-5.6553,-5.6523,-5.6511,-5.6498,-5.6484,-5.6488,-5.6492,-5.6492,-5.6492,-5.6492,-5.6483,-5.6483,-5.6483,-5.6483,-5.6464,-5.6405,-5.621,-5.5587,-5.508,-5.4613,-5.4242,-5.3853,-5.3677,-5.3522,-5.3522,-5.3541,-5.3522,-5.3463,-5.321,-5.2684,-5.2255,-5.1632,-5.1398,-5.132,-5.13,-5.13,-5.13,-5.13,-5.13,-5.13,-5.13,-5.13,-5.13,-5.13,-5.13,-5.13,-5.1292,-5.1292,-5.1312,-5.1292,-5.1273,-5.0969,-5.0755,-5.0794,-5.0716,-5.0424,-5.0533,-5.1053,-5.119,-5.1088,-5.1009,-5.0941,-5.0516,-4.9984,-5.0352,-5.0586,-5.1902,-5.2695,-5.2695,-5.3691,-5.5215,-5.5566,-5.6014,-5.6571,-5.6614,-5.6606,-5.6586,-5.5918,-5.5669,-5.5259,-5.4658,-5.4874,-5.5137,-5.541,-5.5879,-5.6289,-5.6621,-5.6621,-5.6621,-5.6621,-5.6621,-5.6602,-5.6581,-5.6562,-5.6536,-5.6523,-5.653,-5.6484,-5.6489,-5.6494,-5.6504,-5.6556,-5.6588,-5.6612,-5.6605,-5.6621,-5.6618,-5.661,-5.6606,-5.6606,-5.6606,-5.6606,-5.6602,-5.6533,-5.6533,-5.6528,-5.6517,-5.6498,-5.6484,-5.6496,-5.6488,-5.6492,-5.6483,-5.6483,-5.6483,-5.6483,-5.6483,-5.6483,-5.6483,-5.6483,-5.6483,-5.6386,-5.6093,-5.5684,-5.5392,-5.4983,-5.4593,-5.4418,-5.4359,-5.4359,-5.4359,-5.434,-5.4262,-5.397,-5.3424,-5.2489,-5.1865,-5.1495,-5.1398,-5.13,-5.13,-5.13,-5.13,-5.13,-5.13,-5.13,-5.13,-5.13,-5.13,-5.13,-5.13,-5.13,-5.13,-5.13,-5.13,-5.1281,-5.1125,-5.093,-5.0735,-5.0677,-5.0716,-5.0891,-5.1195,-5.1201,-5.1088,-5.0961,-5.0855,-5.0389,-5.0105,-5.0452,-5.0567,-5.1687,-5.2148,-5.2187,-5.3008,-5.4258,-5.5,-5.5643,-5.6046,-5.6087,-5.6235,-5.6508,-5.6079,-5.5814,-5.5785,-5.5407,-5.541,-5.582,-5.5918,-5.6191,-5.6426,-5.6601,-5.6621,-5.6621,-5.6602,-5.6582,-5.6569,-5.6547,-5.6542,-5.6504,-5.6498,-5.6488,-5.6488,-5.6485,-5.6497,-5.6509,-5.6563,-5.6595,-5.6618,-5.6614,-5.6606,-5.6606,-5.6606,-5.6606,-5.6606,-5.6606,-5.6606,-5.6602,-5.6533,-5.6509,-5.6528,-5.6517,-5.6498,-5.6484,-5.6496,-5.648,-5.6483,-5.6483,-5.6483,-5.6483,-5.6483,-5.6483,-5.6483,-5.6483,-5.6483,-5.6483,-5.6425,-5.621,-5.5918,-5.5782,-5.5567,-5.5236,-5.4963,-5.4963,-5.4983,-5.4983,-5.4983,-5.4827,-5.4632,-5.3814,-5.2781,-5.2177,-5.1749,-5.1515,-5.1417,-5.13,-5.13,-5.13,-5.13,-5.13,-5.13,-5.13,-5.13,-5.13,-5.13,-5.13,-5.13,-5.13,-5.13,-5.13,-5.1261,-5.1183,-5.1145,-5.1008,-5.1086,-5.1203,-5.13,-5.13,-5.1201,-5.1088,-5.0961,-5.0835,-5.0522,-5.0317,-5.0491,-5.0452,-5.1396,-5.1445,-5.1465,-5.2031,-5.2793,-5.4297,-5.5077,-5.5206,-5.5208,-5.5743,-5.643,-5.6489,-5.6295,-5.6071,-5.5946,-5.6007,-5.6172,-5.625,-5.6367,-5.6601,-5.6582,-5.6585,-5.6581,-5.6578,-5.6556,-5.6511,-5.6498,-5.65,-5.65,-5.648,-5.6488,-5.6496,-5.6485,-5.6497,-5.6503,-5.6533,-5.6586,-5.661,-5.661,-5.6606,-5.6606,-5.6606,-5.6606,-5.6606,-5.6606,-5.6606,-5.6582,-5.6558,-5.6514,-5.6553,-5.6542,-5.6498,-5.6484,-5.6488,-5.6492,-5.6492,-5.6483,-5.6483,-5.6483,-5.6483,-5.6483,-5.6483,-5.6483,-5.6483,-5.6483,-5.6483,-5.6288,-5.6249,-5.6113,-5.6093,-5.584,-5.5762,-5.5782,-5.5782,-5.5782,-5.5782,-5.5704,-5.5295,-5.4457,-5.356,-5.3015,-5.2586,-5.2314,-5.2275,-5.2099,-5.1729,-5.1534,-5.1573,-5.132,-5.132,-5.13,-5.13,-5.13,-5.13,-5.13,-5.13,-5.13,-5.13,-5.13,-5.13,-5.1242,-5.1261,-5.13,-5.13,-5.13,-5.13,-5.1284,-5.119,-5.1081,-5.0932,-5.079,-5.0636,-5.0565,-5.051,-5.0529,-5.1386,-5.1465,-5.2109,-5.2168,-5.1875,-5.2851,-5.373,-5.4296,-5.4314,-5.5201,-5.6274,-5.5957,-5.5696,-5.582,-5.5858,-5.5858,-5.5872,-5.6361,-5.6508,-5.6543,-5.6543,-5.6532,-5.6536,-5.6527,-5.6508,-5.65,-5.6492,-5.6483,-5.6492,-5.65,-5.6488,-5.6484,-5.6498,-5.6485,-5.6497,-5.6528,-5.6558,-5.6606,-5.6606,-5.6606,-5.6606,-5.6606,-5.6606,-5.6606,-5.6606,-5.6606,-5.6582,-5.6538,-5.6538,-5.6577,-5.6543,-5.6496,-5.65,-5.6492,-5.6483,-5.6483,-5.6483,-5.6483,-5.6483,-5.6483,-5.6483,-5.6483,-5.6483,-5.6483,-5.6483,-5.6483,-5.6483,-5.6483,-5.6483,-5.6483,-5.6483,-5.6483,-5.6483,-5.6483,-5.6483,-5.6483,-5.6483,-5.5801,-5.5061,-5.4476,-5.39,-5.3541,-5.3249,-5.3015,-5.2879,-5.2645,-5.2411,-5.2177,-5.1593,-5.1378,-5.132,-5.13,-5.13,-5.13,-5.13,-5.13,-5.13,-5.13,-5.13,-5.13,-5.13,-5.13,-5.13,-5.13,-5.13,-5.13,-5.1276,-5.124,-5.1113,-5.0959,-5.0724,-5.0535,-5.0236,-5.0123,-5.0317,-5.1387,-5.1465,-5.1914,-5.1855,-5.1621,-5.2344,-5.2988,-5.3496,-5.4212,-5.5093,-5.5974,-5.5909,-5.5851,-5.5859,-5.5879,-5.5801,-5.5865,-5.6271,-5.6434,-5.6485,-5.6488,-5.6471,-5.6476,-5.6488,-5.65,-5.6483,-5.6483,-5.6483,-5.6492,-5.65,-5.6488,-5.6484,-5.6484,-5.6478,-5.6497,-5.6509,-5.6558,-5.6606,-5.6606,-5.6606,-5.6606,-5.6606,-5.6606,-5.6606,-5.6606,-5.6606,-5.6602,-5.6558,-5.6582,-5.6577,-5.655,-5.6496,-5.65,-5.6492,-5.6483,-5.6483,-5.6483,-5.6483,-5.6483,-5.6483,-5.6483,-5.6483,-5.6483,-5.6483,-5.6483,-5.6483,-5.6483,-5.6483,-5.6483,-5.6483,-5.6483,-5.6483,-5.6483,-5.6483,-5.6483,-5.6483,-5.6483,-5.6191,-5.5528,-5.4944,-5.4496,-5.4203,-5.3892,-5.3541,-5.3405,-5.3249,-5.3054,-5.2684,-5.2119,-5.171,-5.1554,-5.1398,-5.1476,-5.1378,-5.13,-5.13,-5.13,-5.13,-5.13,-5.13,-5.13,-5.13,-5.13,-5.13,-5.13,-5.13,-5.1267,-5.1249,-5.1186,-5.1056,-5.0753,-5.0433,-5.0115,-4.9889,-5.0218,-5.1387,-5.1387,-5.1406,-5.1406,-5.1504,-5.2187,-5.2598,-5.2949,-5.4258,-5.5054,-5.5377,-5.5907,-5.6295,-5.6582,-5.6601,-5.6562,-5.6494,-5.6438,-5.644,-5.643,-5.6466,-5.6464,-5.6453,-5.6455,-5.6483,-5.6483,-5.6483,-5.6483,-5.6483,-5.65,-5.6488,-5.6496,-5.6498,-5.6478,-5.6509,-5.6553,-5.6577,-5.6602,-5.6606,-5.6606,-5.6606,-5.6606,-5.6606,-5.6606,-5.6606,-5.6606,-5.6606,-5.6606,-5.6606,-5.6577,-5.6536,-5.6503,-5.65,-5.6483,-5.6483,-5.6483,-5.6483,-5.6483,-5.6483,-5.6483,-5.6483,-5.6483,-5.6483,-5.6483,-5.6483,-5.6483,-5.6483,-5.6483,-5.6483,-5.6483,-5.6483,-5.6483,-5.6483,-5.6483,-5.6483,-5.6483,-5.6464,-5.6464,-5.5957,-5.5411,-5.5197,-5.4905,-5.4671,-5.4301,-5.4087,-5.3911,-5.358,-5.3132,-5.2762,-5.2508,-5.2294,-5.2002,-5.1846,-5.169,-5.1398,-5.13,-5.13,-5.13,-5.13,-5.13,-5.13,-5.13,-5.13,-5.13,-5.13,-5.13,-5.13,-5.1276,-5.122,-5.1132,-5.061,-5.024,-5.013,-5.0019,-5.0289,-5.1387,-5.1387,-5.1387,-5.1387,-5.1426,-5.1601,-5.2031,-5.2676,-5.3027,-5.3921,-5.4894,-5.475,-5.5156,-5.6601,-5.6621,-5.6504,-5.6283,-5.6382,-5.643,-5.6397,-5.6427,-5.6446,-5.6465,-5.6474,-5.6483,-5.6483,-5.6483,-5.6483,-5.6483,-5.6492,-5.6492,-5.65,-5.65,-5.6484,-5.6491,-5.6536,-5.6567,-5.6597,-5.6606,-5.6606,-5.6606,-5.6606,-5.6606,-5.6606,-5.6606,-5.6606,-5.6606,-5.6606,-5.6606,-5.6597,-5.6542,-5.651,-5.648,-5.6492,-5.6483,-5.6483,-5.6483,-5.6483,-5.6483,-5.6483,-5.6483,-5.6483,-5.6483,-5.6483,-5.6483,-5.6483,-5.6483,-5.6483,-5.6483,-5.6483,-5.6483,-5.6483,-5.6483,-5.6483,-5.6483,-5.6483,-5.6483,-5.6483,-5.6269,-5.6093,-5.6035,-5.5918,-5.586,-5.5567,-5.5372,-5.5119,-5.471,-5.4242,-5.3677,-5.3366,-5.3034,-5.2606,-5.2236,-5.1826,-5.1476,-5.1339,-5.13,-5.13,-5.13,-5.13,-5.13,-5.13,-5.13,-5.13,-5.13,-5.13,-5.13,-5.13,-5.122,-5.1058,-5.0402,-5.0015,-5.0016,-5.0127,-5.0397]}]]